GFSWCAN_925_spd_021.txt.gz
Wind_Speed
28 28 27 27 25 26 28 27 30 34 30 47 47 45 44 47 48 45 6 5 7 6 7 3 7 12 13 12 7 9 7 2 3 3 3 3 1 4 2 2 5 6 6 3 3 3 5 5 6 1 5 6 7 8
26 24 23 25 29 27 28 32 32 35 41 41 42 40 43 45 42 42 5 4 8 4 6 5 5 6 2 7 7 12 4 10 7 4 1 2 2 2 0 3 3 4 4 1 6 1 4 4 4 5 5 8 8 9
21 22 24 26 29 30 32 35 41 38 37 37 37 39 41 43 42 37 5 6 9 4 5 5 5 5 4 3 3 5 3 5 5 3 4 2 3 4 4 5 3 4 2 3 1 2 3 5 6 3 4 6 8 10
29 28 23 23 24 24 25 26 25 28 30 31 35 37 37 36 40 27 7 3 7 5 4 4 3 3 5 2 5 2 10 7 9 5 3 3 3 4 4 1 2 3 6 5 6 10 5 5 3 6 9 10 10 9
31 29 25 23 23 24 22 22 24 27 30 32 33 33 34 36 42 9 4 5 8 1 4 5 8 6 3 4 6 7 14 9 5 3 2 2 3 4 2 0 3 4 2 3 4 7 5 7 10 9 7 9 9 8
27 26 26 25 23 22 22 24 26 27 28 30 32 33 35 36 46 10 3 4 4 5 4 4 3 4 7 11 11 9 5 4 3 4 2 3 2 3 4 4 5 4 4 4 4 9 7 7 10 10 10 10 11 11
31 28 25 22 21 19 17 17 22 26 28 30 31 32 34 35 38 5 2 6 12 7 3 4 4 4 3 5 2 4 5 3 1 3 3 3 3 3 3 3 6 3 4 1 6 8 6 10 7 8 10 15 20 20
35 35 30 25 22 21 21 20 23 27 28 30 31 34 35 35 19 5 10 14 14 4 3 4 3 3 3 2 3 3 2 2 5 3 2 3 3 1 3 6 3 5 4 8 5 5 7 8 10 11 14 15 13 13
37 36 35 34 36 35 31 34 36 40 40 40 41 38 28 4 2 4 7 14 9 5 1 2 6 4 3 3 2 2 2 3 1 2 2 3 2 4 4 3 3 5 3 2 6 8 10 12 11 11 12 12 12 8
33 32 31 29 29 28 27 30 38 43 41 38 25 7 3 3 9 6 15 2 1 2 3 3 2 4 0 2 2 2 2 3 2 1 3 2 3 4 3 4 3 4 4 7 7 8 9 11 10 10 10 8 8 10
26 30 27 27 26 23 21 18 19 18 16 6 3 3 6 10 8 2 2 1 1 2 3 3 2 4 2 2 3 2 3 1 4 3 3 4 3 5 4 5 4 5 9 10 14 13 11 11 10 8 8 10 9 9
25 25 24 26 25 24 16 13 13 10 8 10 16 10 7 1 4 4 1 0 2 2 2 2 3 3 2 1 3 2 3 2 3 4 3 3 4 9 7 7 8 11 14 14 17 14 12 11 11 10 9 8 7 7
22 22 24 22 21 20 22 24 25 18 11 5 4 4 2 2 4 2 3 2 2 2 1 2 3 2 3 3 3 2 3 2 3 2 3 3 8 8 9 10 12 15 15 14 13 12 11 12 12 10 10 9 8 9
22 22 24 26 23 13 14 17 13 7 11 5 4 5 5 3 4 3 3 3 2 2 1 4 3 2 1 3 1 4 2 1 3 3 3 4 7 9 9 9 11 11 7 9 10 11 11 12 12 13 12 11 10 10
20 21 21 24 21 20 15 8 6 16 8 5 5 4 4 2 3 2 1 2 3 2 2 3 3 2 2 3 2 4 3 3 4 0 2 5 9 8 9 11 10 9 4 7 9 10 10 10 10 10 9 9 9 9
12 15 22 16 15 13 13 19 17 7 5 4 6 3 1 2 3 3 4 3 4 2 2 3 2 2 2 2 3 3 2 2 2 3 3 7 8 7 8 9 9 8 7 9 10 11 10 9 8 7 6 9 9 9
16 8 11 10 15 12 11 9 7 6 4 4 3 2 2 4 4 2 2 2 4 2 2 2 2 4 1 2 2 3 3 3 4 4 4 6 9 8 8 11 8 8 10 10 10 9 8 7 6 6 7 9 8 7
11 11 9 5 6 11 8 9 4 4 6 5 4 3 3 3 2 3 3 5 2 2 1 2 0 0 3 2 3 2 3 2 4 5 6 8 10 11 11 10 10 10 10 9 9 8 6 4 3 5 6 8 8 8
17 16 10 12 10 7 4 6 5 4 5 2 2 2 2 2 4 4 3 3 4 3 3 1 2 3 3 4 4 3 3 1 3 3 4 8 10 10 8 11 11 10 10 8 6 5 6 6 5 5 6 8 9 10
16 16 20 16 9 5 5 4 5 4 4 3 3 4 3 3 2 3 4 5 4 2 4 4 4 3 4 4 5 4 2 4 5 4 4 3 9 10 11 10 8 9 9 9 8 4 4 3 5 6 7 8 9 10
12 15 15 10 8 12 5 4 5 3 3 3 1 2 3 2 4 4 4 6 5 4 3 3 4 4 7 9 11 8 8 3 1 2 5 6 9 11 11 10 8 6 6 6 5 5 5 5 6 7 7 8 9 9
9 11 6 11 6 5 5 10 3 2 3 3 2 2 3 2 3 4 4 4 4 5 4 4 7 5 6 9 12 14 11 10 13 15 18 14 6 9 10 8 9 10 9 8 6 5 5 6 7 7 8 9 9 10
8 8 7 10 5 5 3 5 4 4 2 2 1 2 3 2 3 3 3 4 3 7 10 8 8 10 10 12 14 17 17 14 13 13 14 14 14 14 12 12 11 9 7 7 6 5 5 6 7 8 8 10 10 11
10 7 6 5 6 4 2 4 2 2 2 2 2 2 2 2 3 3 4 3 4 10 10 12 7 3 8 11 11 14 12 12 14 14 11 11 12 12 11 11 10 9 7 5 5 6 6 7 8 9 9 10 10 11
5 7 5 7 4 3 3 3 3 3 3 3 2 3 2 2 1 3 2 2 5 6 7 11 11 10 5 6 10 13 14 12 11 12 11 9 10 9 8 7 7 8 8 7 6 7 7 8 9 9 10 10 11 12
7 8 5 4 3 3 3 2 3 3 2 2 3 2 1 1 2 3 2 3 4 5 7 8 7 5 7 11 8 10 11 9 8 11 10 10 10 8 5 4 3 4 8 7 8 9 9 9 10 11 11 11 11 12
5 5 4 3 2 3 3 3 2 2 2 3 2 1 1 1 2 3 3 6 4 7 9 10 10 9 8 9 10 10 10 12 11 9 8 8 9 9 8 6 6 5 7 7 8 9 10 11 12 12 12 12 12 12
4 5 3 3 3 3 3 2 2 2 2 2 2 2 2 5 3 3 4 5 6 6 8 9 10 9 9 8 7 7 7 6 5 5 5 5 6 6 7 6 6 8 7 8 8 9 10 11 12 13 13 12 12 11
4 3 2 4 3 3 3 2 2 2 3 3 3 2 3 3 4 4 5 4 3 3 5 6 7 6 7 7 8 8 8 8 6 4 4 3 4 3 8 8 8 9 10 10 10 10 11 11 11 11 11 11 11 11
4 4 2 2 2 2 2 4 3 3 5 4 3 3 3 4 6 6 6 7 7 7 6 6 5 5 5 4 4 5 7 8 9 8 5 5 8 9 9 9 10 10 10 11 11 12 10 11 10 9 9 10 10 10
3 3 2 3 2 2 3 4 2 5 3 3 6 4 4 4 5 8 9 7 6 5 4 5 6 7 6 7 8 6 4 5 8 7 6 6 8 9 9 10 11 11 11 11 12 12 12 12 11 11 10 10 10 10
3 4 3 2 2 2 3 3 2 0 3 2 2 2 3 3 3 3 7 7 5 6 6 6 5 5 5 5 6 5 6 6 7 8 9 9 10 10 10 11 11 11 11 12 12 12 11 12 11 11 11 10 10 10
1 2 2 2 1 1 3 3 1 1 2 2 3 2 3 4 4 3 3 8 6 5 5 5 5 4 5 5 7 6 7 8 10 11 11 12 11 10 11 11 11 11 13 13 13 13 12 12 11 11 10 10 10 10

GFSWCAN_925_spd_024.txt.gz
Wind_Speed
34 31 29 27 26 26 25 24 24 24 29 35 34 34 32 37 38 33 34 39 9 3 11 18 16 15 8 11 7 8 6 3 3 2 3 2 2 3 2 6 6 6 6 3 2 2 5 5 5 3 4 4 7 7
29 29 30 28 27 28 28 25 25 28 30 33 33 34 32 27 33 35 18 38 38 10 5 15 15 11 4 7 6 9 5 9 5 3 1 3 2 2 3 2 10 3 4 2 7 4 5 3 3 3 5 4 4 5
29 29 28 29 28 25 24 26 28 30 31 33 33 33 31 29 38 40 36 32 11 2 5 5 6 8 12 9 10 4 3 8 5 3 3 2 3 4 3 4 3 4 4 1 2 4 5 3 1 0 5 7 9 9
25 26 24 24 24 26 26 25 26 26 31 36 45 42 33 32 35 40 33 39 21 6 5 5 2 4 6 3 5 4 1 8 6 5 3 3 3 4 3 2 3 1 8 6 6 8 5 7 12 10 8 9 10 10
20 22 23 23 25 27 26 31 32 31 27 25 32 35 33 32 32 35 33 31 19 4 4 5 7 5 1 4 7 5 8 7 5 3 2 2 2 4 2 1 1 6 3 3 3 8 3 9 11 9 11 10 11 11
26 25 26 24 26 33 33 28 31 38 38 38 37 37 34 32 30 13 4 7 5 8 4 3 2 2 6 10 9 8 6 5 4 3 2 3 2 2 3 3 6 9 7 5 3 6 5 12 12 13 12 12 13 13
24 23 24 27 26 26 27 29 31 34 34 34 32 32 31 31 29 2 3 3 6 5 3 3 3 1 7 9 4 4 2 2 2 3 2 3 2 2 3 3 11 6 5 6 5 4 10 6 8 12 15 15 17 16
27 24 22 25 28 29 29 31 33 35 35 35 32 29 26 25 13 5 10 5 6 4 3 3 0 3 2 2 3 3 2 3 5 3 1 2 2 1 2 9 9 5 4 7 6 9 12 13 15 12 14 13 12 11
38 39 31 26 26 30 33 34 33 32 33 32 30 30 28 15 4 2 8 16 18 9 1 2 4 4 3 3 2 2 1 2 1 2 2 3 1 3 5 8 7 5 3 7 8 13 13 12 11 11 11 11 11 8
42 42 41 38 34 32 31 32 34 37 40 46 43 8 3 3 14 4 1 2 4 4 3 1 2 3 2 2 2 2 2 3 2 1 2 1 2 5 5 6 6 4 6 8 13 11 10 10 10 10 11 12 12 11
38 45 44 38 35 36 39 43 45 50 50 10 3 3 8 9 4 3 3 2 3 1 1 1 3 3 3 2 3 2 2 0 4 3 4 3 3 6 6 7 4 5 10 8 13 12 10 10 9 10 10 13 13 13
32 30 34 42 41 28 29 30 26 14 7 11 21 12 4 2 3 5 3 2 2 1 1 1 2 3 2 1 3 2 3 2 3 4 3 4 4 10 9 8 7 9 12 13 17 14 16 15 14 14 13 11 10 12
30 33 27 20 30 32 32 29 34 35 24 10 7 4 3 4 4 1 4 1 1 2 2 2 2 1 2 3 3 3 3 2 5 2 3 2 8 8 9 9 10 13 16 16 16 17 17 16 16 15 12 10 10 13
31 30 29 27 21 19 24 20 15 12 12 4 3 5 4 3 3 0 2 1 2 2 1 2 2 2 1 3 1 4 1 3 3 3 3 4 9 8 7 9 11 12 8 12 14 15 14 14 14 14 12 10 11 12
25 29 32 31 23 14 15 23 19 19 8 5 5 4 3 2 1 1 2 1 2 2 1 2 3 3 3 4 2 4 2 3 4 1 2 5 9 7 9 10 11 8 6 10 13 12 13 12 12 11 11 10 11 11
18 26 28 24 22 18 12 14 23 8 5 3 5 3 2 2 3 3 4 3 5 3 2 2 3 3 4 2 1 1 3 1 2 2 3 7 8 7 8 10 10 12 12 15 14 13 12 10 10 11 10 10 9 11
22 10 16 19 24 25 14 11 7 5 4 4 4 2 2 4 4 2 2 3 4 2 3 2 4 3 0 1 3 4 3 2 2 3 3 6 9 7 8 12 12 13 14 14 14 11 10 9 10 7 6 8 6 7
12 13 10 7 7 16 13 9 5 4 7 4 4 5 3 3 2 4 4 4 3 2 2 3 1 3 4 3 3 2 2 2 3 4 5 6 8 8 12 11 12 12 14 13 11 10 8 7 5 7 6 7 5 8
20 17 13 13 9 7 4 6 6 4 5 2 2 2 2 2 4 4 3 4 3 3 4 2 5 4 3 3 4 4 2 2 2 3 3 8 12 10 10 14 16 13 11 10 9 10 10 10 8 7 7 7 7 8
14 19 21 19 8 5 5 3 5 4 3 2 2 3 3 3 3 3 5 6 4 3 5 4 4 3 3 4 4 4 5 2 3 4 3 3 8 13 12 12 10 12 12 12 10 7 8 9 9 8 7 7 7 8
11 17 18 11 9 13 4 3 4 3 4 3 0 2 3 3 4 4 5 5 6 4 4 4 4 5 10 10 12 10 10 11 3 1 2 4 9 12 13 14 11 10 10 10 11 9 10 8 7 6 6 6 7 8
9 13 7 12 6 6 5 12 3 2 3 3 2 3 3 3 3 4 2 6 4 4 4 5 6 6 7 10 13 15 12 14 18 18 19 15 7 10 11 12 13 14 14 13 10 8 7 6 6 6 6 7 8 9
8 8 7 9 5 5 3 6 3 4 3 2 1 3 3 3 3 3 4 4 3 9 11 7 8 11 11 12 15 17 16 14 13 14 14 15 15 14 14 15 15 11 10 9 7 6 6 5 6 7 7 9 10 9
10 6 6 5 6 4 2 4 2 3 3 3 3 3 2 3 4 3 4 3 5 10 10 12 11 5 12 14 12 15 15 13 15 16 12 12 12 13 13 12 12 11 8 6 7 6 6 7 8 8 9 10 11 10
6 7 5 7 4 3 3 3 3 3 3 3 2 3 2 2 2 3 3 3 6 6 7 10 12 12 6 6 11 14 14 13 12 12 13 8 9 10 10 10 10 9 9 7 8 8 8 8 9 10 11 11 12 11
7 9 6 5 4 3 3 3 3 3 2 2 3 2 1 1 2 4 3 4 5 5 7 8 8 6 7 12 9 11 12 10 9 12 12 11 11 9 7 6 4 9 11 9 8 9 9 10 10 11 11 11 12 11
5 6 4 2 2 0 3 3 1 3 4 4 2 3 2 1 4 3 4 7 5 8 9 10 11 11 10 10 10 9 10 12 11 9 8 9 11 11 11 9 8 6 7 8 8 9 9 11 12 12 13 12 11 11
4 6 5 5 3 4 3 3 3 4 3 4 3 3 4 5 4 3 4 6 6 6 8 9 10 10 10 9 9 9 9 5 5 4 5 7 8 9 9 7 6 8 7 7 9 8 9 10 12 13 13 13 14 12
4 3 3 4 4 4 5 4 3 3 4 3 4 3 3 3 6 5 5 4 5 7 8 8 7 5 7 9 9 10 10 12 11 6 6 4 4 8 11 9 8 9 9 10 10 10 10 11 11 13 12 11 11 12
5 4 2 4 3 3 3 5 4 4 6 4 4 4 4 4 8 10 10 11 10 9 8 8 8 9 9 8 7 6 9 10 11 8 5 5 8 10 11 9 9 11 10 11 11 12 12 10 12 12 10 10 10 9
3 3 2 3 3 3 2 2 6 6 3 4 9 6 5 4 6 10 11 9 8 9 7 8 10 10 9 9 9 8 5 8 9 7 8 8 9 10 10 10 11 11 11 11 11 13 14 13 12 12 12 12 11 11
3 4 4 3 3 2 3 2 2 0 3 2 2 3 4 4 3 4 11 13 9 10 10 10 9 8 6 5 6 6 7 8 9 9 11 11 11 12 12 11 12 12 12 12 13 14 13 14 13 12 13 13 12 11
1 2 2 2 1 1 3 4 1 2 3 3 3 3 4 4 4 3 5 9 8 8 8 7 6 6 7 7 8 7 8 8 11 14 12 11 15 17 12 10 12 13 13 13 14 14 15 14 13 12 12 13 12 10

GFSWCAN_925_spd_027.txt.gz
Wind_Speed
36 34 31 29 29 28 23 25 26 29 28 38 39 38 38 34 38 31 21 24 4 3 5 5 13 8 6 7 7 7 5 5 2 4 4 3 3 5 4 7 7 6 6 3 3 3 6 6 3 6 6 3 6 4
32 29 29 26 27 26 24 26 26 27 27 31 35 36 37 38 36 39 12 22 21 2 6 25 13 5 9 10 8 5 7 9 6 4 2 4 2 2 3 3 3 1 6 5 6 6 7 3 7 6 7 6 5 6
28 30 30 28 26 25 24 23 22 24 27 32 34 36 37 38 35 38 20 9 10 3 7 6 4 10 22 24 29 5 2 6 2 4 4 3 4 4 3 4 3 1 4 4 5 2 2 3 10 9 9 10 12 12
26 28 27 23 24 25 24 23 22 22 27 30 34 34 35 31 30 31 21 22 5 2 3 4 5 6 6 16 15 11 8 6 6 4 3 3 4 3 4 4 4 5 4 6 2 2 11 10 7 11 13 13 15 16
24 25 25 25 24 23 23 23 24 27 29 32 32 31 28 28 25 24 17 25 15 2 3 3 7 10 6 10 17 17 11 7 3 3 3 3 3 4 2 3 1 3 6 4 4 2 9 5 7 12 15 13 12 13
22 24 24 25 25 24 23 24 24 24 26 28 30 28 29 24 24 15 1 27 38 15 4 3 3 5 6 11 11 7 5 3 3 4 2 2 2 4 3 3 1 6 8 4 5 9 15 13 14 14 15 13 13 13
20 22 24 24 22 24 24 25 25 24 23 25 28 29 31 29 32 9 3 3 15 19 4 2 3 5 8 7 4 4 4 3 3 3 2 3 2 4 3 4 6 7 10 9 7 13 9 6 9 13 15 17 19 19
29 27 29 31 33 26 33 31 28 29 29 26 29 32 30 26 21 17 31 6 7 2 4 4 2 4 7 2 2 3 2 3 5 2 3 3 2 2 2 5 8 9 10 9 12 13 15 15 15 12 17 15 12 10
23 25 24 22 26 30 31 33 33 35 32 34 33 31 26 9 4 8 11 8 18 8 3 3 3 3 3 3 2 4 3 3 2 2 1 4 1 2 2 10 7 8 5 12 15 15 14 14 13 12 11 9 9 8
23 22 24 25 27 29 30 32 35 37 35 38 34 5 4 11 7 4 4 4 5 4 4 2 1 1 2 1 1 2 2 3 2 2 2 3 2 4 6 7 6 5 12 15 16 10 11 12 11 11 12 10 11 11
37 30 26 27 27 25 29 33 32 36 36 4 3 3 4 8 6 4 3 4 1 4 2 2 3 2 2 3 2 1 2 1 3 3 4 1 1 3 6 7 7 10 11 10 13 11 11 14 13 12 10 13 15 15
48 41 37 36 31 30 30 34 41 18 1 5 15 8 7 5 4 6 3 2 3 3 1 2 3 2 2 1 3 1 3 2 2 2 3 3 1 10 9 6 7 10 12 14 19 17 20 18 18 17 14 14 14 14
38 46 44 36 37 36 38 38 15 38 24 9 6 5 4 5 7 3 1 2 3 3 3 3 3 1 4 3 3 3 3 1 2 2 3 1 7 7 7 7 12 18 21 21 20 22 21 19 19 19 15 15 18 17
27 28 34 41 36 28 28 21 10 7 11 5 5 6 4 3 4 4 3 3 1 2 2 3 3 2 1 3 1 4 1 2 2 3 3 3 7 6 6 9 13 13 12 12 15 18 18 18 17 17 18 18 18 17
34 27 22 25 22 26 28 20 19 14 8 5 5 5 4 1 2 1 1 2 3 2 2 2 2 2 1 3 2 3 2 2 1 2 1 4 6 6 10 10 11 11 9 10 15 15 16 16 16 17 16 17 16 15
27 35 29 20 12 9 15 19 28 8 4 4 6 3 3 3 4 3 3 2 1 1 1 2 2 3 3 2 2 3 4 2 2 2 1 5 5 8 9 10 10 14 16 15 15 15 16 16 16 17 16 15 14 12
32 10 15 21 28 21 18 14 11 7 5 4 4 3 3 3 3 3 3 3 3 3 2 2 3 1 1 3 3 3 3 2 1 1 2 5 8 10 9 10 14 18 16 17 16 14 14 17 20 17 12 11 11 12
16 16 10 11 19 27 16 9 5 5 6 4 3 3 3 2 2 2 3 2 1 2 1 2 1 4 4 4 3 3 2 2 3 3 3 5 8 13 14 12 15 17 17 17 16 16 17 16 13 13 12 11 12 11
21 19 13 12 8 7 4 6 6 4 4 2 2 2 2 2 1 3 4 4 3 3 3 3 5 4 3 3 2 4 3 2 2 2 3 7 12 13 13 16 17 17 16 16 15 14 17 18 16 14 12 9 12 10
19 21 24 16 9 6 5 3 5 4 3 2 1 3 2 2 3 3 9 7 6 3 6 4 4 3 3 3 4 3 4 3 2 3 3 4 10 14 12 13 12 17 18 19 16 16 17 16 15 11 9 8 7 7
13 19 16 11 9 14 4 3 4 3 3 2 2 2 2 2 6 6 4 6 7 4 4 4 4 5 11 12 16 11 13 14 6 3 2 5 12 15 16 16 16 15 15 13 14 15 16 13 11 10 9 8 7 8
10 11 7 13 6 6 5 12 3 1 3 1 3 3 3 3 3 4 2 7 4 4 3 3 5 5 7 11 14 19 15 15 18 20 22 18 7 10 13 14 18 16 16 14 14 13 11 8 8 5 8 7 7 8
6 9 8 10 6 6 2 9 4 3 3 1 3 3 3 2 2 2 3 3 3 6 10 6 12 16 15 16 18 21 21 18 16 16 17 17 18 18 19 20 18 15 12 12 12 10 9 6 8 8 7 7 9 7
10 7 6 5 5 3 2 4 3 3 4 3 3 3 3 3 2 3 3 3 3 10 10 12 7 6 12 15 11 16 16 16 16 18 15 14 14 15 16 16 17 17 14 11 10 10 9 8 7 8 9 9 10 9
7 8 5 6 4 5 4 4 5 4 4 4 4 3 2 2 3 3 3 3 4 5 6 10 13 13 5 6 10 13 20 13 12 12 17 11 12 13 13 15 16 15 11 10 11 10 10 9 9 9 9 11 11 9
8 9 5 5 3 4 4 3 3 3 1 2 2 1 2 2 4 4 2 3 3 3 6 7 6 4 7 12 8 11 14 10 13 14 14 14 15 14 11 8 6 9 10 8 7 9 9 10 11 12 12 13 11 7
6 5 2 1 0 1 2 2 2 4 5 4 3 3 2 3 4 3 2 7 3 10 11 14 14 12 9 9 10 11 13 12 12 12 10 14 15 14 12 11 8 7 6 8 11 9 9 10 11 12 13 11 11 11
4 4 5 5 4 5 3 3 4 5 3 4 2 5 3 4 3 2 4 7 7 9 11 12 11 11 13 13 12 9 11 6 5 8 11 14 13 13 11 9 8 8 7 9 10 9 9 10 13 11 12 14 15 11
3 3 3 5 4 4 5 4 3 3 4 3 3 3 3 3 7 6 8 13 17 15 14 12 7 9 12 13 14 16 17 15 13 6 5 3 3 13 14 11 7 10 11 10 10 10 11 13 10 13 14 17 15 14
4 2 3 4 4 4 3 5 3 3 7 5 4 4 3 4 13 17 18 15 13 12 13 15 15 14 16 15 11 12 15 16 14 10 4 3 8 13 13 12 12 12 12 14 13 12 13 13 14 13 13 14 12 11
2 3 3 3 3 2 2 3 8 7 4 3 8 3 4 3 6 15 22 11 11 19 13 15 15 13 14 14 14 10 6 10 10 7 12 11 12 12 14 16 14 15 13 14 13 13 15 15 15 15 13 12 12 8
3 4 2 3 2 1 1 2 1 2 3 2 2 3 2 3 3 5 14 13 15 15 14 14 12 9 11 6 8 8 8 9 8 14 17 16 14 15 19 18 10 11 15 16 15 15 15 16 18 17 14 7 12 13
1 3 4 3 3 3 1 2 0 3 4 3 3 2 2 3 3 2 7 11 8 8 8 7 6 7 6 7 9 7 5 9 15 14 12 15 17 16 14 14 17 17 14 14 12 13 15 16 17 16 11 9 10 10

GFSWCAN_925_spd_030.txt.gz
Wind_Speed
38 38 38 38 38 38 37 37 36 35 36 37 38 40 33 39 38 36 10 16 7 3 7 6 7 14 9 11 9 5 4 2 3 4 3 4 3 5 4 7 7 7 6 3 3 2 7 6 4 7 6 4 7 5
35 35 34 34 33 31 31 33 33 34 38 39 37 36 37 35 39 34 5 22 16 4 4 15 14 18 26 9 6 3 4 6 5 4 1 4 2 2 4 3 3 2 7 6 8 6 5 2 3 4 6 7 4 7
28 28 29 29 28 25 22 24 28 30 33 34 37 35 37 37 36 33 14 10 10 4 5 3 5 4 13 32 27 5 2 5 4 4 4 2 4 4 4 4 4 2 5 4 4 4 3 6 7 6 5 10 7 6
23 25 26 28 26 20 23 23 22 28 28 36 37 39 37 35 34 30 14 19 9 4 1 5 5 5 5 25 37 20 11 6 7 4 3 3 4 3 4 4 5 5 7 6 4 1 9 8 6 10 13 12 14 13
23 23 23 24 25 25 25 24 23 22 26 30 32 32 34 33 27 23 15 25 24 4 4 5 16 6 3 13 23 26 12 7 4 3 3 2 3 4 1 3 1 5 7 5 5 11 5 4 5 7 12 10 10 15
22 23 19 20 22 22 21 19 19 20 26 30 30 28 27 25 24 23 4 21 23 6 2 3 4 5 7 17 11 11 5 4 3 4 3 1 1 3 4 3 2 1 2 5 6 6 13 13 10 9 13 12 12 13
21 21 21 21 21 20 18 17 19 21 23 25 24 24 23 24 32 6 4 4 20 19 2 3 6 3 2 2 0 0 3 3 3 3 2 3 2 3 3 4 6 4 8 13 18 18 9 4 8 12 16 18 22 21
21 21 22 22 21 19 19 21 22 23 22 22 22 22 24 22 16 10 9 10 23 8 3 1 4 2 9 3 2 3 2 2 5 2 2 2 2 2 1 1 10 8 12 9 6 9 13 16 15 14 19 19 14 11
22 22 23 23 21 22 21 22 22 18 20 25 27 24 16 9 4 5 22 9 5 6 2 2 1 2 3 3 2 4 3 4 2 2 1 2 2 1 2 7 11 12 6 14 15 17 16 16 14 13 13 10 13 9
32 30 27 25 22 25 23 24 20 25 30 31 24 6 1 7 13 9 5 3 4 3 2 2 2 1 3 3 3 3 2 2 2 2 2 3 1 2 5 5 5 12 17 18 18 10 14 14 13 11 10 7 9 11
24 27 28 28 29 27 28 31 33 35 36 12 4 3 17 15 5 2 2 3 1 3 2 1 2 3 4 4 3 2 1 2 3 3 4 2 2 2 1 7 6 10 9 4 12 11 12 16 15 13 11 14 15 15
29 32 31 31 32 32 33 38 39 23 16 8 16 19 12 3 1 3 3 2 4 2 3 2 2 3 2 3 4 2 2 2 2 2 3 3 1 6 6 8 10 9 12 13 20 16 18 18 19 18 16 15 15 17
33 32 33 34 35 37 39 42 52 22 29 19 5 4 2 2 7 4 1 2 3 4 3 2 3 3 3 4 3 3 3 2 1 2 2 1 5 4 9 11 12 15 19 20 17 22 23 20 18 22 18 16 18 17
46 40 33 31 29 29 34 27 14 2 9 5 5 6 5 5 4 2 2 1 1 1 2 3 2 3 1 4 2 4 1 2 2 4 4 2 6 6 10 10 13 12 13 13 14 18 19 20 17 19 20 22 22 18
37 40 39 31 24 16 11 8 6 14 8 6 6 6 6 2 2 1 1 1 3 2 2 2 2 3 2 3 2 3 2 1 1 1 1 2 5 10 11 10 11 11 11 11 16 17 17 19 18 17 19 20 21 21
22 29 28 18 17 16 17 22 20 7 4 4 7 4 3 3 4 4 4 3 3 2 1 2 3 3 3 2 2 3 2 2 1 1 1 4 8 9 10 10 9 14 16 16 15 17 17 17 17 17 19 17 17 17
31 9 19 21 20 13 12 11 10 6 5 4 3 2 1 1 0 1 1 2 3 2 2 2 4 2 0 3 3 4 3 2 2 1 2 7 8 11 11 11 14 15 15 15 15 15 15 18 22 18 14 13 13 14
17 12 9 14 25 29 21 12 5 5 7 3 3 3 2 3 3 3 4 3 2 2 2 3 3 5 5 4 3 3 2 3 3 3 4 6 7 10 12 12 13 16 16 15 15 15 18 16 12 9 13 15 16 16
20 14 13 13 9 8 4 6 6 4 5 2 2 3 2 4 7 6 7 7 7 6 3 3 5 4 3 3 3 5 5 3 2 3 3 8 11 11 12 14 16 16 16 16 15 14 16 16 14 15 14 13 12 9
23 24 24 16 9 5 5 4 6 4 3 2 2 6 4 3 4 7 11 8 7 4 6 5 4 3 3 5 5 4 5 5 3 5 6 7 11 13 11 13 14 18 20 21 19 19 18 17 16 14 12 11 9 5
12 17 14 11 9 15 4 3 4 3 3 3 1 2 3 4 8 7 6 7 7 4 4 4 4 5 11 12 15 12 14 14 7 5 4 5 13 17 18 18 19 18 18 16 15 14 15 12 10 9 9 9 7 8
10 10 6 13 6 6 5 11 3 0 3 1 3 3 3 3 3 4 2 7 4 4 3 4 6 5 8 12 15 19 16 18 20 20 21 17 7 10 14 16 18 16 17 15 14 12 12 11 8 8 7 6 5 5
7 9 9 11 7 6 2 7 5 4 4 2 3 4 3 3 3 2 4 4 4 7 10 11 13 15 15 17 19 23 22 18 16 16 17 17 18 18 19 20 18 16 14 15 13 12 11 9 8 7 6 6 5 4
11 7 6 5 6 2 3 5 3 3 4 4 3 3 3 3 2 4 4 3 3 12 10 11 9 6 12 16 12 15 16 16 17 19 16 15 15 16 17 18 20 19 14 12 12 11 11 10 8 8 8 7 7 6
7 8 6 7 4 6 5 4 5 4 3 3 3 3 1 2 3 3 2 2 4 5 6 10 13 11 5 4 10 14 17 15 13 12 16 12 13 14 14 17 17 15 12 11 12 10 10 8 9 8 9 11 9 6
8 6 5 5 3 4 3 3 3 3 2 3 3 2 2 3 5 3 2 1 2 3 5 4 4 5 7 11 8 11 12 9 14 16 16 16 15 12 10 8 8 10 12 13 12 9 8 9 9 10 9 8 8 9
6 5 3 1 2 2 3 3 3 5 4 4 3 4 3 4 3 2 1 4 3 8 11 13 13 12 10 10 11 12 13 14 15 16 16 18 19 18 15 11 8 6 6 9 9 8 9 10 11 12 10 10 12 12
4 4 4 5 4 4 3 3 4 3 3 4 2 6 3 3 2 2 4 6 13 14 16 15 16 16 17 18 15 13 10 12 12 12 13 13 14 15 13 8 6 7 10 10 9 9 9 10 11 8 11 13 15 14
3 2 3 5 4 4 5 3 3 2 4 2 3 3 3 3 7 7 11 15 14 16 17 15 14 14 16 17 18 20 20 13 7 5 4 3 9 12 15 10 9 10 10 10 11 10 9 11 13 12 13 13 12 12
3 2 4 4 5 4 2 3 3 3 7 5 5 4 4 4 11 16 17 15 17 17 17 17 14 15 15 12 10 14 16 16 16 14 3 2 8 13 14 15 18 16 14 14 13 12 11 12 13 13 12 13 12 10
2 4 4 4 3 1 3 8 11 11 6 4 7 3 3 3 7 20 19 16 16 15 16 15 15 14 12 14 14 10 11 11 8 10 12 11 11 12 15 16 16 12 14 16 17 16 16 16 16 15 15 17 10 8
3 3 3 3 1 3 2 2 3 3 2 3 1 2 2 3 3 4 10 9 12 13 11 10 11 10 8 7 7 5 3 4 10 14 14 13 14 15 13 13 15 17 16 13 14 12 12 14 14 14 16 14 9 10
4 4 4 3 3 3 3 3 3 3 3 3 2 2 2 3 2 3 6 8 10 12 12 9 6 6 2 2 4 6 10 14 14 11 9 10 11 15 14 13 12 13 14 13 13 13 13 13 15 18 17 14 12 10

GFSWCAN_925_spd_033.txt.gz
Wind_Speed
42 44 48 49 49 49 47 46 45 45 44 44 44 43 43 40 36 37 25 21 11 2 6 4 4 5 14 13 13 6 4 1 3 5 4 4 3 6 4 5 7 7 7 4 3 3 7 6 5 8 6 2 7 5
36 38 40 41 40 40 40 41 41 41 39 40 41 41 38 35 35 43 12 18 14 1 4 13 21 26 17 10 9 5 6 6 5 4 0 3 3 2 5 3 2 2 7 6 8 6 4 3 4 3 5 8 6 7
31 33 34 34 35 35 35 35 36 37 37 36 35 34 33 34 32 44 13 18 9 2 6 3 6 16 19 28 27 5 3 3 3 3 4 2 4 4 4 5 4 3 4 4 4 2 4 2 3 4 3 5 5 4
30 31 31 31 32 32 33 33 34 34 34 34 33 32 33 28 34 32 15 15 13 1 3 4 13 11 9 17 28 18 7 6 5 3 3 3 3 3 4 4 5 5 8 7 1 1 3 4 3 6 10 10 12 10
25 27 27 26 26 27 27 27 30 30 33 33 33 30 27 31 36 24 11 16 9 3 2 5 14 7 10 10 24 17 9 6 3 3 2 2 3 4 1 2 1 5 7 6 6 11 5 5 7 8 10 9 9 14
22 23 23 20 29 24 21 25 29 30 32 32 31 28 34 33 29 19 3 13 23 4 2 3 5 5 8 5 9 9 5 3 3 4 3 1 1 3 4 3 3 3 2 4 5 9 5 12 8 5 11 9 10 12
23 24 22 23 24 22 21 22 23 29 33 33 34 33 29 27 25 5 5 7 30 15 2 3 4 4 3 2 3 3 3 3 1 3 2 2 2 3 3 4 4 5 6 11 16 16 8 3 6 10 13 15 18 18
18 20 22 22 22 21 21 23 28 29 31 32 35 32 28 27 21 10 3 17 34 7 2 3 4 4 3 1 3 1 2 3 3 2 2 2 1 2 1 1 6 9 12 10 5 6 12 16 14 13 18 18 15 12
22 22 22 22 22 23 25 28 31 29 30 31 29 28 22 9 5 4 19 29 10 7 3 3 3 3 4 2 2 3 1 2 2 2 2 2 1 3 1 5 9 12 5 13 13 16 17 17 15 14 14 12 15 10
25 24 24 23 22 25 26 28 28 28 29 29 23 5 3 8 19 14 5 1 3 3 2 1 1 1 3 0 2 3 2 2 1 1 2 3 2 3 3 2 7 11 16 17 18 10 14 14 13 12 12 10 10 10
26 24 24 24 22 23 26 25 25 27 29 6 3 2 14 21 7 3 1 2 2 2 0 2 3 2 3 3 3 3 4 3 3 2 5 3 2 2 3 6 8 9 10 5 10 11 9 16 15 14 12 14 16 16
28 28 27 25 24 26 26 24 31 20 15 9 17 15 5 3 4 1 4 2 3 4 1 1 1 1 2 2 3 3 3 2 2 2 3 3 0 4 5 8 8 9 11 12 17 17 16 17 18 17 16 16 16 17
26 27 28 28 27 24 24 24 30 11 14 2 5 4 3 1 3 1 1 1 2 2 2 2 3 1 3 4 4 3 4 0 1 3 1 1 3 6 8 10 11 11 14 14 15 20 23 21 20 22 18 18 19 18
27 26 25 24 26 27 29 27 31 1 5 4 5 5 3 3 3 2 2 1 1 2 2 2 3 3 2 4 2 4 1 1 2 2 2 0 5 7 6 7 12 11 12 13 12 18 19 20 18 18 20 22 21 18
30 28 27 25 26 28 33 34 21 9 5 4 3 4 4 1 1 2 2 1 3 2 2 2 3 3 3 4 3 3 3 3 2 0 2 2 7 7 8 9 11 11 10 11 15 16 17 18 18 17 18 20 21 21
34 31 18 26 20 23 20 17 9 3 4 4 6 3 3 2 4 3 3 2 5 3 2 2 3 3 4 2 4 4 2 3 2 2 2 4 7 7 8 9 9 12 13 14 16 16 15 15 17 18 20 20 20 20
22 8 17 24 24 18 20 7 4 5 4 5 3 3 2 1 3 3 4 3 4 2 3 3 5 5 3 3 4 4 3 4 4 2 3 5 6 8 8 8 12 15 14 14 14 14 15 18 23 19 15 14 17 16
13 13 6 7 13 19 16 13 4 5 7 4 3 5 5 5 3 4 5 7 3 2 2 4 3 6 5 4 3 4 4 4 3 4 4 5 7 9 12 11 14 14 15 15 16 16 17 16 13 12 14 15 17 15
22 16 15 18 12 9 4 7 6 5 5 1 3 2 4 4 8 8 8 7 6 6 4 3 6 4 3 3 3 6 6 4 3 5 7 12 12 10 11 12 14 15 16 16 16 15 16 16 14 14 14 13 12 10
25 28 25 15 9 5 5 3 6 4 3 2 3 9 5 5 5 7 11 9 8 4 7 5 4 3 3 4 5 5 6 6 3 6 7 9 16 18 16 14 15 18 20 20 20 19 19 18 16 15 13 10 8 6
14 20 17 16 9 14 4 2 4 3 3 3 0 2 3 5 11 9 8 7 9 4 4 4 4 5 10 12 15 12 14 14 8 6 5 6 15 18 19 20 21 20 18 16 15 16 18 14 12 11 10 8 5 7
10 12 6 14 7 5 5 10 3 1 3 2 3 3 3 3 3 4 4 8 5 5 4 3 6 6 8 12 16 20 16 19 20 20 21 18 8 11 15 17 19 18 18 16 15 14 13 11 9 8 7 6 3 3
7 9 9 12 7 6 2 6 5 4 4 2 3 4 3 3 2 2 4 4 4 7 7 10 14 16 15 17 20 24 22 19 17 17 17 18 20 20 21 22 20 17 15 16 14 14 12 9 8 7 5 4 1 1
11 7 6 5 6 2 3 5 3 3 4 3 3 3 3 2 2 4 4 3 3 10 10 12 10 5 10 14 12 16 16 15 17 20 17 16 16 17 19 19 21 20 15 11 12 11 10 10 8 8 8 6 5 5
7 9 6 7 4 6 6 5 6 5 3 3 4 3 2 3 3 3 3 2 4 4 5 10 12 10 5 5 11 15 18 17 14 14 17 14 14 13 15 18 19 19 17 15 13 11 10 9 10 11 10 7 8 8
8 6 4 4 3 4 2 3 4 4 3 4 3 2 3 4 5 4 2 0 2 2 4 4 3 3 7 12 8 10 13 12 18 20 18 21 20 17 13 11 9 12 14 15 12 11 11 11 11 13 12 10 9 11
6 5 3 2 2 3 4 3 2 5 5 4 3 4 3 5 3 2 2 4 3 8 13 14 14 12 8 8 11 13 16 15 18 18 17 19 18 16 15 13 11 9 11 11 11 11 11 10 12 12 9 11 13 14
3 4 4 5 4 3 4 4 4 4 3 3 3 6 3 3 2 2 3 9 15 16 18 19 19 20 21 20 13 13 14 13 13 12 11 12 13 17 12 9 8 8 9 9 10 12 12 10 11 13 13 14 14 12
4 3 4 7 5 5 5 3 2 2 5 2 3 2 2 3 6 7 9 12 12 14 15 13 12 13 15 17 18 18 15 8 6 5 5 3 9 12 15 13 15 16 13 13 13 13 11 10 11 13 13 12 12 9
3 2 4 4 5 4 3 2 2 2 8 5 5 4 4 4 12 13 16 16 18 17 15 13 12 11 12 10 13 14 13 12 14 13 2 2 9 12 12 14 15 13 13 17 17 15 14 14 15 15 14 13 13 12
1 3 4 4 3 2 4 10 15 11 6 4 8 4 3 3 7 16 15 13 13 12 12 13 12 11 11 11 9 6 8 7 8 10 9 10 11 12 12 12 12 13 15 14 13 14 12 12 13 13 15 16 15 9
4 3 4 3 1 2 0 1 2 3 2 3 1 2 3 3 2 2 6 7 10 10 7 5 5 5 4 4 6 7 7 9 11 12 11 10 8 11 13 13 12 13 14 14 13 13 13 13 12 14 17 16 13 13
3 3 4 3 3 3 3 3 3 3 3 2 1 2 2 3 3 3 4 6 8 8 9 8 6 4 4 3 6 9 10 9 9 8 7 7 9 11 14 16 16 15 15 14 13 12 11 11 13 14 14 14 13 12

GFSWCAN_925_spd_036.txt.gz
Wind_Speed
12 13 21 29 34 40 41 52 57 57 55 58 56 55 52 47 44 36 23 21 6 4 9 6 4 7 10 15 13 4 5 4 3 6 4 4 3 6 3 4 7 7 7 3 3 3 7 7 4 9 7 1 6 7
27 19 28 33 38 47 54 54 54 52 51 53 53 49 45 43 40 33 9 26 26 5 2 5 13 19 8 2 11 8 7 6 6 4 1 2 2 0 5 4 0 3 6 7 9 7 4 6 5 5 4 6 7 8
36 42 43 45 45 47 47 47 49 48 47 47 43 40 40 39 37 33 13 24 20 2 4 5 7 6 14 21 17 10 2 2 2 3 5 3 4 4 4 5 4 3 3 4 4 5 6 5 3 2 2 4 5 4
29 32 36 38 39 41 42 42 42 39 38 37 38 38 37 38 40 34 21 16 16 3 1 5 4 7 6 13 26 21 3 5 5 0 3 3 3 4 4 4 4 4 8 7 3 4 2 6 5 4 4 7 9 8
26 26 29 31 32 33 34 35 36 36 37 37 36 36 38 36 35 28 28 15 25 2 2 4 13 8 6 8 16 20 13 5 2 2 1 3 2 3 1 1 2 5 7 6 7 9 7 5 9 7 7 6 8 14
25 24 26 28 30 30 31 32 32 33 34 34 34 35 35 34 28 25 4 9 19 12 1 2 4 4 5 6 10 12 11 3 4 4 4 2 2 3 4 4 4 6 6 5 5 8 4 9 8 4 9 8 9 11
22 27 27 26 26 25 28 30 31 32 32 31 33 31 29 27 32 8 3 7 21 9 1 3 3 2 4 1 1 2 2 3 3 3 3 2 2 3 3 5 5 7 5 5 10 13 6 5 6 9 13 12 19 19
28 26 24 24 27 23 26 28 29 31 31 31 29 26 29 31 20 9 12 17 30 6 2 3 4 4 6 3 1 2 3 2 3 3 2 2 0 1 3 2 4 5 10 8 2 5 7 15 15 13 16 16 15 13
18 18 20 21 22 24 28 28 30 32 31 27 33 36 27 6 3 4 10 34 15 4 5 3 2 2 1 1 1 1 1 2 0 2 1 2 1 5 1 1 4 4 3 10 12 12 14 16 15 14 14 12 16 13
20 19 20 21 26 31 37 34 36 38 40 36 29 4 2 7 17 30 12 5 1 2 2 3 0 1 1 2 2 1 1 2 2 1 2 2 3 1 1 3 7 8 10 14 17 9 13 14 14 14 12 11 14 13
22 21 23 27 31 31 32 35 38 38 34 7 2 1 3 18 6 2 4 6 3 3 3 3 3 2 1 2 3 3 3 0 3 2 4 0 3 2 4 5 6 9 7 1 7 9 8 15 16 15 12 10 17 19
23 22 21 23 28 29 30 34 38 10 8 7 4 10 8 3 2 3 1 2 2 3 0 2 2 3 2 1 2 4 4 1 1 4 3 3 1 0 5 5 7 7 6 9 10 14 14 13 15 13 13 14 15 21
20 21 19 20 19 19 19 24 12 3 10 4 3 3 1 2 3 3 1 1 1 2 0 1 1 1 2 2 2 1 4 3 2 3 2 1 3 4 6 7 10 10 12 13 14 18 20 21 20 22 18 17 19 21
17 18 18 17 14 16 14 18 11 3 4 3 3 5 5 4 4 2 2 1 1 2 1 0 1 2 1 3 2 4 1 2 3 2 3 3 3 5 6 7 10 10 11 13 13 16 17 18 19 18 22 20 21 19
23 21 17 14 16 16 15 17 4 6 2 3 4 4 4 2 1 3 2 1 3 2 2 1 3 3 3 3 2 2 3 4 5 3 3 3 4 6 7 8 8 8 9 10 13 13 17 20 19 18 17 18 20 22
28 23 9 18 18 18 19 15 6 5 3 4 6 3 3 2 8 6 8 4 4 4 1 3 3 3 5 3 5 6 4 4 3 3 3 2 4 6 7 8 8 10 12 13 16 18 18 18 17 17 18 19 19 21
14 5 17 22 23 19 17 6 4 5 4 5 4 6 5 3 4 5 5 6 4 2 3 3 6 4 3 4 5 5 4 4 7 5 3 4 5 7 8 9 11 15 15 16 18 18 18 20 22 19 16 14 17 17
15 21 25 36 33 28 17 8 4 5 7 4 4 6 6 6 6 5 7 7 4 3 3 4 3 7 5 4 3 4 4 8 4 7 7 7 7 9 11 9 14 16 16 17 18 18 19 18 15 13 16 15 17 15
22 25 35 25 12 6 3 7 6 5 7 3 4 5 5 4 8 7 7 7 7 7 4 4 6 4 4 3 4 6 6 4 3 4 8 17 17 14 16 18 18 18 18 18 19 18 19 19 16 15 15 13 12 11
29 23 20 20 15 3 5 3 5 5 4 3 2 9 5 4 6 7 11 9 8 4 7 5 4 3 3 5 5 5 6 6 2 7 9 10 19 23 22 19 17 20 21 22 21 20 19 19 18 15 13 11 10 7
20 18 15 18 6 10 4 2 4 3 4 3 2 2 3 6 12 10 9 8 9 5 5 5 5 5 11 12 14 12 15 15 10 7 5 7 16 19 20 21 22 22 20 18 17 18 19 16 14 14 12 11 8 6
7 9 5 11 6 5 5 10 3 1 3 2 3 2 3 3 3 5 4 8 5 5 4 4 6 6 8 12 15 20 18 21 22 22 22 19 9 13 17 20 20 19 20 18 17 16 16 16 14 13 11 9 5 4
6 8 8 11 7 7 3 7 5 5 4 2 3 4 3 3 2 2 4 4 4 7 11 9 12 15 15 17 21 25 23 21 19 19 19 20 21 21 22 23 21 17 15 17 17 17 16 13 13 12 10 9 7 6
8 7 6 5 6 2 3 5 3 3 4 4 3 3 3 2 2 4 4 3 4 10 10 13 10 6 11 15 13 16 17 17 19 21 18 17 17 18 19 20 22 23 17 13 15 15 14 14 13 13 12 10 10 9
7 9 6 7 4 6 5 5 5 5 4 3 4 3 2 3 3 3 2 1 3 4 4 9 11 10 5 5 11 15 18 16 15 15 19 15 14 14 17 20 22 21 19 18 17 15 14 12 13 13 11 10 11 11
8 6 5 2 3 4 0 3 3 2 2 4 4 2 3 3 5 3 2 0 2 2 4 4 3 3 6 11 6 9 12 14 18 20 17 20 19 17 14 12 11 13 15 14 13 13 12 12 12 12 12 11 13 14
6 5 3 3 2 4 4 3 2 5 4 4 2 3 4 5 2 2 2 6 3 8 12 12 12 11 7 8 13 14 14 15 19 18 16 17 16 15 15 14 12 10 11 10 10 11 12 11 11 10 12 13 14 15
4 4 4 5 5 3 4 4 4 4 2 2 3 5 4 3 2 2 3 9 14 16 18 18 19 18 15 13 12 12 13 12 11 9 9 12 15 12 11 11 11 11 10 10 11 12 13 13 12 9 13 14 15 14
4 3 4 7 5 6 5 3 2 3 5 2 3 2 2 2 4 4 6 11 11 13 14 13 13 13 15 15 16 15 10 6 3 4 4 2 7 9 12 12 13 11 11 15 15 12 10 11 12 14 14 15 16 16
4 2 5 4 5 5 3 2 2 3 7 3 4 4 3 4 9 11 14 14 15 15 13 12 10 8 9 10 11 11 11 12 13 11 1 2 8 12 12 12 11 12 13 14 12 13 13 13 13 12 13 15 16 16
1 3 4 4 4 2 2 8 13 8 6 4 8 4 2 3 6 12 11 10 9 9 9 9 8 8 7 8 7 4 5 7 10 9 8 7 6 8 10 11 12 13 14 14 14 14 14 14 13 13 15 17 16 15
4 4 4 4 2 1 1 2 2 3 2 3 2 2 3 3 2 1 3 3 5 6 4 2 1 2 3 5 6 6 6 8 8 8 7 6 7 8 11 14 14 14 14 15 13 12 13 12 12 14 15 16 16 15
3 3 4 4 3 2 2 3 3 2 3 2 1 2 1 3 3 4 4 3 4 5 6 5 4 5 4 3 5 6 8 8 8 8 7 6 7 10 14 14 14 14 15 14 12 12 12 13 13 12 12 13 14 14

GFSWCAN_925_spd_039.txt.gz
Wind_Speed
15 16 13 28 25 28 33 37 41 45 41 53 61 58 59 59 55 31 14 26 14 3 3 2 3 1 8 16 11 4 4 4 2 5 3 3 4 6 4 2 5 7 8 4 3 2 6 8 6 10 6 2 5 10
16 8 18 28 30 31 34 38 42 42 52 59 55 54 56 59 51 33 10 15 18 1 2 9 6 10 8 12 13 10 7 6 6 4 3 2 3 2 5 5 1 4 6 7 9 7 2 10 4 8 4 4 5 11
37 14 17 25 27 31 35 36 41 51 53 54 54 53 51 51 44 31 17 15 8 1 7 4 7 15 6 16 22 6 2 4 5 3 4 3 4 4 4 6 3 3 3 4 3 6 7 7 3 3 5 5 5 7
36 37 36 26 24 28 35 43 49 51 50 52 51 49 46 39 35 29 16 17 17 3 3 5 9 9 11 13 23 16 3 3 4 2 3 3 3 4 3 2 4 3 7 6 3 4 2 9 11 6 6 6 9 9
31 36 39 40 43 43 45 43 42 45 45 46 47 44 41 39 31 26 19 14 23 4 3 5 4 10 15 18 17 18 11 3 2 2 1 3 3 3 0 2 3 5 7 5 7 9 7 8 14 10 11 11 13 14
26 31 33 37 39 40 41 42 43 44 43 42 41 38 36 34 31 19 3 15 18 18 2 3 5 2 2 11 14 13 9 6 3 3 3 2 0 3 5 5 5 8 6 2 4 5 3 5 5 8 9 13 11 14
22 25 28 31 33 35 36 37 38 38 38 37 35 34 33 34 30 4 4 13 22 16 2 3 4 3 2 4 4 3 5 3 3 3 3 3 2 1 1 5 5 5 7 4 7 10 3 4 5 6 10 12 18 18
20 22 24 27 28 30 33 33 33 33 34 33 31 31 32 33 25 11 4 20 29 6 2 2 3 3 4 3 2 1 4 2 1 3 2 3 2 1 4 5 3 4 6 3 2 7 4 12 12 13 13 15 16 15
22 22 21 25 29 31 34 36 35 35 35 35 33 32 22 10 3 5 3 28 23 2 5 2 3 3 1 1 1 1 1 3 1 3 3 4 3 6 3 3 4 6 4 7 7 6 11 10 15 15 16 14 16 15
16 17 20 25 27 29 29 31 31 32 32 32 33 6 3 6 6 15 3 3 4 3 3 3 3 2 1 1 1 2 3 4 4 2 5 4 4 1 4 5 4 5 8 11 7 4 8 11 13 13 11 10 11 14
18 19 22 24 26 29 32 33 33 33 30 6 3 2 6 22 7 2 2 5 4 2 4 3 5 2 0 2 2 1 1 1 4 4 5 3 2 2 5 6 5 5 6 2 4 8 6 10 9 14 13 14 16 18
22 23 23 26 28 32 32 36 40 17 7 5 9 12 10 1 2 3 4 3 4 5 2 4 4 2 1 3 3 2 2 2 5 5 3 3 3 4 3 7 7 5 5 8 9 15 16 13 12 16 13 13 18 23
21 21 20 22 25 33 40 31 11 7 4 4 4 3 1 2 3 4 6 3 3 1 1 1 2 2 2 2 2 2 1 2 1 3 3 3 4 5 5 5 9 9 5 13 13 17 20 17 19 20 17 21 24 23
21 21 20 19 19 22 21 16 13 9 6 2 2 5 3 2 2 1 2 1 0 1 2 0 2 2 2 3 1 2 0 1 1 3 3 3 4 4 5 6 8 9 11 13 14 13 14 16 17 21 22 23 24 21
16 15 13 11 12 12 11 7 22 10 3 2 4 4 3 3 4 3 2 1 2 2 0 2 2 3 3 3 3 3 4 5 6 4 4 6 3 6 7 7 8 9 8 9 11 13 15 19 20 21 21 22 23 21
12 9 5 9 13 10 6 1 11 7 3 3 7 5 5 4 8 6 6 5 5 5 2 3 4 4 6 3 5 6 3 5 4 6 7 4 8 8 6 8 9 10 11 13 16 18 19 19 19 20 20 19 18 20
16 3 17 16 12 12 10 6 7 5 5 5 5 10 7 3 4 5 5 7 4 2 3 3 6 6 3 4 5 5 4 5 8 8 6 7 8 8 9 11 12 16 17 18 20 21 22 22 23 21 17 15 17 17
9 31 29 25 21 20 7 6 4 5 7 5 4 6 5 5 7 6 7 9 4 3 3 5 3 8 5 4 3 4 4 7 4 7 9 10 12 14 16 13 19 20 21 21 21 21 21 20 18 16 17 17 17 15
31 31 29 25 13 5 3 4 5 5 6 3 3 4 2 3 9 8 8 8 7 7 4 4 7 4 4 3 4 6 6 5 4 6 9 20 22 20 22 24 25 24 24 22 21 19 21 21 16 13 12 11 11 9
32 17 14 16 10 4 4 3 5 5 4 1 2 8 6 6 7 9 12 11 9 4 7 6 5 4 3 5 5 5 5 5 3 7 9 11 20 23 24 21 19 21 22 23 24 22 21 22 22 20 17 13 10 8
15 9 11 7 5 10 4 3 4 3 4 3 0 2 3 6 13 12 10 9 9 5 5 6 5 5 10 12 13 12 15 15 9 7 6 8 17 21 21 22 23 23 21 19 18 19 21 17 15 15 15 13 10 8
11 13 4 3 5 5 4 9 3 1 3 2 3 3 3 3 3 5 3 8 5 6 4 5 7 6 8 12 16 18 18 20 21 21 22 19 9 13 16 19 20 19 19 18 17 15 15 14 14 14 13 11 9 9
9 4 6 9 6 6 2 7 5 5 4 3 3 4 4 3 3 3 4 5 4 8 11 10 13 15 15 15 20 23 21 21 19 18 18 19 20 19 20 21 19 16 15 16 13 13 14 13 14 14 13 12 12 11
6 6 5 4 5 2 3 5 3 3 4 4 3 3 4 3 2 4 4 3 4 10 10 12 10 6 11 15 13 16 15 16 18 19 16 15 16 17 18 18 19 18 15 12 15 15 15 15 14 14 14 13 14 13
7 8 6 6 4 6 6 5 5 5 4 4 4 4 3 2 3 3 2 1 3 4 5 9 11 11 5 6 11 15 16 14 15 15 16 11 11 11 13 14 15 16 15 15 16 15 14 13 14 13 13 13 14 14
8 6 5 2 4 5 2 4 4 2 3 4 4 2 3 3 4 3 2 1 2 3 4 3 3 5 7 9 7 9 9 10 12 17 12 12 13 12 9 9 8 10 15 13 13 13 12 12 11 11 12 13 14 15
6 4 3 3 3 4 4 3 2 5 5 4 2 3 3 4 2 2 2 5 2 5 7 8 8 9 9 10 11 14 16 15 16 15 13 14 15 15 14 10 8 8 11 12 12 12 12 12 12 11 11 14 14 15
4 4 5 5 5 3 4 3 4 3 2 2 3 5 4 4 2 1 3 7 13 12 15 15 13 12 12 12 11 11 11 10 8 8 9 11 12 13 11 10 9 8 10 13 14 12 11 12 13 13 14 15 16 16
4 3 4 6 5 5 5 3 2 2 4 2 3 2 2 2 3 2 5 10 11 11 13 13 13 13 14 15 15 14 12 10 4 4 4 2 7 10 14 12 12 12 13 13 11 11 11 11 12 12 12 14 16 16
3 1 5 4 5 4 2 1 1 2 5 3 3 3 3 3 7 8 10 10 10 10 8 7 5 4 6 7 7 9 10 12 12 9 2 2 6 9 11 11 12 13 14 14 14 13 11 11 11 11 12 15 15 16
2 3 4 4 4 0 2 5 5 5 4 4 6 4 2 2 4 8 9 8 8 8 7 8 7 6 5 6 6 4 5 8 9 7 6 5 4 7 8 12 14 14 14 14 14 13 13 12 12 13 14 14 14 14
3 4 4 4 2 0 0 2 2 3 2 3 2 2 2 3 1 1 2 2 3 4 3 2 2 3 4 4 4 5 5 6 6 7 6 5 5 7 10 14 14 13 14 14 12 11 11 11 12 12 12 13 14 14
3 3 4 4 3 2 2 3 3 2 3 2 2 1 1 3 4 5 5 3 3 4 4 3 3 5 3 2 3 5 6 7 7 7 7 6 7 11 14 14 13 13 14 13 11 10 10 10 10 10 11 12 13 14

GFSWCAN_925_spd_042.txt.gz
Wind_Speed
24 17 7 5 6 11 19 30 42 45 47 48 48 46 61 66 63 35 20 23 14 5 5 3 1 15 16 18 15 15 14 10 7 9 7 7 5 7 11 10 7 9 9 5 7 6 10 12 11 11 12 2 6 8
14 7 5 8 13 19 39 39 39 44 43 47 47 52 64 60 51 32 17 17 12 3 3 5 3 11 10 21 15 15 12 17 7 8 6 4 2 2 7 10 5 4 7 5 9 6 4 20 14 17 7 6 7 9
14 9 12 14 18 26 31 35 39 42 42 44 45 60 58 58 44 27 18 20 13 3 1 3 2 3 14 15 16 10 11 10 15 7 5 4 5 5 5 10 10 6 4 4 2 9 12 13 15 6 11 9 7 9
13 17 12 16 20 24 29 34 40 40 40 43 52 54 53 47 34 30 19 18 15 4 3 4 5 2 9 16 14 14 7 9 3 7 6 4 3 6 6 8 7 8 8 7 7 12 4 11 14 15 10 7 7 10
36 18 19 21 22 26 30 33 37 37 44 52 51 50 48 42 33 26 19 9 12 3 1 5 6 13 16 14 16 14 16 9 8 4 3 5 5 3 1 2 5 7 8 6 7 10 9 15 7 14 15 15 13 15
32 39 38 34 30 28 33 41 47 49 48 45 41 46 46 40 34 21 3 3 7 3 2 2 5 5 9 13 13 13 13 11 7 6 5 4 3 4 6 12 14 16 12 13 8 2 6 2 6 9 14 12 12 14
30 32 38 43 40 43 46 42 41 46 46 48 47 45 41 34 27 5 3 7 23 13 3 3 2 3 11 9 7 7 10 9 10 9 6 9 4 4 3 9 8 14 16 13 6 5 5 7 5 9 10 9 9 11
25 29 33 39 44 45 48 49 49 48 46 44 40 36 30 27 11 0 3 13 28 8 4 3 3 4 9 4 3 5 7 7 8 5 1 8 3 2 6 9 14 11 4 7 8 3 2 3 4 4 12 15 13 14
22 25 29 33 36 41 42 41 42 43 40 38 36 33 19 4 2 3 2 25 21 6 4 4 3 0 3 2 2 2 2 4 3 5 6 5 6 8 2 5 4 4 4 5 4 5 6 8 5 6 7 8 14 12
21 25 28 30 32 34 35 37 38 38 39 39 29 5 2 4 8 17 9 3 3 3 3 2 4 2 4 3 2 3 1 3 4 4 6 4 7 3 5 6 7 5 3 6 4 3 4 8 12 11 12 8 9 13
23 24 26 28 30 33 34 36 37 40 35 10 2 2 5 15 10 1 3 4 4 3 4 3 4 3 2 2 3 1 3 1 3 4 7 5 4 5 9 7 4 2 1 1 2 1 5 7 12 13 11 13 12 16
26 26 25 25 26 28 32 33 32 12 7 3 9 15 7 4 3 3 4 3 4 2 4 4 3 7 4 3 2 1 1 1 1 3 4 4 3 10 9 6 6 5 4 6 6 7 7 9 10 12 14 15 19 25
26 29 29 30 29 28 27 23 7 3 4 6 4 3 2 0 4 4 6 3 2 0 1 2 3 1 2 1 4 2 3 1 1 2 3 4 8 8 8 7 8 8 9 10 12 15 16 15 17 15 14 20 26 24
28 29 30 32 33 24 18 15 8 6 9 3 2 3 3 2 5 3 4 1 2 2 1 1 2 2 1 2 2 1 2 2 3 4 4 7 13 9 7 6 7 9 10 12 13 14 14 15 16 19 21 23 24 21
26 25 26 23 16 17 21 27 16 14 6 5 5 4 5 4 4 6 7 6 4 3 2 2 3 3 4 4 4 2 4 5 6 5 6 10 10 9 8 8 8 9 10 11 11 14 15 19 19 22 23 24 26 24
18 19 14 12 12 10 12 13 17 5 3 3 7 5 8 4 6 6 5 4 3 3 1 3 3 4 6 3 5 7 4 5 4 5 9 9 9 9 9 10 11 11 12 14 19 21 22 22 22 23 26 26 23 22
6 4 15 15 14 13 11 7 6 5 5 5 4 8 7 3 5 6 6 6 3 1 3 4 6 7 3 4 4 5 4 4 6 7 8 12 11 11 11 12 14 18 19 22 23 24 23 23 25 25 20 20 21 21
2 20 19 17 19 20 17 7 4 5 7 5 4 7 6 6 7 7 8 9 5 3 3 5 4 7 5 4 4 4 3 4 6 6 8 10 13 17 19 15 21 23 24 23 23 23 22 22 20 18 20 18 19 18
24 25 23 15 7 6 3 5 5 5 7 3 6 5 5 8 10 9 9 8 9 8 5 4 8 5 5 4 4 4 4 4 5 7 10 20 21 20 21 24 25 25 26 25 24 22 23 24 20 17 15 14 15 13
25 21 18 9 6 4 4 3 4 5 3 3 3 9 10 8 9 11 12 11 10 5 8 6 5 6 4 5 5 4 5 5 5 7 9 11 19 22 23 21 20 21 23 24 25 22 21 22 22 20 18 16 14 13
24 20 18 15 5 9 4 3 4 3 4 3 2 5 5 9 14 13 12 10 10 5 6 7 7 7 13 14 15 14 16 15 9 8 8 8 16 19 20 21 22 22 21 20 18 19 20 18 16 15 15 15 13 11
9 7 4 4 4 4 4 8 3 2 3 3 3 4 4 5 7 9 8 10 6 9 5 6 7 7 9 13 17 19 18 20 20 20 19 18 10 13 17 19 19 19 19 18 17 15 16 16 13 14 13 12 11 11
5 3 5 6 5 5 3 4 4 4 3 3 2 4 4 4 4 5 5 5 5 8 11 11 15 17 16 17 20 21 19 18 18 17 17 18 18 18 18 18 17 16 15 16 14 14 14 13 14 12 11 12 11 11
6 5 5 4 6 4 2 4 3 3 3 3 4 4 4 4 3 4 5 3 5 9 9 11 8 6 13 16 13 15 15 15 16 17 15 14 15 16 16 16 16 16 14 11 12 12 13 13 13 13 14 13 13 12
5 8 5 7 4 4 4 4 4 4 4 4 3 4 3 2 3 3 3 2 4 5 5 9 10 10 7 7 11 14 14 13 13 14 15 13 10 10 11 12 13 13 12 11 12 12 11 11 11 11 11 11 12 12
7 7 5 4 3 4 3 3 4 4 3 3 4 3 2 3 4 4 3 2 3 3 4 5 5 5 6 8 7 9 10 8 9 12 11 11 10 9 8 7 7 10 12 11 10 10 10 9 9 9 8 9 10 11
5 6 5 4 3 4 5 4 4 5 4 3 2 2 2 4 3 3 3 3 3 4 5 6 6 9 9 10 10 10 10 10 10 10 8 9 10 10 9 8 7 6 7 9 8 7 7 8 8 9 8 8 8 9
5 5 5 5 6 5 4 4 4 4 3 3 2 4 3 2 3 2 3 7 9 8 9 9 9 9 9 9 8 6 5 5 5 6 5 6 8 9 7 6 5 6 5 6 5 6 7 7 7 7 8 8 9 9
5 2 3 6 5 6 7 5 3 3 3 2 3 3 3 3 2 4 8 8 7 7 8 9 9 9 10 9 9 8 8 5 1 2 3 3 2 5 7 6 6 6 7 7 7 6 6 6 6 6 6 7 8 8
4 3 4 5 5 6 5 4 3 3 6 5 4 4 3 3 4 4 6 5 4 5 5 6 5 4 4 4 5 5 7 8 7 5 3 3 3 4 5 7 8 8 8 8 8 7 7 6 5 5 6 7 7 8
2 3 5 6 5 4 5 6 6 7 4 5 6 5 5 3 4 5 5 5 6 6 6 6 5 4 4 4 3 3 3 5 6 6 5 3 2 4 5 8 9 9 8 8 8 7 7 6 6 6 7 7 8 8
4 5 4 4 3 4 1 2 3 3 2 3 3 2 2 2 3 4 2 3 3 3 2 2 3 2 3 3 3 4 3 4 4 5 6 5 4 5 7 9 11 10 8 9 8 6 7 7 6 7 8 8 9 9
3 4 5 4 4 4 3 2 2 3 2 2 2 1 1 0 2 3 5 5 2 3 3 3 3 4 4 2 1 2 4 5 5 5 5 6 7 10 12 10 10 10 10 9 7 7 7 7 7 8 8 9 10 10

GFSWCAN_925_spd_045.txt.gz
Wind_Speed
39 23 16 19 17 14 10 20 37 45 50 53 55 54 52 51 49 43 28 38 19 9 5 10 14 12 18 18 16 14 16 12 12 11 9 9 7 11 12 16 15 9 8 6 9 13 16 4 9 12 15 17 7 9
20 13 12 13 17 11 6 11 14 26 56 56 56 53 50 48 56 36 21 31 22 3 2 4 3 0 7 16 17 14 19 19 11 10 7 7 5 4 11 9 12 14 11 7 9 6 9 14 13 17 16 13 10 11
13 11 11 9 15 13 17 21 25 39 49 52 53 50 49 46 54 29 23 28 19 4 4 6 5 7 2 4 7 7 11 19 18 13 6 6 5 6 7 12 13 16 4 7 13 11 12 9 15 15 9 15 13 10
13 12 10 9 12 19 23 31 34 39 43 45 48 46 45 58 47 22 28 25 19 4 2 4 6 7 6 9 11 12 18 25 14 10 6 5 6 8 7 9 12 12 11 13 17 18 18 15 11 12 14 11 11 9
13 14 13 14 18 22 28 31 36 39 42 41 43 45 52 50 34 22 20 18 17 3 4 5 6 8 9 10 15 18 17 12 8 10 5 7 8 6 4 6 10 13 12 10 8 11 8 11 10 5 13 14 13 13
19 15 15 19 22 25 27 32 32 33 38 39 47 54 51 41 42 27 4 4 18 11 2 1 3 10 20 14 15 16 12 11 9 9 9 9 12 10 6 12 16 19 13 12 12 12 8 11 6 8 12 11 10 13
28 24 20 21 21 27 27 30 31 37 45 52 53 50 42 35 24 6 4 12 17 10 2 2 2 6 14 12 8 8 12 10 7 7 6 9 10 4 8 11 11 16 20 16 15 12 10 10 5 4 8 8 7 10
32 35 37 38 42 42 43 47 48 47 51 52 48 40 33 30 19 8 8 23 20 6 0 2 3 2 8 6 6 10 9 10 9 6 5 9 8 5 7 14 19 19 18 12 9 6 12 7 4 3 4 6 6 9
31 36 42 44 46 49 52 53 53 53 49 45 41 35 21 7 3 3 7 19 9 3 4 4 3 3 5 2 5 5 4 7 4 9 9 6 7 6 4 9 14 7 7 10 7 7 8 8 6 2 5 9 11 11
25 32 30 36 45 45 45 40 40 42 44 42 24 5 4 6 20 24 6 3 2 3 4 4 3 1 2 4 3 5 3 4 5 4 7 6 9 7 16 12 9 9 9 9 8 8 7 8 6 5 6 5 6 9
26 26 32 34 36 39 39 40 42 42 24 3 3 3 21 19 9 3 4 4 5 3 4 3 6 4 5 2 1 2 3 1 5 5 7 7 4 8 15 14 12 11 9 8 8 7 7 7 4 4 4 5 8 11
27 28 29 28 29 30 32 32 28 6 5 3 9 13 9 5 2 3 4 3 3 3 3 4 3 2 1 2 2 3 3 3 4 0 4 3 6 14 12 12 12 12 12 9 10 7 7 9 8 10 10 12 15 20
25 26 27 29 29 31 25 9 11 2 3 7 3 3 0 2 2 1 4 3 3 3 2 1 2 2 3 4 1 1 1 2 0 3 3 5 11 11 9 8 10 11 12 13 14 16 18 17 20 19 13 21 24 24
27 27 28 24 20 15 5 5 2 2 5 4 3 4 4 4 6 5 5 4 3 3 4 2 3 1 2 2 2 2 2 2 3 3 5 8 15 11 9 8 9 11 12 12 12 12 14 15 16 21 22 23 24 23
30 30 27 23 20 20 10 5 7 10 7 6 6 5 5 4 6 6 6 3 4 4 2 0 2 3 4 3 4 1 3 5 7 4 6 10 11 10 11 10 11 11 11 12 13 13 15 21 21 23 26 27 28 28
27 15 11 13 13 15 15 18 16 7 4 4 7 5 8 3 7 8 7 5 4 3 1 1 3 3 5 4 5 7 3 5 4 4 7 10 11 11 12 13 14 14 15 17 21 22 23 24 24 25 29 28 27 26
8 4 9 12 17 18 16 9 9 6 5 4 4 6 6 4 6 7 7 7 6 3 3 3 5 7 3 4 4 5 4 4 5 6 7 11 13 13 13 14 17 20 20 22 23 25 24 24 24 25 20 23 25 25
6 15 15 12 6 11 17 9 5 5 6 5 3 6 6 6 8 6 6 7 4 3 3 4 4 6 5 4 4 3 4 6 6 7 8 10 12 18 20 16 22 23 24 25 25 24 23 22 20 18 20 19 20 19
16 14 8 5 7 6 4 5 4 5 5 2 7 6 3 4 8 8 6 5 8 6 4 4 7 5 5 4 5 5 6 6 6 7 9 18 20 19 20 22 23 24 25 24 24 21 23 25 22 20 19 18 18 16
17 13 7 8 8 4 4 3 3 4 3 3 2 8 10 9 9 10 11 9 8 5 7 6 5 7 6 7 6 5 6 5 6 8 9 10 17 20 22 20 19 20 21 23 24 21 20 22 22 21 20 19 17 16
21 14 10 8 6 11 4 2 4 3 4 3 2 6 7 8 13 13 13 11 11 5 6 7 8 9 15 15 15 15 15 15 9 8 8 8 15 18 19 20 20 21 20 19 18 19 20 19 17 16 17 17 15 14
8 9 4 5 4 4 4 8 3 2 3 3 4 4 5 7 9 9 10 10 7 10 7 8 8 8 10 13 16 19 18 19 18 18 17 16 9 12 15 17 17 17 18 17 17 16 16 16 14 14 14 13 12 13
7 3 4 4 4 4 3 4 4 4 3 3 3 4 4 4 4 4 5 5 5 9 12 13 15 17 17 18 18 19 17 17 16 16 16 16 16 16 17 17 17 15 14 15 14 13 13 12 13 13 12 12 11 10
6 5 4 4 5 4 2 3 3 3 3 3 3 4 4 4 3 4 5 4 4 8 7 8 8 8 12 14 11 14 14 14 15 15 13 12 13 14 14 15 15 14 12 11 11 11 11 10 10 10 11 11 10 10
4 7 4 7 3 4 4 3 3 3 4 4 3 4 3 2 3 3 3 3 4 4 4 7 9 9 7 7 11 13 12 11 11 12 12 11 9 8 9 10 12 12 11 9 10 10 10 9 10 9 10 11 11 11
7 8 5 4 3 3 3 3 3 4 3 3 4 3 2 3 3 4 3 4 4 4 5 5 4 5 7 10 8 10 10 8 9 12 12 12 11 9 8 7 7 10 12 10 10 10 10 10 10 11 11 11 11 11
5 6 4 3 3 5 5 5 5 5 4 3 3 2 2 3 3 3 4 5 4 7 7 8 8 9 9 10 10 10 11 12 12 10 8 10 11 11 10 9 8 7 8 9 9 9 9 9 9 9 9 8 8 9
5 5 5 4 6 6 4 4 4 4 3 3 1 4 3 3 3 3 3 8 9 9 9 10 9 9 9 9 7 6 6 5 5 5 5 7 9 9 8 7 7 7 6 7 7 6 7 7 7 8 7 7 8 7
5 3 4 7 6 6 7 5 4 4 4 2 2 3 3 3 3 9 10 9 8 8 8 8 8 8 8 8 7 7 6 6 4 2 2 2 2 5 6 5 6 6 6 6 6 6 6 6 6 5 6 7 7 7
4 2 4 6 6 6 5 5 6 5 6 6 5 6 8 8 5 5 7 6 5 6 6 6 5 4 4 2 3 4 6 6 6 4 3 3 3 2 3 5 6 6 6 6 6 6 6 6 5 5 6 6 6 7
2 3 5 6 5 6 7 9 11 10 6 7 9 7 7 4 5 5 5 5 6 6 6 6 4 3 3 1 1 0 1 3 4 4 3 2 1 3 4 5 6 6 6 6 7 6 7 7 6 7 7 7 8 8
4 5 4 5 4 4 2 2 3 3 3 4 3 3 3 3 3 4 4 4 3 4 2 2 3 3 2 3 3 3 3 2 1 2 2 2 3 4 5 7 7 7 7 7 8 7 7 8 8 8 9 9 9 10
8 8 8 5 3 3 2 2 3 3 3 2 3 2 3 2 2 3 3 3 1 3 4 3 3 4 4 3 2 1 1 1 2 2 3 3 6 8 7 6 7 7 8 8 8 8 9 9 9 10 10 11 11 12

GFSWCAN_925_spd_048.txt.gz
Wind_Speed
37 39 31 25 24 28 32 32 33 40 45 50 50 54 54 49 47 43 20 38 22 5 7 5 6 7 14 15 14 12 13 11 8 8 8 6 7 11 13 10 10 7 7 6 6 6 13 1 7 18 9 10 7 10
33 21 18 19 18 22 19 25 26 30 45 48 49 50 50 48 47 43 13 24 32 8 3 3 3 11 14 18 11 11 17 11 8 7 7 6 4 6 11 10 13 7 9 4 7 3 13 10 11 6 7 6 7 6
18 16 14 12 14 14 8 9 14 24 41 43 47 47 47 46 47 35 24 27 8 4 2 1 4 10 14 11 7 8 11 14 12 6 5 3 4 4 2 8 9 6 17 9 5 14 17 10 6 5 8 8 10 9
14 12 9 10 10 13 7 5 8 33 44 44 47 46 45 47 47 33 24 29 8 3 4 1 5 12 12 5 2 2 6 7 7 9 10 4 5 7 7 7 8 7 7 13 11 14 17 17 10 17 6 5 7 6
9 13 11 13 13 14 19 24 28 46 48 46 44 46 45 47 41 26 28 34 17 2 3 2 15 11 5 5 8 8 3 4 6 2 3 5 3 7 4 6 7 10 13 9 4 7 7 5 5 14 6 6 12 5
12 13 12 13 15 19 24 29 37 45 46 46 49 48 49 44 34 21 3 10 15 4 4 5 6 10 12 8 5 9 10 3 6 5 5 4 14 7 3 6 9 13 13 11 8 2 1 3 7 7 6 9 11 8
15 14 14 16 20 23 29 33 38 42 44 45 49 49 43 40 28 4 3 15 19 6 2 2 2 6 18 9 3 4 11 2 3 2 4 10 7 5 4 7 10 12 14 16 13 7 9 10 3 7 6 10 12 5
26 17 18 20 24 23 30 34 36 42 47 47 48 44 34 28 17 12 12 29 18 4 3 2 0 2 4 5 3 5 6 5 6 4 5 7 5 2 8 10 14 16 16 11 10 9 7 7 5 7 6 6 6 7
31 32 38 37 43 44 41 43 51 48 53 52 45 33 26 11 4 3 14 13 5 2 1 3 2 3 6 1 3 3 5 4 4 4 2 3 3 2 8 14 17 14 10 12 11 7 7 8 6 5 5 5 5 5
35 38 40 41 44 41 44 49 49 44 37 30 22 6 3 5 30 19 6 2 1 3 3 2 3 2 0 3 2 1 1 1 3 5 4 2 3 7 15 14 13 16 16 12 10 10 10 9 7 3 5 4 4 7
31 33 36 38 40 44 45 42 39 34 19 2 2 4 17 14 4 2 3 2 2 2 4 3 4 5 2 1 1 3 3 2 4 5 7 5 4 9 13 11 12 13 14 15 13 11 11 9 7 6 9 13 13 16
27 30 32 33 35 37 31 24 13 8 5 6 14 12 6 2 3 3 3 3 4 3 3 4 3 3 3 4 2 3 3 2 4 2 4 3 6 12 12 12 12 12 12 13 14 14 16 17 14 15 13 13 15 21
25 26 28 30 25 18 11 10 12 10 8 7 4 3 1 3 3 1 5 3 2 5 4 1 3 2 2 3 3 4 8 3 2 3 4 4 11 11 11 9 11 12 12 14 15 18 20 19 24 21 14 19 22 24
25 24 23 19 11 12 9 14 12 9 7 3 4 5 5 5 5 5 5 4 3 3 6 3 3 1 2 5 3 3 3 2 3 4 5 8 11 10 9 9 10 12 13 14 15 15 16 18 20 25 25 24 26 25
30 25 20 15 13 9 3 3 11 9 7 6 6 6 6 4 5 5 5 4 4 4 3 1 1 1 3 3 5 2 4 6 7 4 4 8 11 10 11 11 11 12 13 14 15 15 18 23 23 25 27 28 29 29
17 14 11 10 9 6 9 11 13 8 4 4 7 4 8 5 7 7 6 5 5 6 2 1 3 3 7 4 6 8 4 6 4 4 6 7 11 12 11 12 13 15 16 17 21 23 25 24 24 26 30 29 28 28
6 4 12 20 22 24 11 6 7 7 6 5 4 7 6 3 5 6 5 6 5 4 3 4 6 7 3 4 4 5 4 5 6 6 7 10 12 11 12 13 18 20 20 22 24 25 26 26 27 26 20 23 26 26
9 14 5 7 8 9 14 9 5 5 6 4 3 6 5 5 7 6 5 7 3 3 3 4 4 7 5 4 3 3 5 7 6 7 8 9 11 17 18 16 21 23 24 25 26 26 25 23 20 17 18 18 20 20
13 7 8 11 7 5 4 5 5 5 3 3 4 5 4 5 9 8 5 7 9 7 4 4 6 4 4 4 6 7 7 6 6 7 8 17 18 16 17 20 22 23 23 23 22 21 23 25 23 21 20 19 19 19
10 6 8 11 7 3 4 2 4 5 3 3 4 9 9 8 8 11 12 8 7 4 6 6 5 6 5 6 6 5 7 7 7 8 8 8 16 19 20 18 17 18 19 22 23 20 19 20 22 21 21 20 17 17
8 8 10 7 6 10 4 3 4 4 4 3 4 6 6 9 13 14 11 11 11 5 6 7 8 8 14 14 15 15 15 14 9 8 8 8 14 16 17 17 19 19 18 17 16 17 19 17 17 16 16 16 18 17
4 6 4 6 4 4 5 9 4 3 3 4 6 5 4 7 8 8 9 9 7 9 8 9 9 9 10 12 16 18 18 19 18 17 16 15 8 11 13 15 15 14 15 15 15 14 15 15 14 15 15 14 13 15
5 4 5 6 4 5 3 5 4 4 3 3 3 4 4 4 4 5 4 6 5 9 13 13 15 17 17 18 19 20 18 18 15 16 15 15 16 15 16 16 16 13 12 14 14 13 13 13 14 14 14 14 13 12
6 5 5 4 5 4 2 4 3 3 3 4 3 4 4 3 4 4 5 4 5 9 7 8 10 9 14 15 10 15 15 14 15 14 13 12 12 13 14 15 15 15 14 12 13 13 13 14 14 13 14 14 14 13
4 7 4 7 3 4 4 3 3 4 4 5 3 4 3 3 3 4 3 3 5 5 5 10 10 10 7 7 12 14 14 13 12 12 14 13 10 9 10 12 14 15 13 12 12 11 11 11 11 11 11 12 11 10
6 8 6 4 3 3 3 3 3 4 3 4 5 3 2 3 4 4 3 5 6 5 6 6 6 6 7 11 8 10 11 8 10 12 12 12 11 9 7 7 7 11 11 9 9 9 8 8 8 9 9 8 9 9
5 5 4 3 3 4 5 5 6 5 5 4 3 2 2 3 4 3 4 8 6 7 8 11 10 11 10 10 10 10 10 12 11 10 9 10 11 11 10 9 8 5 7 7 7 8 8 8 8 8 8 8 8 8
5 5 6 5 6 7 5 4 4 4 3 4 2 4 3 4 3 3 3 9 10 9 9 11 12 12 12 10 8 7 6 4 6 5 7 9 10 10 9 7 8 7 6 6 6 6 7 8 8 8 8 7 8 8
4 4 4 7 6 7 8 5 4 3 4 3 2 3 3 3 5 11 11 10 9 8 9 9 9 8 8 8 9 9 8 8 6 3 3 3 3 8 7 6 6 7 7 7 6 7 7 7 7 6 6 7 8 8
3 3 5 7 5 5 5 5 6 4 7 8 7 9 9 8 11 9 7 6 7 9 8 7 5 4 4 4 6 6 7 7 8 7 5 5 6 4 5 6 7 7 7 7 8 8 7 8 8 6 6 7 8 8
3 4 5 5 5 6 6 9 12 12 9 9 8 8 7 4 4 8 8 7 7 7 7 6 5 4 3 3 4 2 4 5 6 5 4 3 3 4 5 6 7 8 8 8 8 9 9 9 9 10 10 9 10 10
4 4 5 5 4 4 5 3 3 5 4 7 6 4 4 4 3 4 3 3 3 5 5 4 4 5 4 4 4 4 4 3 3 3 3 3 4 5 6 7 7 7 8 9 9 9 9 9 10 11 13 12 12 12
9 8 9 6 5 5 2 3 3 3 3 3 3 3 4 4 3 3 2 1 5 6 5 5 5 4 5 4 3 2 3 2 5 4 3 4 6 8 8 5 7 7 8 8 9 10 10 11 11 12 13 14 15 15

GFSWCAN_925_spd_054.txt.gz
Wind_Speed
30 31 35 38 40 36 35 36 38 40 41 41 44 43 43 42 41 35 11 35 16 2 2 6 10 7 10 14 8 4 3 3 2 7 4 4 4 6 3 5 7 5 3 3 5 5 7 2 5 4 2 6 6 6
33 36 32 29 28 29 30 30 31 31 34 37 39 46 45 44 43 39 6 31 18 3 2 6 6 16 28 26 13 5 6 6 6 3 4 2 2 1 6 6 3 5 7 5 6 5 9 4 4 4 4 3 3 4
34 28 19 22 21 22 24 26 28 28 32 34 36 39 49 45 44 42 17 25 12 3 1 2 9 14 15 19 20 6 2 4 3 4 4 3 3 4 3 5 7 5 7 4 6 14 17 12 5 7 5 5 4 2
18 15 16 17 20 22 22 24 27 29 30 38 39 39 42 54 44 43 23 25 15 4 1 4 14 17 19 15 12 6 4 2 4 3 2 3 3 3 3 3 4 5 8 11 7 6 5 8 7 6 7 10 4 5
14 12 16 19 17 21 26 30 26 21 21 30 39 38 39 43 50 35 25 32 17 4 4 2 1 9 14 15 14 10 5 3 3 1 1 3 2 2 2 3 2 5 5 4 6 9 6 7 9 12 7 5 6 3
10 10 17 17 16 20 18 18 17 20 23 32 37 35 40 48 47 30 4 22 30 9 1 3 4 3 8 14 8 5 4 3 3 4 3 2 2 3 2 5 0 9 11 13 5 10 5 5 5 5 3 4 7 8
12 12 16 18 22 24 27 27 23 21 39 36 38 37 45 48 36 8 5 11 35 16 1 3 3 3 10 6 2 2 2 2 3 3 4 4 3 4 3 4 12 12 15 12 15 12 6 11 6 9 7 6 9 10
17 18 20 20 25 25 28 30 35 42 41 39 43 42 48 38 28 2 4 28 33 6 4 3 1 3 3 3 2 2 2 1 1 3 1 3 2 3 1 10 13 12 13 7 13 11 7 6 10 12 10 8 12 11
21 24 28 35 33 36 33 39 40 43 46 46 46 46 26 9 2 2 25 35 28 7 0 2 3 2 2 1 2 1 2 2 0 2 2 3 3 5 7 11 10 12 10 11 8 9 13 13 12 12 11 12 11 10
27 30 32 35 38 38 40 43 46 48 45 34 10 3 4 9 35 21 7 3 4 2 1 2 1 2 3 0 2 2 2 2 3 4 3 3 3 4 8 9 9 11 11 11 8 9 11 12 11 12 12 10 11 11
35 34 32 31 30 27 24 21 13 12 6 5 3 3 6 11 5 2 3 3 1 3 2 1 3 3 3 3 2 2 2 3 4 3 4 3 2 5 8 10 10 9 8 10 9 9 9 9 8 8 11 11 11 14
33 30 27 26 22 16 12 9 9 9 7 10 14 9 3 3 3 5 3 2 4 2 3 2 1 3 1 2 3 2 2 1 3 2 4 3 3 7 9 10 11 11 11 13 13 13 13 12 12 13 11 12 17 19
22 16 12 7 12 15 13 7 18 22 10 4 5 4 3 4 9 5 3 3 3 4 4 3 3 2 2 3 2 1 2 1 3 4 3 3 6 7 7 7 10 10 13 13 16 20 21 20 23 21 15 20 22 24
14 18 20 19 19 17 13 12 10 3 8 4 4 7 4 4 4 3 1 2 2 2 4 2 2 2 1 3 1 3 3 4 4 4 3 3 6 7 7 8 10 13 14 14 13 16 18 20 21 24 23 22 25 24
19 25 26 21 13 17 14 13 12 11 7 5 5 5 5 3 2 2 2 2 2 3 2 1 3 3 4 3 4 3 4 4 4 2 2 3 7 8 10 10 10 12 12 12 16 15 18 22 23 24 25 26 27 25
7 10 25 21 15 8 8 17 21 7 4 4 6 4 3 3 4 4 4 2 3 4 1 1 3 3 4 3 5 5 3 3 2 2 3 5 10 10 11 10 10 13 15 17 20 21 22 22 22 23 26 26 26 26
13 8 14 12 22 16 8 7 7 6 4 5 3 3 2 1 3 3 3 4 3 2 2 3 5 5 3 3 3 4 3 4 5 5 6 8 8 9 9 12 16 18 20 22 23 23 22 21 22 24 20 23 26 27
6 9 10 11 7 5 12 8 4 5 6 3 3 5 3 2 3 3 5 6 3 2 2 4 3 6 4 3 3 3 5 7 7 7 7 9 13 17 17 16 19 21 21 22 23 23 23 21 19 16 18 19 21 22
6 7 10 9 8 5 4 5 6 5 5 2 3 4 3 3 7 6 6 6 8 7 4 3 5 3 3 4 8 6 6 6 8 7 9 17 16 16 17 19 20 21 21 20 20 18 19 20 17 17 17 17 18 17
7 8 7 7 3 4 5 3 6 5 3 4 3 8 6 4 6 8 9 7 7 4 6 5 4 3 3 7 7 7 6 6 7 8 7 7 14 17 16 14 14 15 16 18 19 17 16 19 20 21 21 19 18 17
3 8 8 9 5 11 4 3 4 4 4 4 5 5 6 9 12 12 10 7 7 4 4 5 6 7 14 14 15 16 12 11 6 5 6 7 11 13 14 15 15 15 15 14 13 14 16 14 14 20 22 23 22 21
6 6 4 6 5 5 4 8 4 4 3 4 2 3 3 3 4 6 7 7 5 5 3 4 5 7 9 10 14 17 18 20 19 18 16 14 5 9 11 13 13 12 14 14 17 17 17 17 18 18 19 19 18 17
4 4 5 7 6 5 1 2 4 2 4 2 3 3 3 3 2 2 4 4 4 6 10 11 15 17 16 18 19 18 16 16 13 13 14 15 17 18 18 17 15 14 11 13 17 16 16 15 15 16 17 17 17 16
5 5 4 3 5 2 2 4 3 3 4 3 3 3 3 2 2 4 4 3 4 6 6 9 11 8 12 14 8 12 13 18 16 15 14 14 12 12 16 16 18 15 14 14 14 15 14 13 13 13 14 16 16 16
6 8 5 6 4 5 5 4 4 4 4 4 4 3 2 3 3 3 2 1 2 3 3 11 11 10 5 3 8 12 11 16 13 11 12 13 15 14 14 16 17 16 11 13 13 13 13 11 11 12 12 10 10 11
7 5 4 2 3 4 1 3 3 3 3 3 2 1 3 3 4 3 2 2 1 2 2 4 6 4 4 7 4 7 10 10 14 14 11 10 8 12 10 8 7 9 10 8 9 11 10 10 9 8 7 7 6 5
5 5 3 4 1 3 4 4 3 5 4 3 1 3 4 4 2 1 1 3 2 7 15 14 15 12 10 12 13 12 9 9 13 15 13 14 13 10 7 9 9 6 7 5 4 4 5 5 6 4 3 3 4 4
4 4 5 5 5 5 4 4 4 3 2 3 3 5 4 4 2 1 2 14 18 18 18 17 17 16 16 13 10 11 13 12 14 15 15 13 11 10 9 9 7 4 4 2 5 7 7 3 2 4 5 3 2 4
4 2 4 6 5 5 5 3 2 2 3 1 4 2 2 2 1 6 15 17 14 17 19 18 16 15 14 12 9 7 5 16 13 3 2 1 2 5 4 3 3 3 1 1 3 4 3 4 5 5 6 7 7 7
3 2 4 4 5 5 4 3 2 3 3 4 4 7 5 5 10 14 16 15 13 13 12 12 13 9 11 9 11 10 9 7 3 6 5 4 4 5 2 2 2 4 3 3 3 5 3 4 5 5 5 5 5 5
3 3 5 4 4 1 2 6 16 13 5 4 4 4 3 2 8 14 13 13 13 13 13 13 11 9 11 10 7 7 4 5 5 5 5 5 5 4 2 3 4 4 3 4 6 5 5 5 6 7 8 8 8 10
3 4 4 5 3 1 1 2 2 3 3 3 3 2 3 3 2 2 5 2 4 8 8 8 9 6 4 3 4 3 3 5 3 1 1 2 3 4 5 6 4 4 6 7 7 5 5 5 6 7 7 7 8 10
6 8 4 4 3 2 3 3 3 3 4 2 2 1 1 3 3 2 2 4 4 10 10 9 5 4 4 4 4 5 4 3 3 3 2 2 2 4 5 3 3 3 3 4 3 4 6 9 10 11 11 11 12 13

GFSWCAN_925_spd_060.txt.gz
Wind_Speed
35 34 32 33 35 35 34 33 33 32 31 30 29 27 28 35 40 39 24 33 20 2 5 16 11 8 7 10 6 4 2 1 2 4 3 4 2 4 2 4 4 5 5 3 3 1 9 5 1 3 4 4 3 10
35 34 37 36 36 33 29 32 37 36 34 35 32 30 30 28 26 39 4 30 34 7 0 7 13 18 26 21 10 9 6 5 5 3 2 2 1 1 4 2 1 2 6 5 7 7 4 3 5 6 3 5 4 7
36 36 37 28 24 24 23 23 24 36 35 32 37 35 32 33 31 29 12 19 10 4 2 4 6 21 20 29 25 5 3 4 4 3 4 3 2 4 3 5 4 3 4 3 1 3 5 5 6 6 6 10 9 9
36 31 24 22 20 23 26 25 26 29 30 29 31 35 36 34 36 34 15 22 9 2 2 3 5 9 20 20 21 8 1 3 4 2 2 3 3 3 3 4 5 5 4 4 5 4 7 2 5 11 17 14 16 18
21 20 19 20 21 22 21 24 28 28 29 30 31 34 37 37 35 33 21 27 22 1 2 2 4 9 22 21 15 7 4 3 2 1 2 2 2 2 1 1 2 2 1 2 4 1 3 5 6 9 12 16 15 14
18 18 19 19 20 20 22 22 24 31 32 29 31 34 34 38 37 26 3 22 27 9 2 3 1 3 14 18 12 7 6 3 3 4 3 3 3 3 2 2 3 2 5 6 5 9 9 12 2 10 9 14 13 13
17 16 16 19 15 8 5 13 30 32 34 30 31 30 31 33 39 8 4 14 36 18 2 2 2 3 8 4 2 2 2 2 2 3 3 3 3 4 2 2 5 7 9 10 7 10 3 8 5 10 11 11 9 9
23 26 26 22 21 20 18 21 33 35 32 31 32 29 34 40 22 3 3 28 40 5 2 2 3 3 10 3 3 2 2 2 1 3 1 4 1 2 2 3 5 7 11 9 9 9 9 6 8 9 8 4 8 12
31 33 32 32 29 33 30 22 27 27 28 33 40 42 33 8 3 8 32 29 11 3 3 2 3 4 3 2 2 2 2 2 2 1 1 3 2 1 5 6 8 9 9 12 14 13 6 5 7 8 9 10 9 12
19 27 30 33 37 41 36 44 42 43 51 47 26 5 3 6 45 31 6 3 2 1 1 2 2 3 2 2 2 3 2 3 3 3 3 3 2 6 7 6 7 9 11 10 10 6 10 7 7 9 11 10 8 11
15 20 25 21 20 29 36 40 36 30 20 6 2 3 28 20 5 2 3 3 3 2 2 1 2 3 2 3 3 1 3 3 4 1 3 2 2 2 5 7 8 8 8 8 6 7 8 7 7 7 9 11 11 14
15 15 19 23 24 21 29 22 15 14 10 12 16 13 8 6 3 4 2 2 1 0 1 2 2 3 3 3 3 1 3 1 2 2 3 2 2 6 6 7 9 8 8 9 11 10 10 10 11 9 9 10 16 19
17 19 18 15 16 25 23 21 23 26 17 7 6 4 3 4 8 4 2 2 2 4 4 2 3 2 2 3 3 2 2 3 2 3 2 2 5 6 6 6 8 10 12 12 12 15 16 18 19 17 15 18 21 21
16 17 21 19 18 20 15 11 12 8 8 4 4 7 4 5 3 1 1 2 2 2 3 2 3 2 2 3 2 4 2 3 3 3 2 2 5 6 6 7 8 9 10 11 11 15 16 18 19 22 23 22 22 22
20 26 23 18 16 21 16 17 14 11 6 4 5 5 4 2 2 2 3 1 3 3 2 2 3 3 4 5 3 3 4 4 3 1 1 2 5 7 8 7 8 9 9 10 14 14 17 19 20 23 24 24 24 23
7 9 24 20 10 7 8 15 20 7 4 4 6 4 2 2 4 3 3 2 4 4 1 3 3 4 5 3 5 4 3 2 1 2 2 4 6 7 7 8 9 13 14 14 16 17 18 20 20 21 24 24 24 24
13 6 12 9 20 17 10 8 8 6 4 5 4 2 1 1 1 2 3 4 4 2 3 3 5 5 3 3 3 3 1 2 3 3 4 5 6 6 7 10 12 14 14 15 17 18 19 19 19 20 18 20 22 23
7 10 10 9 3 7 11 10 4 5 7 3 3 4 2 2 3 3 4 6 3 2 3 3 3 4 3 3 2 2 3 4 4 5 5 6 8 11 12 12 14 14 15 15 16 17 17 16 16 14 16 15 17 16
6 12 7 6 6 6 4 5 6 4 3 1 2 2 2 2 4 5 5 6 8 7 4 3 5 3 2 3 5 5 4 3 5 5 7 13 13 13 13 14 15 15 16 15 15 14 14 16 13 13 13 13 14 13
3 9 8 6 4 4 5 3 6 5 3 2 1 5 3 2 4 3 6 6 5 3 5 4 3 2 2 3 4 5 5 5 6 6 5 6 11 13 13 11 11 11 13 13 16 15 14 16 18 16 16 17 18 15
4 9 8 9 6 11 4 3 4 3 4 3 2 2 3 5 7 6 5 5 5 4 4 3 3 6 12 13 13 13 11 10 4 3 3 4 9 11 12 13 14 16 13 13 12 14 17 14 14 16 18 18 16 15
5 5 4 6 5 5 4 7 5 4 3 3 2 3 3 2 3 5 3 7 4 4 3 3 5 6 8 8 12 14 14 16 15 15 14 10 3 6 9 11 14 13 15 14 13 13 12 11 12 13 14 14 13 14
3 4 5 6 6 5 2 0 3 2 3 2 2 3 3 3 2 2 3 3 3 6 7 7 11 15 15 14 16 15 12 13 12 12 13 13 15 15 15 13 12 15 12 10 10 10 9 8 7 8 9 9 9 9
5 5 5 4 4 2 2 4 3 3 3 3 3 3 3 0 1 3 3 2 1 3 5 7 9 6 10 12 7 10 11 16 16 15 13 14 10 9 11 11 10 9 8 7 8 8 7 7 6 6 5 4 5 5
6 7 5 5 4 5 5 4 4 4 4 3 4 3 1 2 3 3 2 0 1 2 2 7 9 7 3 1 5 10 8 11 11 8 7 9 13 11 9 8 7 6 4 4 6 5 6 5 4 4 3 2 1 1
7 5 4 2 3 4 1 3 2 3 3 3 3 2 3 3 4 2 1 2 2 2 2 4 5 3 3 5 3 5 5 7 9 8 5 3 3 4 6 5 2 3 3 2 1 2 3 3 2 0 1 1 1 2
5 4 3 4 2 4 4 3 3 4 4 3 1 3 3 4 1 1 1 1 2 4 7 8 8 10 9 10 9 7 6 4 6 11 10 8 5 3 1 3 5 3 2 2 1 0 1 2 2 3 4 5 6 5
3 4 5 5 5 4 4 3 3 2 1 2 3 4 4 5 3 1 1 7 17 16 14 13 13 14 14 14 14 15 15 14 15 14 13 11 9 8 7 6 4 2 1 1 1 2 3 1 2 4 6 7 6 6
4 2 4 6 5 5 5 3 1 2 3 2 4 2 2 2 1 3 7 15 17 19 19 17 14 14 14 11 6 5 11 10 7 4 2 2 2 2 3 1 2 2 3 3 3 4 7 3 5 7 7 8 8 8
2 2 4 4 5 5 3 1 1 2 2 2 2 4 3 4 9 12 14 13 12 14 14 14 14 9 10 7 9 6 5 8 10 7 3 3 3 4 3 1 3 5 5 5 5 6 6 7 8 8 8 9 9 9
2 3 4 4 4 1 2 1 14 11 4 4 4 4 3 1 6 9 7 9 11 13 14 11 8 6 4 5 3 4 2 2 3 4 4 4 4 2 1 5 7 6 5 6 8 9 8 7 8 8 9 10 10 12
3 3 4 5 2 2 2 3 2 3 3 4 3 3 4 3 2 4 3 6 8 8 5 6 4 3 3 1 2 3 4 5 4 4 3 2 1 2 4 5 5 5 6 6 6 5 5 6 8 10 11 11 11 12
4 5 4 4 3 1 2 4 4 2 4 3 2 1 1 3 3 2 0 1 5 4 7 7 6 7 7 7 7 7 7 6 5 4 4 3 4 5 5 4 5 6 6 7 7 7 9 10 9 9 10 11 12 12

GFSWCAN_925_spd_063.txt.gz
Wind_Speed
35 34 34 35 32 29 32 32 31 30 28 28 25 29 33 33 40 38 30 36 26 2 4 10 11 9 8 9 5 5 4 2 3 5 3 3 3 3 1 2 3 6 7 4 4 4 5 2 2 3 6 5 6 9
36 36 36 35 37 34 36 37 31 31 33 29 28 28 26 24 30 38 11 33 37 5 3 6 9 15 28 21 7 9 5 4 5 3 4 3 3 1 4 2 1 2 4 3 6 4 1 1 1 4 6 8 7 13
36 39 35 39 39 30 27 25 22 25 27 31 31 28 28 27 23 38 15 28 25 5 5 6 5 11 16 20 21 6 2 4 3 2 3 2 3 3 3 4 1 2 3 2 0 0 3 1 4 8 9 9 11 12
39 39 29 26 24 24 22 21 20 21 23 27 35 30 29 30 23 19 22 22 18 3 2 3 17 9 25 14 18 17 4 5 2 2 1 2 2 3 2 1 3 2 2 2 3 4 5 7 10 9 13 12 13 12
23 23 23 22 22 23 23 24 25 27 25 26 35 31 33 31 30 21 19 23 18 2 3 2 6 12 24 23 18 16 9 5 1 1 1 2 1 2 1 0 3 1 2 2 2 4 4 7 11 10 10 12 12 12
17 18 18 18 22 23 26 26 24 22 26 29 29 29 34 33 37 19 2 20 23 8 1 3 1 6 13 18 16 10 9 7 6 3 2 2 2 2 2 2 2 3 4 5 3 9 7 9 2 9 9 11 10 9
19 20 18 20 16 13 10 20 26 24 28 29 30 30 33 39 36 6 4 15 29 14 2 2 3 2 14 6 2 2 2 3 4 3 4 4 2 2 2 5 3 6 8 7 6 8 3 6 4 8 8 8 6 6
21 21 25 24 11 11 8 15 27 27 33 31 30 32 32 41 24 3 5 33 30 5 1 2 2 3 7 3 3 2 2 3 3 1 1 4 4 1 3 6 6 8 11 4 11 10 10 10 6 9 9 9 8 8
20 22 28 22 18 23 31 34 34 37 32 32 35 34 27 8 3 6 26 35 10 5 3 2 4 4 4 2 3 2 1 1 1 3 2 2 3 2 6 6 7 7 7 10 12 11 8 8 7 9 10 10 7 8
20 16 30 37 38 24 33 38 39 39 43 44 26 5 3 5 37 33 7 2 1 1 1 1 1 2 3 2 2 4 2 3 3 2 3 2 3 6 7 7 6 7 8 9 8 5 9 8 7 8 9 8 8 7
23 21 22 28 34 38 40 44 47 43 27 4 2 3 34 24 5 2 3 2 2 2 3 2 3 3 1 4 3 1 3 3 4 1 2 2 2 3 6 7 8 8 7 7 6 6 6 5 6 7 9 11 12 12
19 19 16 24 26 22 21 19 15 10 7 12 19 10 5 4 2 5 2 2 3 2 2 3 3 3 3 2 2 2 2 2 2 2 3 2 3 6 7 8 9 8 7 8 10 9 11 12 13 12 11 14 16 16
22 21 18 12 11 16 20 27 31 35 21 9 6 4 4 5 8 3 2 1 1 4 2 2 3 2 2 1 2 2 3 3 2 3 2 3 4 6 6 6 8 10 11 12 12 15 17 19 19 18 17 18 19 19
20 23 20 17 14 11 7 8 9 7 11 5 4 6 4 4 3 2 1 1 2 3 5 2 3 3 3 4 2 4 2 2 3 2 2 2 5 5 6 6 8 10 10 12 11 15 16 17 18 20 20 19 20 20
22 24 18 14 15 15 12 8 1 13 7 5 5 5 4 2 2 3 2 1 3 4 2 2 3 3 4 5 4 3 3 3 2 2 1 2 4 5 7 8 8 9 9 10 13 14 15 17 19 20 21 21 21 20
3 8 21 18 9 9 13 19 16 6 4 4 6 3 3 2 4 3 4 3 4 4 2 3 3 4 5 2 4 3 2 2 3 2 3 4 6 7 8 8 9 12 13 14 16 16 17 18 18 19 21 21 21 20
8 5 10 6 14 15 7 6 7 6 4 5 3 2 1 2 1 3 3 4 4 2 2 3 5 5 3 3 3 3 2 2 4 4 5 7 8 8 8 11 12 13 14 14 15 15 16 15 16 17 18 17 18 19
6 7 6 5 3 6 7 9 5 5 7 4 3 3 2 2 3 3 4 5 2 2 2 3 3 5 4 3 2 2 4 6 6 6 6 7 10 12 12 12 12 12 13 14 14 14 13 13 13 13 12 12 14 13
9 8 6 10 7 6 4 5 6 4 4 1 1 2 2 2 4 5 6 6 6 6 4 3 5 3 3 3 5 6 5 4 5 6 7 12 12 12 12 12 13 13 14 12 12 11 12 12 10 9 9 10 12 10
7 11 11 9 6 4 5 3 5 5 3 2 2 4 3 2 4 3 7 6 6 4 6 5 4 3 3 4 5 6 6 6 7 7 6 6 10 11 11 9 9 9 10 11 11 10 11 12 12 12 12 11 12 10
7 7 7 8 7 11 4 2 4 3 4 3 1 2 3 3 6 6 5 6 6 4 4 4 4 6 11 12 12 12 10 7 4 2 4 4 7 9 9 9 9 9 9 8 10 10 12 11 9 12 14 14 13 11
5 6 3 7 5 4 4 6 5 4 3 4 2 3 3 2 3 4 3 7 4 4 3 3 5 6 8 9 12 13 13 15 14 15 13 9 4 6 7 6 9 9 9 8 8 9 9 8 10 11 12 13 12 12
3 4 5 5 6 4 3 1 3 2 3 3 2 3 3 2 2 2 4 4 3 6 6 8 11 14 14 13 14 13 11 12 11 11 11 11 11 10 9 9 9 9 8 7 7 7 7 7 7 8 8 8 8 8
5 5 5 3 4 3 2 3 3 3 3 3 3 3 3 1 2 3 4 2 2 4 5 8 9 7 10 10 7 10 9 12 13 12 9 9 9 7 7 7 8 7 6 6 6 7 7 6 5 4 3 3 3 3
6 7 4 5 3 5 5 3 3 4 3 2 4 2 1 2 3 3 2 2 1 1 2 4 7 7 4 3 5 7 6 7 9 8 5 7 9 7 6 5 6 5 4 3 4 5 5 5 4 4 3 3 2 1
7 4 4 2 3 4 1 4 2 3 3 3 2 1 2 3 4 3 2 3 2 2 2 4 5 4 3 4 4 4 4 7 7 6 4 3 2 3 4 3 1 2 3 3 2 1 0 1 0 1 2 2 2 2
5 4 3 4 2 4 4 3 3 4 4 3 1 2 3 4 2 1 1 1 2 4 7 7 5 7 9 8 9 7 6 4 5 9 8 6 4 3 1 1 2 2 2 2 2 2 2 2 2 3 4 5 6 5
3 4 5 5 5 4 4 4 4 3 2 2 3 4 4 3 2 1 1 5 16 16 15 14 14 14 13 13 13 15 14 14 14 13 11 9 8 7 6 6 4 2 1 1 1 2 3 3 2 4 5 6 7 6
4 2 4 6 5 5 5 3 2 2 3 2 3 2 2 2 2 2 5 14 16 19 20 18 15 15 14 10 5 7 11 9 2 3 2 2 2 3 3 2 2 2 2 2 2 3 6 4 5 6 7 8 8 8
2 2 4 4 5 5 3 0 1 2 2 2 3 4 3 4 9 11 13 12 11 13 13 14 13 7 8 6 7 5 3 4 6 4 1 2 2 4 4 1 2 4 4 3 3 4 5 6 7 7 7 8 8 8
1 3 4 4 4 1 1 3 9 9 4 5 5 4 3 2 6 12 8 8 12 13 14 10 8 6 6 5 2 2 1 1 2 3 3 3 4 2 1 4 5 4 4 4 5 6 5 5 5 6 7 8 9 10
3 3 5 5 2 2 2 3 2 3 3 3 3 2 3 3 3 3 2 5 8 8 5 4 2 3 2 1 2 3 4 5 4 4 3 2 2 3 4 4 4 4 4 5 5 5 5 7 8 8 8 7 8 9
3 4 4 4 3 1 2 4 4 3 3 2 2 0 1 3 3 2 1 1 4 2 6 6 5 6 6 7 7 7 6 5 4 4 3 3 5 5 5 5 5 5 6 6 6 6 7 8 8 8 8 9 10 10

GFSWCAN_925_spd_066.txt.gz
Wind_Speed
38 35 34 33 34 32 31 30 27 27 27 27 27 25 43 43 42 41 32 36 26 5 13 8 17 17 13 11 5 6 4 4 3 6 4 4 3 4 3 3 7 8 9 7 10 7 6 5 2 4 6 6 9 11
36 35 36 34 35 35 33 32 29 30 29 30 27 27 29 37 42 41 13 33 36 7 3 12 27 22 24 20 10 10 3 3 6 5 5 3 4 1 4 3 5 4 3 3 7 7 5 6 5 7 7 6 8 10
40 37 39 39 36 32 31 30 33 31 26 28 30 28 25 29 38 39 25 32 25 5 5 10 6 15 10 17 21 8 5 6 5 4 2 3 4 4 4 6 1 5 2 2 1 3 2 4 5 10 10 8 8 10
38 34 31 30 28 27 25 25 24 23 24 25 26 30 30 25 28 26 26 31 26 3 3 4 17 16 15 11 18 17 5 9 3 2 3 3 3 2 2 3 3 3 1 2 4 5 3 5 8 11 12 11 12 12
22 21 22 24 24 22 22 23 22 21 22 23 27 31 30 32 25 21 23 29 31 8 5 7 4 15 24 26 17 15 9 7 4 4 4 4 2 3 4 2 6 2 3 4 4 5 3 5 10 11 11 13 13 12
19 20 20 21 20 22 22 24 25 25 26 24 27 32 29 35 28 16 2 14 27 13 1 3 2 6 19 22 23 14 10 4 2 1 2 3 3 3 3 5 3 6 6 7 2 6 5 8 6 8 8 10 10 10
19 24 25 22 20 15 19 18 27 28 25 27 28 34 37 40 30 3 2 16 27 17 2 2 4 3 18 14 7 8 11 2 3 2 4 5 5 4 5 9 9 5 6 6 7 9 3 9 5 7 8 8 9 9
22 21 24 16 15 14 17 17 27 27 28 28 31 36 45 39 17 1 4 37 27 5 2 2 3 3 10 4 3 2 3 5 4 2 1 4 4 5 2 5 6 7 7 3 9 7 6 7 5 7 7 7 6 8
20 27 19 21 20 18 22 26 30 29 31 33 33 44 38 9 3 7 30 25 8 2 3 2 5 4 7 3 2 3 2 2 2 3 3 2 3 1 6 6 7 8 7 9 11 6 5 6 5 7 7 7 7 7
17 24 33 26 29 31 30 32 30 37 38 46 33 6 3 6 26 30 5 2 1 2 3 2 0 3 6 3 2 3 2 3 3 2 3 2 3 7 7 7 7 7 8 9 9 6 8 5 5 7 7 7 7 7
11 16 30 33 33 34 41 46 46 37 29 8 2 3 29 26 6 2 3 3 3 4 4 2 2 3 2 4 3 1 3 4 3 3 2 3 3 4 7 7 7 7 7 7 6 5 5 5 4 5 7 9 11 12
14 14 25 29 27 29 31 28 21 11 4 10 15 12 7 4 2 3 3 3 2 2 3 4 4 3 2 1 2 3 3 3 2 1 3 3 3 6 6 6 6 6 6 7 7 6 7 8 9 10 10 12 14 15
16 9 15 15 19 22 19 18 28 43 31 11 6 4 2 3 4 3 6 3 3 2 1 3 3 2 2 3 2 3 2 3 2 1 2 3 4 5 6 5 7 9 8 9 10 11 12 14 15 14 15 15 16 18
15 10 9 11 14 20 17 13 11 5 10 5 5 5 4 3 3 2 2 2 2 2 2 2 4 1 2 3 2 3 2 2 2 3 3 3 5 5 6 6 7 8 9 9 11 14 15 16 17 17 16 15 17 19
17 14 13 14 7 7 7 11 13 11 7 5 5 5 4 2 2 3 2 1 2 3 1 4 4 3 4 4 3 3 3 3 3 3 3 4 5 5 7 7 8 8 8 8 11 13 15 16 17 18 17 17 17 17
2 9 13 4 9 12 12 11 14 7 4 4 6 3 3 1 4 3 4 4 5 4 2 3 3 4 4 2 3 3 2 2 3 4 4 5 7 7 7 8 9 11 12 13 14 15 16 15 16 17 17 17 17 17
6 3 4 9 9 5 4 7 7 6 4 4 4 4 3 3 4 4 4 6 5 2 3 3 4 4 2 3 3 3 3 5 7 6 5 7 7 7 7 10 10 11 12 13 13 14 14 13 13 14 15 14 15 15
4 4 5 10 6 8 6 8 5 5 7 5 4 5 6 5 4 6 5 7 3 2 3 4 3 4 4 3 3 4 6 6 6 6 6 7 9 10 10 10 10 11 11 11 12 11 10 10 10 11 10 10 11 11
6 8 9 8 6 6 4 5 5 5 5 3 3 4 3 3 7 6 7 7 9 8 4 3 5 4 3 3 7 7 7 6 7 7 7 11 10 10 10 10 10 10 10 9 8 9 10 10 9 8 7 6 7 7
12 15 13 7 4 4 5 4 4 5 3 3 3 5 3 3 4 5 8 8 8 4 6 5 4 4 5 6 6 7 7 7 7 7 6 5 7 8 7 6 7 7 8 9 9 7 8 9 10 9 8 7 7 7
6 6 6 6 6 10 4 3 4 4 5 3 3 3 4 6 7 5 5 5 5 4 4 4 6 7 11 12 12 12 9 6 4 2 5 5 6 7 7 7 7 7 7 7 7 8 8 8 7 7 7 8 7 7
3 5 3 7 5 4 4 6 5 5 3 5 3 3 3 3 4 6 4 7 4 5 3 6 6 7 8 9 10 10 10 12 13 13 13 9 5 6 7 6 6 7 7 6 6 5 6 6 5 6 6 6 6 5
3 4 5 4 5 4 5 2 3 2 3 3 3 3 3 3 3 2 4 4 3 5 8 9 11 12 13 12 13 13 10 10 10 10 9 10 9 8 7 7 6 5 5 5 4 4 4 4 4 4 4 4 3 3
5 5 5 4 4 4 3 2 3 3 3 3 3 3 3 3 2 4 4 3 3 5 6 8 9 7 10 10 7 10 10 10 11 10 7 6 6 6 6 5 5 5 5 4 3 3 3 2 2 1 1 1 1 0
4 7 4 5 3 4 4 3 3 3 4 3 3 3 2 1 3 3 3 4 4 4 4 5 5 6 6 5 8 8 6 5 6 7 5 5 6 4 4 3 3 3 2 1 2 2 2 2 2 1 1 0 1 1
6 6 5 3 3 3 2 4 3 4 3 3 4 3 1 2 4 4 3 5 4 3 4 4 5 5 5 6 5 6 5 5 4 5 4 3 2 1 0 1 1 1 1 1 1 1 2 2 1 1 2 2 3 3
4 4 4 4 2 4 5 4 4 4 4 3 3 2 2 4 3 2 3 2 3 5 7 5 4 5 8 8 8 6 5 4 5 6 5 4 3 2 1 1 0 1 1 1 1 1 2 2 2 2 3 3 4 4
4 5 4 4 5 5 4 4 3 3 2 2 2 4 3 2 3 3 3 6 11 10 10 10 10 10 10 9 8 9 8 9 10 8 6 5 5 5 5 4 3 2 1 1 1 2 2 4 3 3 4 4 5 5
4 3 3 6 5 6 7 4 3 3 3 1 3 3 3 3 3 4 8 9 10 11 12 11 10 10 10 8 6 6 6 3 1 1 2 1 0 1 1 2 2 2 3 2 3 3 4 5 4 5 6 6 6 6
3 3 4 5 5 6 5 4 3 3 3 3 4 6 5 5 8 8 10 8 8 9 9 9 8 5 6 5 5 3 2 2 2 2 3 2 2 1 2 0 2 4 5 3 3 4 5 5 5 6 5 5 5 6
2 3 5 5 5 5 6 8 12 10 6 7 9 10 7 4 6 9 7 7 8 10 9 7 6 5 5 3 2 2 2 1 2 2 2 2 3 2 1 3 4 4 4 4 4 4 4 3 4 4 5 5 6 6
3 3 5 5 5 4 1 2 3 4 3 4 3 3 2 3 3 2 2 4 6 6 5 5 3 3 3 2 3 3 4 5 3 3 3 3 2 3 3 3 3 3 3 4 4 3 4 4 5 5 5 5 6 7
5 7 8 6 4 6 3 3 3 4 3 2 2 2 2 2 3 3 3 4 3 3 4 4 5 6 7 7 7 7 6 5 4 3 2 3 4 4 4 5 5 5 5 5 5 5 5 6 6 6 7 8 8 9

GFSWCAN_925_spd_069.txt.gz
Wind_Speed
36 38 38 35 33 32 31 30 27 26 26 26 26 32 34 42 43 40 33 28 26 3 15 18 16 13 14 7 5 7 5 4 3 5 4 4 4 5 3 4 11 11 9 7 10 9 11 5 3 4 6 7 9 9
37 37 37 37 36 35 34 32 31 29 26 25 26 26 31 37 47 46 22 31 27 7 5 15 32 24 16 9 6 6 2 2 4 4 5 2 4 1 5 4 10 6 7 5 9 7 8 11 14 10 8 8 9 10
39 38 38 38 36 31 30 28 28 27 27 27 30 27 29 32 41 48 33 23 20 6 5 15 16 20 24 19 11 4 6 10 5 4 3 3 5 4 4 5 2 8 4 1 4 9 7 10 12 11 10 10 10 10
37 36 33 25 25 25 25 26 25 25 24 28 31 31 29 27 38 46 24 29 28 3 4 9 23 32 11 16 15 17 12 12 2 5 3 3 3 3 2 2 4 5 1 5 4 7 8 11 12 10 10 11 12 11
31 23 23 24 22 24 23 23 23 23 23 21 22 25 31 27 30 38 31 29 34 9 4 11 11 12 25 22 16 10 11 7 2 2 4 4 3 3 2 2 4 3 3 3 2 8 7 8 10 11 11 12 12 11
22 22 27 28 28 27 26 20 20 21 23 23 24 27 32 27 28 20 3 24 38 29 3 2 6 8 19 20 20 10 8 5 1 1 4 3 5 3 2 3 11 12 11 12 5 9 7 9 10 12 11 11 11 10
21 21 27 26 22 19 21 26 24 24 24 27 28 31 34 32 27 4 2 12 42 26 2 3 3 4 18 14 10 9 12 2 3 2 3 4 4 3 3 6 6 10 9 9 10 11 7 9 5 8 8 8 8 9
17 23 22 24 19 18 17 21 24 28 29 29 30 35 39 35 16 6 3 31 41 8 3 3 2 4 10 5 5 3 2 3 4 2 3 5 4 5 1 7 8 10 9 7 11 8 6 7 7 8 9 8 6 7
20 20 21 16 13 8 25 27 28 33 32 30 34 42 30 8 3 6 31 27 19 3 3 3 5 3 6 2 3 3 3 2 3 3 2 3 2 3 5 7 8 10 8 10 11 7 3 5 5 6 7 7 6 7
16 20 23 21 22 24 24 29 35 34 35 42 35 5 3 8 40 25 5 2 2 2 3 2 2 3 7 4 3 2 3 4 3 2 3 0 3 5 5 5 6 8 8 9 8 8 10 8 6 6 7 6 6 7
18 20 26 26 27 27 33 34 41 46 41 11 3 2 23 35 5 2 3 3 3 4 4 1 2 4 0 5 3 3 2 4 3 3 3 4 3 3 5 6 7 8 8 8 7 6 6 6 6 5 7 8 9 10
15 16 21 25 29 33 38 43 31 11 5 11 17 13 7 2 2 3 4 2 5 4 3 4 3 3 2 2 3 2 2 1 0 4 3 3 3 5 6 6 7 7 7 8 9 8 9 10 10 10 10 12 13 13
13 16 13 16 18 18 20 19 38 45 32 14 7 4 1 1 3 4 7 3 4 2 1 3 4 2 3 2 3 2 3 1 2 2 3 3 6 7 7 6 7 10 10 11 11 13 13 15 15 14 14 14 15 16
17 19 20 21 22 27 29 19 21 10 7 3 3 4 3 3 3 3 4 4 3 2 3 4 4 2 2 3 2 3 1 2 3 5 3 6 6 6 6 7 7 8 8 9 11 14 15 15 17 17 16 15 16 17
14 18 19 16 13 13 11 7 6 8 6 4 4 4 4 2 3 3 1 1 3 1 1 5 4 3 3 2 0 3 4 3 4 3 3 6 6 6 7 7 7 7 7 8 12 13 14 15 16 17 16 16 17 16
7 8 10 5 10 12 10 13 13 6 4 4 6 3 1 3 5 5 5 6 5 4 1 3 3 4 2 2 2 2 2 3 3 4 6 6 7 7 7 8 9 11 12 13 13 13 14 14 15 16 16 16 16 15
4 2 5 5 4 8 9 7 6 6 4 4 4 4 3 4 6 4 5 4 3 3 2 1 3 3 3 3 3 5 4 6 7 6 7 9 8 8 8 10 11 11 12 12 12 12 12 12 11 12 13 12 12 12
4 7 10 12 10 12 7 8 4 4 6 5 4 6 7 6 5 6 5 7 3 2 3 3 3 4 4 2 4 5 7 7 7 7 7 8 10 10 10 11 10 10 10 10 10 9 8 7 8 9 8 8 8 8
9 6 9 8 4 5 3 4 4 5 5 3 4 4 4 5 7 6 6 6 7 7 4 3 5 4 3 4 8 8 7 7 7 7 7 11 10 10 9 9 9 9 8 8 7 8 8 9 7 6 4 3 4 4
12 11 12 8 3 4 4 3 4 5 3 3 3 5 4 3 3 6 8 8 7 4 6 5 4 6 6 7 7 7 7 7 7 7 6 6 8 7 7 7 7 7 7 6 6 4 5 6 6 6 5 5 3 4
9 7 6 5 6 9 4 3 4 5 5 4 4 4 4 6 7 6 6 6 7 4 4 5 6 7 11 11 12 12 8 5 4 3 6 5 6 6 6 6 5 4 4 4 4 5 5 5 4 4 4 4 4 4
3 5 4 6 4 4 4 7 5 5 3 5 3 3 3 4 4 5 4 6 4 5 4 6 7 7 8 9 11 11 10 12 12 13 12 8 4 5 5 4 3 4 4 4 3 3 3 3 3 3 3 3 3 3
4 3 4 4 4 4 5 2 3 2 3 4 3 3 3 3 3 1 4 4 4 5 9 9 11 13 13 13 13 11 9 9 9 9 8 8 7 6 5 5 4 3 3 4 3 2 2 2 2 2 2 1 1 2
5 5 4 3 4 4 3 2 3 3 3 3 3 4 3 3 2 4 4 3 4 7 6 8 10 7 10 9 7 10 9 9 9 8 6 5 5 5 5 5 4 5 4 3 3 2 2 1 1 0 1 2 1 3
3 6 4 5 2 4 4 4 3 3 3 3 3 3 3 2 3 3 3 4 4 5 4 5 4 5 6 6 8 8 6 5 5 6 6 6 4 3 3 3 4 4 2 2 1 1 1 1 1 2 2 3 3 4
6 7 5 2 2 2 3 4 3 5 4 3 3 3 2 2 3 5 3 5 6 5 4 4 5 5 5 7 5 7 6 5 3 6 5 4 4 3 3 2 2 3 3 2 2 3 2 2 3 4 5 4 3 5
4 4 3 3 1 4 4 4 5 4 4 3 3 3 3 3 4 3 4 6 6 8 8 6 5 6 7 8 8 7 6 7 7 7 5 5 5 5 4 4 2 3 2 2 2 2 3 3 4 4 5 5 5 5
4 6 3 3 5 5 4 4 4 3 3 2 3 3 3 3 3 3 4 8 12 11 10 10 10 9 9 9 8 7 7 7 7 6 5 5 5 5 5 4 3 2 2 2 2 3 3 4 5 5 6 6 7 7
4 3 4 6 6 6 7 5 3 3 3 2 3 3 3 3 3 10 12 12 11 11 11 11 10 10 10 8 7 6 4 3 3 2 2 2 1 3 2 2 2 3 4 4 4 2 4 5 5 6 6 8 8 8
3 3 4 6 5 6 5 5 5 2 3 6 6 11 11 10 11 11 11 10 10 10 9 9 8 6 6 5 5 4 4 4 3 3 4 3 3 1 1 2 3 4 5 5 5 5 5 6 6 6 6 7 7 8
3 3 5 5 5 7 8 9 12 13 10 10 9 10 8 5 7 10 9 8 9 10 9 8 7 6 5 4 3 2 3 3 4 4 4 3 2 2 2 3 4 4 4 4 4 5 5 5 6 6 7 7 8 7
3 3 5 5 6 5 2 4 6 9 8 8 7 6 5 4 3 3 3 4 7 7 6 5 5 5 4 5 5 6 7 6 4 3 4 3 2 2 3 3 4 4 4 5 5 5 6 6 7 7 8 8 8 9
9 9 10 8 5 6 4 4 4 4 3 3 3 2 3 3 3 3 2 2 5 6 6 6 6 7 7 7 6 6 5 4 4 2 1 2 2 2 2 4 4 5 5 5 6 6 7 7 8 9 9 10 10 11

GFSWCAN_925_spd_072.txt.gz
Wind_Speed
33 38 37 35 35 34 32 30 30 28 26 22 22 23 30 35 36 34 30 23 21 4 13 17 17 12 12 5 4 4 5 3 3 2 3 6 5 3 5 7 15 12 10 7 9 7 6 4 7 2 7 6 7 13
37 37 36 35 38 35 34 35 33 30 29 26 25 25 26 34 38 37 22 26 21 6 5 12 18 26 24 16 2 1 4 3 2 5 4 3 4 2 6 2 14 8 8 5 8 6 11 14 15 12 11 12 12 12
36 35 37 37 37 35 33 30 27 27 30 28 26 25 28 29 36 44 31 19 21 6 7 13 16 27 23 20 16 3 4 4 4 5 2 3 5 3 3 1 1 3 8 1 3 11 15 16 16 15 14 13 11 11
35 37 39 38 29 25 24 22 24 25 24 24 26 25 25 26 32 39 34 27 24 4 5 10 17 25 37 24 14 18 9 11 8 4 2 3 3 5 3 1 3 1 4 6 8 10 15 14 15 13 13 13 11 11
35 35 30 26 26 25 25 23 21 23 23 23 25 28 26 27 27 30 34 32 29 9 4 7 19 23 16 23 14 7 9 6 2 2 3 3 0 4 0 4 8 7 9 5 4 10 10 13 14 12 12 12 11 12
33 29 27 26 27 30 29 26 25 23 22 23 22 25 28 30 28 23 2 23 33 22 4 3 8 10 13 16 19 11 5 1 2 1 3 4 4 2 4 2 7 14 15 18 7 8 13 12 15 13 11 10 11 11
23 27 28 33 29 25 25 24 24 21 21 22 21 21 29 30 27 7 3 7 38 23 3 3 3 4 13 10 6 6 9 2 3 1 3 3 3 3 1 3 7 11 11 14 14 9 12 15 8 11 10 9 13 14
23 25 28 30 26 23 22 22 24 24 21 22 24 28 32 24 19 4 3 8 37 11 3 3 1 2 9 4 3 2 2 2 3 1 2 3 3 3 4 8 10 12 11 15 13 9 8 6 9 10 10 9 10 10
17 19 22 22 21 18 21 23 28 27 25 30 33 35 23 5 3 5 6 33 23 4 3 3 3 3 3 3 2 3 2 2 3 2 2 3 4 5 5 7 10 11 10 11 10 12 11 10 10 10 11 12 10 10
11 14 16 14 14 21 23 28 33 33 36 44 31 5 3 4 22 24 7 2 2 2 3 2 2 3 5 4 2 2 3 3 2 3 2 3 3 6 7 9 9 10 10 11 11 10 10 9 10 10 11 11 10 10
10 19 13 13 16 25 28 37 41 50 39 9 3 2 19 32 5 2 3 3 3 4 4 3 4 4 3 3 3 3 1 3 3 3 3 3 3 4 8 9 10 11 11 12 11 10 11 9 8 9 11 12 14 15
10 21 24 24 24 33 37 47 44 14 8 8 15 15 6 2 2 3 4 3 5 4 2 5 2 2 3 1 3 3 1 2 2 3 2 3 3 7 8 9 10 10 10 11 14 12 14 14 14 13 13 14 15 15
11 14 23 32 34 36 26 19 25 37 33 11 5 3 2 1 4 5 6 3 4 2 1 2 3 2 3 1 3 1 2 2 1 1 3 4 7 7 8 7 10 13 14 14 14 15 16 17 17 15 15 15 16 17
17 18 24 31 29 35 35 26 19 9 6 3 2 4 3 3 4 4 4 4 2 2 2 4 3 2 0 3 1 2 2 2 3 5 4 6 8 7 7 8 8 9 9 10 12 14 14 15 15 16 16 15 15 16
20 21 27 21 15 18 16 13 7 5 5 4 4 4 3 2 3 1 1 2 3 2 1 4 3 3 3 3 2 3 2 2 5 4 4 6 8 7 8 7 7 7 6 8 11 12 13 14 14 16 16 16 16 16
9 10 11 11 10 10 10 10 10 6 3 4 6 3 2 6 6 6 5 5 4 2 2 1 3 3 3 2 1 4 4 4 3 5 6 7 8 8 8 8 9 11 11 11 12 12 13 12 13 14 14 15 15 14
7 5 10 11 14 11 8 7 6 5 4 3 3 5 4 6 6 4 4 3 2 2 2 2 3 3 2 3 3 5 3 6 8 7 7 9 9 8 7 9 10 11 11 11 11 11 11 10 9 10 12 10 11 11
6 14 15 9 7 7 6 7 4 4 6 5 4 6 5 5 5 5 4 5 3 2 3 3 3 4 4 2 4 5 7 7 7 7 7 8 10 10 10 10 10 10 10 9 9 8 7 7 8 8 8 6 8 7
11 13 9 8 4 4 3 4 4 4 4 3 3 3 4 4 6 6 5 4 7 7 3 3 5 3 3 4 8 7 6 6 7 7 7 12 11 9 9 9 9 9 9 7 7 7 6 8 8 6 4 3 4 6
11 14 12 8 4 4 4 3 4 4 3 3 3 5 3 3 3 5 6 7 6 4 5 4 4 6 7 7 7 7 7 7 7 7 6 6 8 7 8 7 7 6 6 6 5 2 3 5 6 6 8 8 7 7
16 11 5 3 6 9 4 3 4 4 4 3 4 3 4 6 6 7 6 6 6 4 3 4 7 8 12 12 12 11 8 5 3 6 7 5 7 7 6 5 4 4 3 4 4 5 6 6 5 5 5 6 5 6
8 5 5 6 4 4 4 7 5 4 3 4 3 3 3 3 4 5 4 6 4 5 4 6 6 7 8 9 12 12 11 13 14 15 13 9 4 5 6 5 4 5 6 6 6 5 5 6 7 3 3 3 4 6
5 3 3 3 4 4 3 1 3 2 3 4 3 3 3 3 2 2 4 4 3 6 10 10 14 15 13 12 12 11 10 11 11 10 9 9 8 6 6 6 5 4 3 5 4 4 6 2 1 3 1 2 1 3
4 4 4 3 4 4 2 2 3 3 3 2 3 3 3 2 2 3 4 3 5 8 6 9 11 7 10 10 7 9 9 10 10 9 6 5 6 6 5 5 5 5 5 4 4 4 3 3 2 4 2 4 1 4
3 6 3 4 3 4 4 4 2 3 3 3 3 3 3 3 2 3 3 3 5 5 5 6 5 7 6 6 8 7 6 5 7 7 7 5 4 4 4 4 4 4 3 5 2 2 3 2 2 4 5 4 6 7
5 6 5 2 2 2 3 4 4 5 4 3 3 3 2 2 3 5 3 6 6 6 4 4 5 5 5 8 6 8 7 5 5 8 6 6 6 5 4 3 2 7 6 4 5 6 3 0 3 3 6 5 3 2
4 4 3 3 2 3 4 4 5 4 3 3 4 4 3 3 4 2 5 9 7 10 9 6 5 8 9 10 10 8 7 8 10 9 7 7 7 7 7 8 7 6 4 4 4 4 6 6 5 5 6 6 6 5
4 5 4 3 5 6 4 4 3 3 3 1 3 3 2 3 3 3 3 14 14 12 12 13 13 12 12 10 9 8 8 7 8 7 7 7 7 7 7 6 7 4 3 4 4 3 4 5 6 7 8 7 7 7
4 4 4 6 5 6 7 5 3 3 4 2 3 3 3 3 7 13 15 14 12 13 12 11 11 11 10 10 9 8 7 5 3 3 2 2 6 6 5 4 4 4 5 6 5 3 3 5 6 7 7 8 9 9
3 2 4 5 5 5 5 5 4 3 6 8 7 10 10 12 14 11 12 11 11 11 10 10 9 8 8 8 7 7 7 6 6 5 4 5 5 3 3 4 5 5 6 6 6 7 7 6 7 7 8 8 8 9
3 3 4 5 4 5 7 9 14 11 8 10 8 9 8 4 9 15 13 12 11 10 9 9 9 7 6 5 5 4 7 5 5 6 6 4 3 3 3 3 4 4 5 5 6 6 7 7 8 9 9 9 9 10
2 3 5 5 5 5 2 4 6 9 7 8 7 8 6 4 3 3 2 3 6 8 7 8 9 8 7 7 7 8 9 7 5 5 4 4 3 3 3 4 5 5 5 6 6 6 7 8 8 9 10 10 11 11
9 9 10 8 5 7 4 3 4 5 4 3 3 3 4 3 4 3 3 6 9 10 11 10 9 9 9 8 8 8 6 5 4 3 3 3 3 3 4 3 3 4 6 6 7 7 8 9 9 10 11 12 13 13

GFSWCAN_925_spd_075.txt.gz
Wind_Speed
26 27 28 31 32 32 30 26 28 28 25 23 20 18 17 25 31 29 21 17 18 3 6 8 10 8 7 4 4 7 3 2 2 1 2 3 3 4 4 6 7 9 7 5 3 4 6 12 8 3 8 9 13 12
25 29 30 31 31 30 31 32 31 29 28 26 23 21 21 21 29 32 14 22 21 4 3 13 12 16 12 9 2 1 4 3 2 2 1 3 3 3 2 3 1 4 6 5 6 3 10 14 14 13 13 14 13 14
28 30 31 31 32 33 33 33 29 26 25 24 25 24 23 22 26 35 23 17 18 2 8 9 10 27 28 24 15 3 1 5 3 4 2 2 5 2 2 2 2 4 9 2 5 10 15 16 16 17 14 15 14 14
30 31 31 32 32 30 27 21 20 20 20 21 23 25 24 23 25 34 27 25 21 3 2 5 12 15 15 22 21 23 6 5 4 2 2 2 2 4 3 5 4 3 5 5 4 2 16 17 16 14 14 14 15 15
32 31 33 31 29 25 25 23 20 18 17 19 20 22 25 24 27 29 30 30 28 6 2 4 14 15 19 17 22 19 15 5 1 2 2 2 2 3 1 2 5 7 7 1 2 10 12 9 13 15 12 13 14 13
31 32 32 29 26 27 24 26 25 21 20 18 20 21 23 24 22 15 2 24 30 19 3 4 5 5 13 15 14 6 3 3 1 1 2 3 3 1 2 3 8 12 14 16 5 15 15 12 14 12 12 14 15 14
32 30 25 28 30 30 28 25 22 22 21 20 21 22 25 25 24 6 4 8 39 16 2 3 3 4 11 5 2 2 4 2 2 1 2 3 1 1 2 3 9 12 14 14 12 7 13 12 7 8 10 13 18 18
27 23 28 29 30 30 27 24 25 21 22 21 21 20 24 27 16 1 2 9 38 8 2 3 3 1 2 3 2 2 2 2 2 1 2 3 2 4 4 6 9 12 11 14 13 12 10 10 10 11 13 13 13 12
18 21 23 27 28 27 25 22 22 24 24 24 23 30 23 7 4 5 8 36 20 5 4 3 2 1 1 2 2 2 2 1 1 2 2 2 3 5 5 7 10 12 10 11 10 13 11 11 12 12 11 12 13 11
12 16 21 14 12 3 21 26 29 30 39 48 28 6 3 7 29 31 6 3 2 2 2 2 2 1 3 2 2 3 2 2 3 3 2 3 3 7 10 11 10 10 11 11 9 11 9 9 11 13 13 11 10 11
9 11 9 6 9 18 26 32 38 55 39 8 3 2 15 31 6 2 3 3 3 3 3 3 3 1 1 2 2 2 2 2 2 3 3 2 2 3 9 10 9 9 11 11 12 11 12 11 11 11 12 15 15 16
13 12 10 18 23 30 42 54 44 20 6 10 16 15 6 3 3 3 3 2 4 5 1 3 4 2 2 2 3 2 2 1 2 2 2 2 3 7 9 10 10 10 12 10 15 13 15 17 16 15 14 16 16 16
15 24 32 36 41 44 34 25 25 36 25 15 6 3 2 1 3 6 5 2 3 2 1 2 3 2 2 1 2 1 2 1 0 3 3 3 7 7 7 7 9 12 13 14 14 15 17 18 18 16 15 17 18 18
18 19 20 24 30 33 40 24 22 11 9 3 3 4 2 3 3 2 2 2 1 0 1 3 2 2 1 3 1 3 1 1 1 3 2 3 5 5 6 6 7 6 7 9 11 15 15 16 16 19 19 19 19 18
31 25 26 24 23 24 22 18 15 10 6 4 4 4 3 1 1 1 1 2 2 2 1 2 3 3 2 3 2 3 2 3 3 2 2 5 5 5 4 4 5 5 5 7 12 12 15 16 15 16 17 17 18 18
21 19 15 16 18 16 12 11 14 7 4 3 6 3 1 2 4 3 3 2 3 2 2 2 3 3 3 1 3 3 2 3 2 3 4 4 5 4 5 5 8 12 14 14 14 14 14 15 15 15 14 14 12 12
7 5 16 19 18 13 11 7 6 5 3 4 3 3 2 4 3 2 3 2 2 2 2 2 3 3 1 3 3 3 2 3 6 6 4 5 5 4 6 11 12 12 11 11 12 11 12 13 13 12 10 11 12 13
6 22 14 14 15 11 7 5 4 4 5 3 3 2 2 4 2 2 3 3 1 1 2 2 3 5 3 3 2 2 4 6 5 5 4 4 7 10 11 11 13 12 11 10 9 8 5 8 9 9 9 9 9 10
22 19 13 12 6 4 3 4 4 4 3 2 2 2 2 2 4 4 2 3 4 5 3 3 4 3 2 3 7 6 4 4 6 6 6 13 15 14 13 13 12 11 10 9 9 8 9 11 12 13 14 9 9 10
16 15 13 11 4 3 4 2 5 4 3 2 2 2 2 2 1 5 6 6 7 3 5 4 3 3 3 4 4 6 6 6 7 6 4 3 10 10 8 9 10 9 8 8 7 8 6 10 10 11 11 12 12 11
17 15 11 7 5 10 4 3 3 3 3 3 3 2 3 2 3 3 3 3 4 3 3 2 4 7 13 14 15 13 9 9 3 3 5 4 10 11 8 6 7 9 10 8 8 11 14 14 11 7 7 8 7 6
7 9 5 6 4 4 4 6 4 3 3 3 2 2 3 2 2 3 1 5 3 3 2 4 5 6 7 7 11 16 16 19 20 17 15 11 3 7 11 12 11 12 13 12 9 13 11 6 6 8 6 6 2 3
5 3 3 3 4 4 1 2 3 2 3 2 2 3 2 2 2 2 3 3 3 5 10 10 12 15 13 16 18 16 16 16 12 15 16 15 13 13 13 14 14 14 12 9 9 8 7 5 4 3 4 5 2 2
3 4 4 3 4 3 2 1 2 3 3 2 3 3 2 2 2 3 3 2 1 7 5 9 11 6 8 10 4 11 15 16 14 14 10 15 13 12 11 11 9 7 7 4 3 5 5 4 5 6 2 6 5 7
5 7 4 3 2 4 3 3 2 3 3 3 3 2 2 1 2 3 2 3 4 3 2 9 8 7 5 2 8 11 14 14 15 10 12 9 8 10 10 9 9 7 4 10 8 2 1 0 2 2 4 6 6 7
6 3 4 3 1 3 3 4 3 3 3 3 2 2 2 2 4 3 2 4 4 3 2 4 5 4 4 11 5 10 9 9 16 15 12 10 11 11 7 9 9 7 5 3 6 7 9 1 2 2 4 6 5 6
4 3 2 2 2 2 3 3 4 4 3 3 2 3 3 4 3 1 3 5 4 9 12 9 15 16 12 15 16 11 9 13 14 13 10 7 7 6 6 10 9 5 3 1 3 3 5 7 7 7 8 8 6 5
3 5 4 4 4 5 3 3 4 3 2 4 3 4 3 3 2 2 3 14 22 25 26 25 23 22 21 16 12 13 13 12 13 12 11 12 11 10 10 9 8 4 4 6 6 3 3 4 6 7 8 8 7 7
3 1 3 5 5 5 5 4 3 2 3 2 3 2 2 2 4 10 16 21 21 22 19 18 19 21 20 18 15 13 10 7 10 2 2 3 7 5 4 5 4 3 3 5 6 4 3 6 7 7 7 9 8 6
2 2 4 4 5 4 2 3 2 2 3 3 4 9 8 8 13 17 18 17 16 16 16 17 17 15 15 14 12 9 7 6 8 9 5 4 5 5 3 1 1 2 4 5 5 4 5 7 6 7 9 8 7 7
3 3 4 4 3 3 7 7 13 11 8 9 6 7 4 3 11 22 20 18 19 17 17 17 15 12 14 12 11 11 7 6 7 8 8 5 3 1 3 2 5 4 4 5 4 6 8 8 9 10 11 11 11 10
3 3 4 4 2 3 1 2 3 6 4 3 2 1 0 3 3 3 7 6 9 11 13 15 15 11 8 9 9 8 9 10 8 7 6 4 2 3 4 4 4 4 6 4 5 6 7 9 9 10 11 12 13 13
6 5 5 4 2 3 3 3 3 3 2 2 1 2 3 3 3 2 4 11 12 18 18 15 13 12 10 8 8 8 6 6 5 4 3 3 2 2 3 1 3 4 4 4 4 6 8 10 10 11 12 13 14 15

GFSWCAN_925_spd_078.txt.gz
Wind_Speed
21 20 22 24 24 24 25 24 23 22 20 21 20 19 15 14 21 24 16 14 16 3 4 5 3 2 2 1 2 5 6 3 1 1 2 3 3 4 3 4 4 6 6 5 3 5 8 4 6 1 7 11 13 12
21 22 22 24 25 25 24 24 23 24 25 24 22 19 17 17 19 25 9 20 20 2 4 5 8 14 12 9 3 1 3 4 2 2 0 2 2 3 1 4 3 5 7 5 6 3 9 13 14 13 12 12 11 11
23 23 25 25 25 25 24 25 26 27 25 22 21 21 20 20 20 29 20 18 17 1 6 6 9 20 22 25 16 3 1 1 4 5 2 2 4 1 3 0 4 3 8 2 5 7 13 15 14 15 16 15 14 14
23 26 26 26 26 24 25 24 21 18 16 16 17 21 23 23 22 27 21 23 19 3 2 5 8 10 13 18 24 24 9 4 4 2 2 2 3 3 1 1 5 4 7 5 5 4 4 14 14 12 16 15 16 16
26 26 27 26 25 25 22 20 20 18 16 15 17 17 21 23 20 23 25 26 29 6 3 4 12 20 19 18 18 23 14 5 0 2 2 2 3 3 2 2 4 7 5 1 3 6 7 8 13 14 18 12 15 13
26 28 28 27 25 24 22 20 17 15 14 16 13 17 19 23 22 19 1 21 33 17 2 3 4 4 8 10 14 12 10 3 2 1 2 3 2 1 1 3 8 9 11 13 4 12 11 12 14 16 14 13 14 14
29 29 28 26 25 23 22 23 22 19 19 18 15 18 19 23 27 6 4 6 37 14 2 3 3 4 4 4 2 3 3 2 3 2 2 2 2 2 3 3 9 12 13 13 9 6 11 14 8 13 14 15 19 18
29 28 26 24 24 25 25 25 23 20 17 21 19 18 19 25 17 4 2 10 33 9 2 2 4 4 2 2 2 1 3 2 2 2 2 2 2 3 3 6 9 9 8 13 14 13 11 10 13 11 14 13 12 10
22 19 20 23 27 28 29 27 24 22 21 22 21 21 19 8 4 6 7 34 12 4 5 3 2 2 3 2 2 2 2 2 2 2 2 2 3 4 5 8 9 10 7 5 9 10 11 12 11 11 11 10 10 10
15 17 22 23 24 24 26 27 26 25 28 27 26 5 3 11 29 33 7 2 1 2 2 3 3 2 1 2 2 2 2 2 3 3 3 3 3 7 8 7 6 7 8 7 6 7 6 8 9 11 11 9 9 8
11 15 13 10 7 5 16 32 35 39 40 7 3 2 24 36 7 2 3 3 3 3 3 3 6 2 2 2 3 2 2 2 2 2 2 2 2 3 7 8 8 7 10 10 9 11 11 10 8 8 8 11 11 12
9 6 3 7 13 21 34 46 48 17 11 12 17 19 8 3 2 3 3 4 4 5 2 4 3 2 0 1 2 2 2 1 1 1 3 2 3 7 7 8 9 9 11 11 14 11 13 13 12 12 12 12 12 14
18 17 16 26 31 42 42 28 32 41 38 20 5 3 3 0 3 4 6 3 3 3 3 2 3 2 2 2 2 2 2 1 1 4 2 2 6 6 7 6 8 10 12 12 13 13 13 14 14 13 12 14 16 16
25 28 31 31 34 34 35 38 25 21 5 3 3 4 2 3 2 2 1 2 1 1 2 3 2 2 1 2 1 3 1 2 2 2 2 2 4 4 5 6 8 6 8 10 11 14 15 15 16 17 16 16 17 16
24 32 34 30 26 25 16 14 11 7 5 4 4 4 2 1 0 0 0 2 2 1 1 2 3 3 2 3 2 2 1 2 0 3 2 4 5 6 5 5 6 6 6 8 14 14 15 16 16 16 15 15 15 14
25 22 16 18 21 18 10 12 12 6 4 4 6 3 2 3 3 3 3 2 3 2 0 2 3 3 2 2 4 1 2 4 3 2 2 5 4 4 5 5 9 14 14 13 13 14 14 14 14 13 11 11 11 12
10 5 8 12 12 9 8 7 6 5 4 4 3 2 2 3 2 1 2 3 2 1 2 2 3 1 2 3 2 2 2 3 6 5 3 4 6 6 8 11 13 13 12 12 11 10 10 11 11 10 9 9 10 10
11 17 18 20 19 14 7 8 4 4 5 3 3 3 2 2 1 2 3 2 1 1 2 2 3 4 2 4 2 1 3 3 4 5 3 3 8 13 13 12 13 14 12 10 8 7 9 10 6 7 7 9 9 8
24 17 16 12 10 5 3 4 4 4 2 1 1 1 2 2 3 2 3 4 3 4 3 3 5 2 1 1 5 4 4 5 7 4 3 11 16 16 14 13 11 8 6 7 9 10 10 9 8 7 3 10 5 10
19 18 16 11 6 4 4 2 4 4 3 1 2 2 2 3 1 3 6 5 3 2 5 4 1 1 2 1 3 6 6 6 8 7 3 2 12 14 13 11 11 10 11 9 7 11 12 11 9 8 8 8 8 7
18 16 14 4 4 8 3 2 3 3 3 3 2 2 2 2 3 3 3 4 4 3 2 2 3 5 10 11 12 13 11 12 3 3 5 4 11 13 10 7 8 8 7 10 13 12 11 9 7 5 4 4 3 3
10 12 3 5 4 4 4 4 4 4 3 3 2 2 3 2 1 2 1 5 3 2 2 3 3 6 6 6 10 13 14 15 15 16 15 15 4 7 11 13 15 14 11 11 11 10 7 5 4 4 3 3 1 2
8 3 3 4 5 4 1 1 3 2 4 3 2 3 2 1 2 2 3 2 2 3 7 7 9 15 15 16 18 16 16 18 12 14 17 17 18 17 16 12 12 14 12 10 7 5 4 3 1 1 2 4 2 3
4 4 3 3 4 2 2 2 2 3 3 2 2 3 1 2 2 3 3 2 1 1 4 9 13 8 12 12 4 10 15 19 17 17 19 18 14 13 10 11 10 8 6 6 6 4 3 2 2 3 2 4 4 3
6 5 4 4 2 4 3 2 2 3 2 2 3 1 1 2 3 2 2 2 2 2 2 10 10 8 5 2 9 11 14 19 16 11 7 10 14 15 14 12 10 7 4 6 4 4 3 2 1 1 3 3 4 4
5 4 3 1 1 4 3 3 3 4 3 3 1 1 2 3 3 2 3 4 3 3 3 6 6 3 3 8 5 10 11 15 16 13 7 7 7 13 15 11 6 4 4 3 1 4 5 3 2 1 3 4 4 5
4 2 2 3 2 2 3 3 3 4 3 3 3 2 3 4 2 2 1 1 3 6 14 19 19 14 11 13 13 10 11 12 7 11 9 8 7 5 4 13 8 4 1 3 3 3 2 1 2 3 3 4 4 4
2 3 4 4 4 4 3 3 3 2 1 3 3 3 4 6 4 1 2 11 25 25 24 21 21 23 21 17 16 17 17 15 16 15 14 13 11 10 9 8 6 3 1 2 3 4 3 5 6 7 7 7 8 6
2 2 4 5 5 5 4 2 1 1 2 1 4 2 2 1 1 6 11 22 26 29 23 22 22 24 22 18 15 15 14 14 14 4 2 2 3 3 3 2 1 1 3 3 2 2 5 5 5 8 9 9 9 11
1 2 4 3 4 3 3 1 0 3 1 3 3 5 4 5 13 20 22 21 21 19 21 24 25 23 21 18 14 10 8 5 5 5 5 5 7 8 5 2 3 4 3 3 3 3 4 6 5 4 5 6 6 8
3 3 4 3 3 2 5 8 13 10 4 5 4 5 3 3 12 19 16 18 22 24 22 18 16 14 14 14 13 12 8 6 5 5 6 8 7 3 1 1 1 0 3 4 3 3 4 6 7 7 9 10 11 12
3 3 4 4 2 2 0 3 3 3 3 4 3 3 3 4 3 5 8 10 20 20 19 19 18 13 11 9 7 5 3 11 8 6 4 3 2 2 2 1 1 3 4 2 3 4 5 7 8 9 11 12 12 12
4 3 4 4 3 1 2 4 3 3 2 2 2 2 2 3 3 3 3 5 15 18 16 13 13 12 10 8 9 10 9 7 6 4 3 2 1 2 3 4 4 4 4 4 4 6 7 9 10 11 12 12 13 14

GFSWCAN_925_spd_084.txt.gz
Wind_Speed
19 19 19 20 14 14 13 13 14 15 14 16 16 15 14 13 12 16 9 26 10 3 5 4 3 2 5 1 2 7 6 4 4 5 3 3 3 3 3 2 2 4 4 3 3 3 6 15 8 3 4 9 7 11
19 19 20 16 15 15 15 14 14 16 16 16 15 15 13 13 12 14 5 22 25 2 4 8 16 18 13 12 2 2 1 3 3 3 1 2 2 3 2 2 5 1 3 2 4 1 7 11 11 12 11 8 10 10
20 19 19 15 15 15 15 16 16 16 17 18 16 16 16 16 14 17 10 19 12 2 6 4 11 24 22 27 20 2 2 2 1 2 3 2 2 1 1 2 3 6 6 4 4 5 9 11 11 13 13 14 13 13
21 20 16 15 15 16 17 16 17 18 17 16 19 17 20 19 16 20 16 22 14 3 2 6 6 10 9 11 22 25 5 1 1 0 2 2 2 1 1 3 3 2 8 9 3 6 8 12 10 9 13 13 15 16
23 19 16 16 16 17 17 18 18 17 16 16 17 15 13 21 20 21 20 23 23 5 3 4 11 12 10 12 15 18 13 4 0 2 2 2 2 2 2 2 3 6 4 3 3 6 7 7 9 10 13 14 14 14
21 18 18 18 18 18 18 18 17 17 16 15 14 12 14 19 21 17 1 19 28 14 2 3 5 3 3 7 10 7 6 3 2 2 2 3 3 3 2 2 2 5 9 10 4 8 11 11 11 11 14 14 15 15
19 19 19 19 19 19 18 19 18 17 15 16 11 10 11 18 28 7 3 2 31 19 2 4 4 3 2 3 2 2 5 2 3 2 2 2 3 3 2 2 4 7 7 8 9 5 8 14 7 11 14 17 20 20
19 20 21 21 20 20 19 19 19 17 17 12 10 9 11 22 19 9 2 8 27 7 2 2 4 3 1 1 1 2 3 1 2 2 2 1 1 2 3 3 5 8 6 10 11 12 11 10 13 12 14 13 13 13
21 22 24 24 23 22 21 20 19 18 17 13 10 13 15 8 4 7 10 26 14 3 3 2 2 3 0 0 1 1 1 1 2 2 1 1 2 3 4 5 6 9 7 7 8 10 10 11 11 11 10 11 12 12
23 24 26 26 26 24 21 20 21 21 16 12 16 4 2 7 28 25 5 2 1 2 2 2 2 2 2 2 2 2 1 2 2 1 3 2 2 5 5 6 5 7 8 10 2 6 7 8 9 10 11 10 12 11
25 26 27 27 25 23 22 22 23 21 19 9 3 2 7 28 5 2 3 3 2 2 4 4 5 2 2 1 2 2 2 2 2 2 1 2 2 3 5 6 6 8 9 10 9 9 11 8 7 9 10 13 13 12
26 26 26 25 26 26 26 27 28 29 14 12 15 10 7 2 2 4 5 4 4 5 3 3 3 3 2 1 3 3 3 2 2 2 2 2 1 7 6 6 7 8 10 10 11 11 12 13 12 13 12 12 12 13
23 22 25 28 28 29 29 32 34 25 34 15 5 4 3 3 4 6 8 3 3 3 4 3 3 3 1 2 2 2 2 1 2 3 2 2 5 6 6 6 7 8 9 11 11 12 13 15 16 15 15 15 16 16
14 11 10 18 24 28 31 35 43 44 10 2 4 5 4 3 4 4 3 4 3 2 5 4 2 2 2 2 1 3 2 1 1 1 4 3 5 5 5 6 5 4 7 9 10 14 15 17 16 15 15 12 13 12
27 25 27 27 22 25 41 53 40 21 5 3 3 3 3 1 1 1 2 3 1 1 3 3 2 1 1 2 0 2 1 3 4 4 2 2 5 6 6 5 5 4 6 8 10 12 12 13 15 13 11 10 11 11
28 28 22 32 39 39 34 31 21 5 4 3 5 2 2 2 0 1 2 2 2 1 2 2 2 3 0 3 2 4 5 5 3 2 2 4 3 4 5 4 8 12 12 12 12 11 11 10 10 9 7 6 5 4
16 6 19 27 25 21 17 12 6 4 4 3 1 1 2 2 2 2 2 1 2 1 2 2 3 4 2 2 1 1 3 2 2 2 2 3 6 6 8 12 13 14 13 12 12 10 10 9 8 6 6 6 5 5
13 19 19 24 25 17 8 9 4 4 5 3 3 1 2 2 1 2 2 2 1 2 2 2 2 3 4 4 2 3 2 1 2 4 3 3 11 14 15 14 14 14 12 10 9 9 8 7 4 3 5 6 6 5
20 16 14 12 9 6 3 2 3 4 2 1 2 1 2 1 2 2 2 3 3 3 3 2 4 2 2 2 3 2 4 3 5 3 2 10 17 15 14 13 12 12 10 8 7 7 6 3 2 2 1 7 10 9
18 17 15 11 6 4 4 3 4 4 3 2 2 2 2 2 1 2 4 4 3 2 4 3 2 2 3 2 2 6 4 6 7 7 3 2 11 13 13 13 11 10 9 10 9 8 8 6 4 4 4 3 2 1
12 9 9 10 7 9 4 2 3 2 3 3 2 2 2 2 2 3 3 3 3 2 1 1 2 2 6 9 13 15 12 12 3 3 4 4 9 13 11 11 12 12 11 12 10 7 3 3 1 2 3 2 2 3
9 10 5 6 4 4 4 5 4 3 3 2 2 2 2 2 1 1 1 4 2 1 2 2 4 4 5 5 10 14 17 16 14 16 16 17 4 6 9 11 11 8 8 7 6 5 3 1 1 2 2 2 4 3
9 5 4 4 4 4 1 1 3 2 4 2 2 3 2 1 1 1 3 1 1 1 3 5 8 12 13 16 18 15 15 17 12 14 14 13 11 12 11 7 7 9 7 6 5 3 2 1 2 3 3 4 6 6
4 4 3 2 3 3 2 1 2 3 3 2 3 3 1 2 1 3 2 1 2 1 3 9 13 7 11 11 4 8 13 19 18 15 15 17 13 9 9 9 7 5 4 6 4 3 3 2 3 3 3 4 5 6
4 4 3 3 2 3 3 2 2 3 2 2 3 0 2 2 2 1 4 2 1 3 2 8 8 6 4 2 7 12 15 19 16 10 7 12 16 13 10 7 6 5 3 3 3 4 6 6 6 6 5 6 6 7
5 3 3 1 0 3 3 3 3 4 3 2 2 1 2 3 2 3 2 4 3 3 3 5 5 4 3 7 5 9 11 14 17 13 6 11 12 13 12 8 5 2 1 0 1 2 4 4 4 5 6 7 8 9
3 2 2 3 2 2 3 2 2 4 3 4 3 2 3 2 2 2 1 2 2 7 18 20 20 14 11 14 15 14 14 12 7 10 11 8 5 6 6 6 7 4 2 2 2 2 2 2 3 4 5 6 7 8
2 3 3 3 4 3 4 3 3 2 0 2 3 3 4 5 3 1 1 3 20 22 19 15 14 18 21 19 19 19 17 16 17 15 14 13 10 9 8 6 5 4 2 2 2 2 1 2 3 5 7 9 8 9
3 2 3 5 4 4 4 2 1 1 2 2 3 2 2 2 3 2 4 16 25 26 22 21 19 20 20 19 17 15 17 16 14 4 3 0 1 3 5 4 2 1 2 2 2 3 3 4 6 8 9 9 9 9
1 1 4 3 4 2 2 2 2 2 2 2 2 2 3 4 9 7 13 16 20 20 20 23 26 23 22 21 18 13 13 8 2 2 4 4 5 8 7 3 1 3 2 2 3 4 4 5 7 7 7 8 9 11
1 3 4 3 2 2 2 2 3 3 3 3 2 3 2 1 6 14 9 10 18 22 24 21 16 17 19 19 17 13 6 4 3 3 3 5 8 7 3 1 1 1 2 4 3 4 5 7 8 10 11 12 13 14
3 2 4 4 1 2 3 2 2 3 3 4 3 2 3 3 3 6 5 8 16 17 18 18 19 16 12 10 8 6 4 11 10 9 8 7 5 5 4 3 1 2 4 5 5 6 7 9 11 12 13 14 14 14
3 2 3 3 2 1 2 4 4 2 3 2 2 2 1 3 3 2 2 4 8 14 17 15 14 13 11 8 8 11 13 11 9 7 6 5 4 3 1 1 2 3 4 5 6 8 9 10 11 12 13 15 16 17

GFSWCAN_925_spd_090.txt.gz
Wind_Speed
19 16 16 16 16 16 16 15 13 17 14 12 11 11 10 9 9 15 5 15 8 2 8 8 10 9 7 5 6 10 6 8 7 7 5 3 3 4 3 4 4 3 3 2 2 3 2 19 5 6 6 6 7 10
17 16 16 16 17 15 17 16 14 14 14 13 12 12 11 10 11 14 4 9 17 2 6 6 13 18 16 13 7 5 5 4 3 4 5 4 2 2 4 2 6 2 5 4 5 3 6 8 10 8 10 9 9 8
17 16 17 16 16 17 15 15 15 13 13 13 13 11 10 11 12 16 6 9 8 2 6 10 2 2 6 14 13 4 1 4 3 6 3 3 3 4 3 4 2 3 10 2 4 7 9 10 10 12 12 11 10 10
19 16 16 16 16 14 15 17 15 13 14 12 12 11 11 12 13 16 8 12 5 3 3 0 1 5 4 7 14 18 12 9 8 6 3 3 2 1 3 3 4 4 7 5 5 9 5 11 11 9 11 10 11 11
17 16 16 16 15 15 17 14 14 16 13 11 11 12 12 11 13 15 12 13 11 5 3 5 12 1 1 7 11 10 9 6 3 3 2 2 1 2 2 1 4 5 4 4 3 3 7 7 9 9 10 10 10 10
20 19 19 19 15 17 16 14 14 16 12 12 12 13 12 13 14 12 1 15 16 7 3 3 3 1 1 3 7 7 6 4 2 2 3 3 3 2 0 2 3 5 6 8 4 11 11 9 9 11 10 10 11 11
20 19 19 20 18 18 15 14 15 13 12 12 12 12 11 8 29 7 2 1 21 12 2 3 2 2 0 2 3 4 4 2 3 2 2 3 2 2 2 2 5 6 8 9 9 9 9 6 5 7 9 10 12 14
20 21 20 21 20 17 16 16 13 12 12 11 11 10 7 22 14 5 1 9 21 4 2 2 3 2 3 1 2 2 2 3 4 2 2 2 2 1 2 5 5 4 7 9 10 10 9 8 7 7 8 9 10 11
19 20 21 21 22 18 17 15 14 12 12 11 10 7 17 8 4 7 15 18 11 2 2 2 2 1 1 1 1 3 2 3 1 2 2 1 0 2 4 6 5 5 3 6 7 7 7 7 7 7 8 9 11 11
18 20 24 23 21 19 19 16 14 13 13 12 12 3 2 6 24 25 5 2 1 2 2 3 3 2 3 2 2 1 2 2 2 3 3 1 3 5 5 5 4 4 3 6 6 6 6 7 7 8 9 10 11 11
18 22 21 20 19 19 19 17 14 13 12 7 3 2 13 33 6 2 3 3 4 3 4 4 7 3 3 3 3 3 1 2 2 3 2 2 3 4 6 5 5 5 7 8 9 7 7 8 8 9 9 11 12 13
21 21 20 19 19 19 19 17 14 14 7 11 11 12 7 2 2 3 5 3 5 4 5 4 5 6 2 1 2 3 2 2 2 2 2 2 3 9 7 7 6 6 8 9 10 11 11 12 12 12 12 13 12 11
21 20 20 21 21 21 20 18 20 15 23 7 3 3 3 3 5 7 8 4 4 4 5 5 4 5 2 3 2 2 4 1 1 2 1 3 8 8 8 7 7 8 10 12 13 14 15 15 14 14 14 11 11 11
21 21 21 22 22 22 21 22 23 26 8 2 4 6 5 4 5 5 5 3 2 3 7 7 4 3 2 4 2 3 1 2 2 3 1 5 10 9 7 7 9 9 11 12 13 13 14 14 13 11 11 9 9 9
21 22 22 23 24 26 24 24 31 16 3 3 3 5 7 1 1 2 3 4 2 6 7 5 2 2 2 2 1 1 3 3 3 1 3 8 11 10 9 9 10 9 11 12 12 12 12 10 10 10 9 8 9 9
25 22 32 32 30 29 25 25 17 4 3 1 1 3 2 4 3 3 3 4 1 5 4 2 3 3 3 2 3 5 2 4 2 3 7 10 10 9 10 10 12 13 13 13 12 11 10 9 9 9 7 6 6 5
20 7 23 28 33 30 30 13 4 3 3 3 2 0 1 1 4 3 2 4 1 4 2 2 4 2 2 2 3 3 2 2 5 7 7 10 11 11 13 14 14 14 13 12 12 10 9 8 8 7 6 5 4 3
8 7 23 35 38 30 8 5 3 3 3 2 3 3 1 2 4 3 2 2 2 2 2 1 2 3 3 2 2 3 3 4 6 7 7 9 14 15 15 15 14 14 13 12 11 10 8 6 4 3 2 1 1 1
23 19 32 40 29 10 3 3 1 4 3 3 4 3 2 4 3 3 2 3 4 3 4 2 2 2 1 1 2 5 8 6 8 7 7 12 14 14 15 14 13 13 11 9 7 5 4 3 3 2 2 2 4 3
27 24 25 23 15 5 4 3 3 4 3 4 3 4 3 3 2 3 3 2 2 2 1 2 0 1 1 2 2 7 8 9 10 10 8 8 13 14 14 13 11 11 9 7 5 4 4 2 1 1 2 3 4 2
18 13 11 10 5 7 4 3 3 2 4 3 5 3 3 3 2 2 2 1 1 1 2 1 2 3 2 5 11 15 15 15 8 7 10 9 13 12 12 10 10 7 5 5 4 3 3 3 2 2 3 2 1 2
7 7 5 6 4 4 4 4 5 4 3 4 4 3 3 3 3 2 1 1 2 2 1 2 4 6 6 8 13 14 16 15 13 16 15 17 9 10 10 10 9 7 6 5 5 5 4 3 2 2 2 2 3 3
7 5 5 5 5 4 4 1 3 2 4 4 3 3 2 2 2 2 2 1 2 1 3 7 9 9 13 14 15 15 14 14 14 14 15 12 11 10 10 8 6 6 6 5 5 4 4 4 2 2 2 2 3 4
5 4 3 3 3 4 3 2 3 3 4 2 3 4 3 2 3 2 2 3 3 7 6 11 14 10 13 14 8 11 10 13 15 13 12 13 11 8 7 7 6 4 3 5 5 4 3 3 3 4 4 4 5 5
4 5 3 4 2 4 4 4 3 3 3 3 4 3 4 3 3 4 3 4 7 7 8 12 12 10 9 8 10 10 10 13 14 12 9 9 11 10 7 6 5 4 4 4 3 3 3 3 4 5 5 5 6 7
5 3 2 2 3 2 4 4 4 4 4 4 3 4 3 3 4 3 2 5 6 8 9 10 9 8 8 12 8 12 10 10 13 12 9 9 8 8 8 7 6 4 4 2 3 3 3 3 2 2 3 4 6 6
4 2 3 3 1 4 3 3 2 2 3 4 5 5 4 4 4 2 2 3 4 10 13 13 14 13 12 14 13 12 11 9 8 9 11 8 6 5 4 4 4 3 5 4 2 1 2 2 1 1 2 3 5 5
3 2 3 2 4 3 3 2 2 2 2 1 4 5 4 0 2 2 2 2 7 14 13 11 10 13 16 16 16 16 14 14 14 14 13 9 6 5 5 5 6 6 4 3 2 2 1 1 1 3 4 5 6 6
3 2 2 4 3 4 3 2 2 2 2 1 2 2 2 2 3 2 2 5 10 14 15 14 13 15 17 16 13 12 14 13 11 8 6 4 5 3 6 6 5 4 3 2 2 1 0 0 2 3 4 6 7 7
2 2 3 3 3 2 2 2 2 2 3 3 2 3 3 2 5 4 3 7 10 11 12 15 17 15 16 15 14 10 11 7 5 3 3 3 4 9 10 6 4 3 3 2 2 1 1 2 4 5 5 6 7 8
1 2 3 3 3 3 3 3 3 2 2 3 3 3 4 3 3 7 6 4 8 12 16 15 12 12 14 14 13 12 7 6 5 5 5 7 10 11 8 6 6 5 3 2 1 0 2 3 4 5 6 7 8 9
2 2 3 3 3 3 1 1 2 2 2 2 2 2 2 2 3 2 3 3 8 10 8 11 14 11 11 12 11 9 6 10 10 11 11 11 11 10 9 7 5 3 2 1 1 2 3 4 5 6 8 9 10 11
3 2 2 4 4 4 3 2 2 3 2 2 2 1 2 2 3 2 2 4 2 8 12 12 15 18 16 13 12 14 15 15 14 12 12 11 11 9 7 5 4 3 2 2 3 4 5 6 6 7 8 10 11 12

GFSWCAN_925_spd_093.txt.gz
Wind_Speed
22 21 20 19 20 18 17 16 17 15 17 14 12 12 12 10 9 12 3 8 4 3 9 7 7 9 9 8 7 13 5 9 6 8 5 5 4 4 1 7 4 6 5 3 2 3 4 21 7 7 7 5 7 10
21 20 18 17 19 16 17 16 16 13 18 14 13 13 11 10 10 12 4 7 8 2 7 17 19 17 15 14 8 5 2 6 5 5 6 4 4 5 4 2 9 3 6 4 5 4 6 10 10 9 9 8 10 10
24 20 18 18 17 17 17 16 14 15 16 15 13 12 12 11 11 14 6 11 4 2 7 7 1 4 3 8 10 4 3 5 2 4 4 3 3 6 6 5 1 4 11 4 5 7 8 9 10 11 10 10 11 11
22 20 17 18 16 18 16 16 15 16 14 14 13 12 11 11 12 15 9 9 5 4 3 1 3 7 3 6 9 11 10 10 7 5 3 3 3 7 4 4 5 4 7 5 6 8 8 12 10 8 9 10 11 11
21 21 19 17 17 17 17 18 18 15 13 13 13 12 11 11 11 14 10 9 9 4 4 7 11 1 2 5 7 9 8 6 3 3 2 2 1 2 2 0 4 6 5 4 4 4 9 8 8 9 10 11 10 10
24 21 19 19 17 17 17 18 16 14 15 12 11 10 10 12 10 9 1 12 14 6 3 3 2 3 3 4 5 6 5 3 1 3 3 3 3 4 3 3 3 7 6 5 4 11 12 10 10 11 11 10 11 10
25 22 19 18 19 17 20 18 14 15 16 12 11 11 13 12 14 5 1 2 15 11 3 3 2 4 3 3 4 4 4 3 2 3 2 3 2 3 2 3 7 6 7 8 6 6 9 9 6 8 10 10 10 11
24 23 19 19 21 18 20 16 15 16 14 11 11 12 13 17 22 10 2 6 17 4 1 2 4 3 3 2 1 2 1 1 3 3 2 2 2 1 2 6 5 6 8 8 8 9 10 9 7 7 8 9 9 9
23 22 20 19 22 21 18 16 16 14 12 10 9 7 8 5 4 6 9 16 5 2 2 2 3 2 2 2 1 4 3 3 1 2 1 2 2 3 4 6 5 4 2 5 3 6 7 7 7 7 8 8 9 9
22 21 23 22 22 21 17 17 15 13 11 9 7 2 3 6 20 21 5 2 2 2 3 4 5 3 4 0 2 2 2 2 2 2 2 2 3 5 6 6 2 3 2 4 5 5 5 6 7 8 8 10 10 10
19 19 21 22 21 21 19 18 15 12 10 6 4 1 11 34 5 2 3 4 4 3 4 4 7 5 3 2 2 1 2 2 3 3 2 2 3 5 7 6 4 4 5 5 6 6 7 8 8 8 9 11 11 11
19 19 19 23 23 20 19 18 17 15 8 10 9 8 7 3 2 4 5 4 5 4 5 4 4 4 1 1 1 2 2 2 3 2 2 2 4 10 8 7 6 6 8 9 9 10 11 11 11 12 12 12 11 10
20 21 23 22 20 19 18 19 19 20 10 12 5 4 3 3 6 6 8 4 4 4 4 4 3 4 3 3 2 2 3 2 2 2 1 3 9 8 8 8 7 9 10 12 12 13 14 14 13 13 12 10 9 9
21 23 22 20 20 19 19 21 18 16 6 3 3 6 5 5 5 4 5 3 3 3 6 5 4 2 2 4 2 3 1 2 2 2 2 5 10 9 8 8 9 9 11 12 13 13 13 12 12 11 9 7 7 8
24 21 20 20 20 21 21 21 17 15 4 3 3 5 6 1 2 3 3 3 2 6 6 3 2 3 2 3 3 1 2 3 3 2 3 8 11 10 9 9 10 9 11 12 12 12 12 10 10 9 7 7 7 6
21 18 22 22 22 21 19 18 14 6 2 2 2 2 2 3 3 3 4 3 2 5 5 2 2 2 4 2 3 4 2 3 3 3 6 10 11 10 10 11 13 13 13 13 12 11 10 8 7 7 5 4 4 3
23 16 19 27 23 20 18 8 5 3 3 4 2 1 2 1 2 3 1 3 4 6 2 3 4 2 1 2 2 2 1 3 5 7 7 10 11 11 14 15 14 14 14 12 11 9 8 7 7 5 4 3 3 1
19 20 25 25 31 19 6 3 3 2 2 2 3 4 3 2 2 3 1 2 4 3 2 1 0 3 3 2 2 3 3 5 6 7 7 9 15 16 16 16 15 14 12 11 10 9 8 7 7 4 2 2 3 3
22 24 26 36 35 9 3 2 1 3 2 2 3 3 3 3 2 3 1 2 1 4 1 1 1 2 1 2 2 5 7 8 8 8 8 14 16 16 16 15 14 12 11 11 10 9 6 1 2 2 2 2 5 4
16 30 47 44 24 4 4 3 3 3 3 3 3 5 4 3 3 2 2 2 3 2 3 3 1 2 2 2 1 6 7 8 9 10 9 9 14 16 15 15 13 13 11 8 5 4 4 3 1 1 3 4 5 5
30 25 24 25 5 5 2 3 3 3 4 3 4 5 3 4 3 3 3 3 3 2 2 1 3 3 3 4 9 13 14 15 8 8 10 10 16 15 15 11 12 10 8 6 5 4 2 2 1 1 3 3 4 5
8 12 8 7 4 3 3 1 5 5 3 5 5 4 3 4 4 3 3 4 2 2 1 2 4 6 6 8 11 13 15 13 13 17 17 19 9 12 12 12 10 8 6 5 4 3 3 1 1 2 3 4 5 6
11 5 5 4 4 3 4 2 3 3 4 6 4 4 3 3 3 3 3 2 2 2 4 6 9 10 14 14 14 14 14 15 15 16 17 14 13 12 11 10 7 7 5 4 3 3 2 1 1 3 4 5 6 7
6 4 2 3 3 4 4 2 3 4 4 5 4 4 4 3 4 3 3 4 3 7 6 10 13 10 13 14 8 12 13 14 16 15 13 14 12 11 10 8 6 4 2 3 4 3 2 3 3 5 6 7 8 8
3 4 2 4 3 5 5 6 4 4 4 5 6 3 4 4 4 4 3 4 6 6 7 12 11 9 8 8 12 12 9 14 14 13 11 10 11 10 9 7 5 4 4 4 3 4 4 4 5 6 6 7 8 9
4 3 2 2 4 3 5 5 6 6 4 4 4 4 3 4 4 3 2 3 5 7 8 8 8 8 8 13 10 13 13 12 14 12 10 10 9 8 8 7 6 4 3 2 3 4 4 4 4 4 5 5 5 6
3 3 2 2 1 4 3 2 3 3 4 5 5 6 5 5 5 3 2 3 3 11 13 11 11 12 12 15 16 15 13 10 10 14 13 11 9 6 5 4 3 5 4 3 2 2 3 3 3 3 4 5 6 6
3 1 4 3 3 2 3 2 3 3 3 1 6 5 4 1 3 2 3 1 4 11 11 9 9 14 17 16 17 16 14 15 16 16 14 12 8 7 7 6 5 7 5 4 2 2 1 1 2 3 5 6 7 7
3 2 3 3 3 3 2 2 2 2 2 2 3 3 3 3 2 2 4 5 10 13 13 14 16 18 18 16 14 13 15 13 13 10 8 5 7 5 6 6 5 4 3 3 2 2 1 1 2 3 4 6 7 8
3 1 3 3 2 2 3 3 2 3 2 3 3 3 4 3 3 0 4 7 11 13 14 15 17 17 17 17 16 13 9 7 6 6 5 4 6 10 8 6 5 4 3 3 2 1 1 2 4 5 6 8 9 10
1 2 3 3 3 3 4 5 6 5 2 3 2 4 5 4 5 5 6 5 10 14 16 16 14 14 15 15 14 14 10 6 8 8 9 10 11 10 8 7 5 4 3 2 1 1 2 4 5 6 7 9 10 11
2 2 3 3 3 4 4 2 2 2 2 3 2 3 3 4 3 3 2 2 8 10 12 14 15 14 13 13 11 10 12 13 11 11 11 11 10 9 8 7 6 4 3 2 1 2 3 4 6 7 9 10 11 12
3 3 4 4 4 5 3 3 2 3 3 3 3 2 3 2 3 3 3 5 5 11 13 15 15 14 14 14 14 15 15 14 14 13 13 12 11 10 8 6 5 3 2 1 2 3 4 6 7 8 9 10 12 13

GFSWCAN_925_spd_096.txt.gz
Wind_Speed
21 21 23 22 22 19 17 16 16 15 16 12 11 11 9 6 6 7 2 1 3 3 8 7 8 9 9 8 7 13 7 7 6 7 6 5 4 6 4 11 7 8 6 6 7 5 4 23 9 7 5 7 9 10
23 23 22 21 18 17 17 17 16 14 15 13 12 11 10 8 6 7 2 2 1 2 6 17 18 16 13 9 6 6 2 8 5 5 6 4 4 5 10 3 12 5 5 3 6 4 8 11 11 10 10 9 11 10
23 21 19 17 17 16 15 17 17 12 15 14 12 10 9 9 8 8 2 4 1 2 7 7 3 6 3 4 4 3 4 7 6 5 3 3 3 7 6 5 3 4 12 3 6 8 10 11 11 11 10 10 11 11
21 20 17 15 16 16 17 15 13 13 15 14 11 9 9 9 9 9 7 6 5 3 3 1 3 2 2 4 4 6 7 8 7 5 2 3 3 7 4 3 5 4 8 7 7 9 10 12 10 9 9 9 11 11
22 20 17 19 16 16 15 14 14 14 14 12 10 9 9 9 8 8 11 8 8 2 3 6 15 3 1 3 4 5 6 5 5 4 2 2 2 4 2 2 5 5 4 4 4 5 9 7 8 8 9 10 12 11
24 21 18 19 15 16 16 15 16 14 11 10 10 10 9 8 7 4 2 10 12 5 3 3 6 7 5 4 5 4 6 2 1 2 3 2 1 4 3 3 4 5 5 5 4 10 13 9 8 10 10 11 12 12
23 21 18 18 16 15 14 16 17 14 12 11 9 9 8 8 10 4 2 4 10 8 2 3 3 1 3 4 4 3 3 3 2 3 2 3 2 4 2 3 6 5 5 6 7 9 8 2 6 9 12 14 15 16
23 22 18 17 16 17 16 18 15 12 12 12 8 7 7 7 7 7 6 4 10 5 3 2 4 3 6 2 2 1 2 1 2 3 2 2 2 2 2 5 7 6 6 7 7 8 10 10 9 10 12 13 11 11
23 23 20 17 17 18 18 18 14 13 13 10 7 6 5 3 4 5 9 9 6 3 2 3 3 2 3 3 2 2 2 3 3 2 2 1 2 3 4 7 5 3 3 3 6 8 9 9 10 10 10 11 11 10
22 22 20 18 18 18 19 15 16 14 12 10 8 4 2 5 18 19 4 2 2 2 3 4 5 5 2 1 2 3 2 2 2 4 2 1 2 6 5 7 4 3 7 5 5 6 7 9 9 10 11 12 12 12
22 22 20 18 19 20 18 17 17 14 11 5 3 2 7 23 3 3 3 3 4 3 4 3 6 6 2 2 2 2 1 1 2 2 2 3 3 6 7 6 5 5 7 7 9 10 12 11 9 10 11 14 13 12
19 18 19 19 22 21 18 19 18 14 6 8 7 6 6 2 2 4 5 3 4 4 5 3 3 4 0 1 1 1 2 2 2 1 2 2 4 10 9 8 7 9 10 11 13 14 15 14 14 14 13 12 11 10
19 18 19 22 21 21 18 19 18 13 8 8 4 4 3 3 5 5 8 4 4 4 3 3 1 1 3 2 1 1 2 3 1 2 0 3 9 8 9 8 8 11 12 14 15 17 18 18 17 14 13 11 10 10
19 19 18 21 22 21 18 18 18 14 4 2 4 6 4 4 5 4 3 3 1 3 4 3 3 2 1 3 1 3 2 2 2 3 2 5 9 8 8 8 10 10 13 15 15 16 15 13 13 13 11 10 9 9
19 19 20 22 22 19 17 16 15 9 2 3 3 5 7 1 4 3 3 3 2 4 5 3 2 2 2 2 3 3 2 3 2 2 3 8 10 9 9 10 10 9 11 12 12 12 12 11 11 10 8 7 7 7
20 18 19 20 19 17 17 15 9 6 3 3 3 1 2 3 3 1 2 3 2 4 4 1 1 2 3 2 3 3 2 2 2 3 6 9 10 8 9 9 12 13 13 13 12 11 11 10 9 9 7 6 5 3
24 8 18 20 18 18 17 12 3 4 3 3 2 1 1 2 3 2 2 2 4 4 1 2 4 3 1 2 2 2 1 3 5 6 6 9 9 10 12 13 13 14 14 13 12 11 9 8 9 6 7 6 5 6
15 17 18 24 22 19 10 6 3 4 4 1 3 4 2 2 2 3 2 2 3 2 1 2 2 2 3 2 2 3 3 5 6 6 7 8 13 15 15 15 14 15 14 12 11 10 9 7 7 8 3 5 5 7
20 19 21 28 22 7 3 5 4 3 1 2 3 2 2 2 2 3 2 0 4 2 4 2 1 3 0 2 2 5 6 6 7 7 7 14 15 15 16 16 15 13 13 12 11 8 7 4 1 3 2 2 4 4
20 22 22 27 24 3 3 3 5 3 3 4 4 4 2 2 3 2 1 2 1 0 2 3 1 2 3 1 2 5 6 8 9 8 8 8 14 16 16 16 14 14 12 10 7 5 5 5 3 1 2 3 3 5
24 28 23 29 11 3 3 4 4 3 3 2 4 4 3 3 3 4 3 2 2 3 3 2 3 4 2 2 7 11 13 14 7 7 9 8 15 15 15 13 15 13 11 10 9 7 2 1 3 2 1 2 2 3
8 32 12 13 3 3 2 2 4 5 3 4 4 4 3 3 3 3 4 3 3 1 2 2 5 5 5 6 9 12 13 12 12 17 17 19 9 12 12 13 12 9 7 7 5 5 4 2 3 1 1 2 3 4
17 12 6 4 4 2 2 3 3 5 4 6 5 4 2 3 2 4 4 3 1 3 4 5 10 9 11 11 13 13 13 15 12 14 17 14 15 14 13 11 8 9 7 6 3 4 3 4 2 1 3 4 5 7
9 3 3 4 3 4 3 3 3 3 4 4 5 5 4 3 4 4 3 4 3 7 6 9 13 8 11 11 7 11 12 13 16 14 13 14 12 12 11 10 8 6 3 7 6 4 4 2 2 3 4 5 6 8
2 2 2 4 3 5 5 6 5 4 5 5 6 4 4 4 4 4 3 4 6 6 6 10 10 8 7 6 10 11 12 17 13 10 13 13 13 13 11 9 7 6 4 5 5 4 4 3 1 4 5 6 8 8
3 1 1 4 5 5 7 5 8 6 4 4 4 4 4 4 4 4 1 2 4 5 6 6 6 7 7 12 8 10 13 16 17 12 11 12 11 11 10 9 8 6 4 2 1 2 2 1 1 3 4 5 4 4
3 3 2 1 1 4 3 2 4 3 5 5 5 7 5 4 6 3 3 5 2 10 9 7 8 9 11 15 15 13 12 14 14 15 14 12 11 9 9 7 8 9 7 4 3 2 0 0 1 2 4 5 5 6
3 1 5 4 3 2 2 3 5 5 3 2 7 6 5 1 3 2 3 2 2 10 8 6 8 14 19 21 19 19 18 24 24 20 17 13 9 8 8 10 11 12 8 7 4 4 3 2 1 2 4 5 6 7
2 2 4 4 3 2 1 1 2 3 2 2 2 3 2 3 3 3 3 1 8 13 14 16 18 22 22 20 17 14 14 14 15 11 9 6 9 7 7 9 9 7 5 4 5 4 3 3 0 1 3 5 6 9
3 1 3 2 2 2 3 3 2 3 2 3 3 4 3 3 3 0 2 5 7 10 12 14 14 16 17 17 16 13 9 7 8 8 6 6 10 14 11 9 7 7 6 5 4 2 4 3 3 6 6 7 9 10
2 2 3 2 3 3 4 4 4 3 1 1 2 5 5 3 2 6 6 7 9 17 16 14 13 14 15 15 15 14 10 6 10 12 14 16 17 14 12 10 8 7 6 5 4 3 2 3 5 6 7 9 10 11
1 2 3 3 3 4 4 4 4 2 3 3 3 3 4 4 3 2 2 6 5 12 14 15 16 14 14 16 13 11 15 16 15 15 16 17 15 13 12 11 9 7 6 5 4 3 4 5 6 7 8 10 11 13
3 3 4 4 4 6 3 4 4 3 3 3 3 5 1 2 3 2 2 5 5 14 14 19 19 18 18 17 18 20 19 19 17 17 16 16 15 14 12 10 8 7 6 5 4 4 5 6 6 8 9 11 12 13

GFSWCAN_925_spd_099.txt.gz
Wind_Speed
27 22 20 28 27 23 19 15 16 14 14 14 12 9 8 7 6 6 4 5 3 1 5 3 5 3 5 4 2 6 6 5 4 7 4 3 2 4 2 10 4 7 5 5 4 5 2 21 6 6 5 11 10 11
25 20 21 26 25 21 17 17 15 16 16 12 11 11 9 7 6 7 4 3 1 1 4 12 19 16 10 7 0 4 2 3 1 3 3 3 2 3 8 3 8 5 5 3 5 4 6 10 12 11 10 9 11 10
23 25 24 24 22 17 14 14 16 15 15 13 12 12 10 7 5 6 3 2 4 1 4 3 2 7 8 8 3 2 2 4 4 1 2 2 3 3 4 3 3 7 10 4 2 7 10 10 11 11 9 10 10 10
25 24 23 20 17 17 15 16 16 13 15 13 12 11 9 7 6 6 3 1 2 4 0 4 6 1 1 4 4 5 3 6 3 2 2 1 2 4 2 2 3 3 6 6 6 9 10 9 8 8 9 10 11 9
22 21 19 18 19 16 17 17 16 14 17 14 11 9 8 7 5 4 5 8 6 3 2 4 17 13 6 4 5 6 5 3 1 3 2 1 1 3 1 3 3 4 3 3 2 5 7 5 6 7 8 10 9 8
21 20 19 20 18 19 19 17 16 16 15 13 11 9 7 7 5 3 2 4 9 3 2 3 6 4 9 6 7 6 7 3 1 1 3 2 1 2 2 2 3 3 4 2 4 7 11 8 8 10 9 9 11 11
23 20 20 18 15 18 17 16 17 16 12 11 10 10 8 6 7 1 1 2 3 6 1 3 4 4 5 6 3 1 2 1 2 2 2 1 2 3 2 2 5 5 5 7 9 12 8 2 6 11 12 13 15 16
25 21 19 18 16 18 17 18 17 15 13 11 10 8 6 6 4 2 5 2 7 2 2 1 3 3 4 1 1 0 1 2 2 2 3 1 1 2 3 6 6 4 5 7 7 7 8 10 12 12 13 13 10 9
26 22 18 17 17 18 19 20 17 14 15 12 9 9 6 2 2 3 7 6 6 1 1 2 2 2 4 1 1 3 2 1 3 2 2 3 2 3 3 7 5 4 3 5 7 10 9 9 11 11 10 10 10 10
21 21 18 16 16 17 20 18 15 16 17 13 7 3 1 4 5 14 4 1 1 2 3 2 1 2 1 1 2 2 2 3 2 4 1 3 2 4 7 6 5 3 5 4 8 8 11 11 11 11 11 14 14 13
21 20 18 14 18 18 21 17 19 19 14 5 3 1 1 18 5 2 2 2 2 2 3 3 4 2 2 2 2 1 1 1 1 3 1 2 2 3 7 5 2 6 8 11 14 14 15 12 11 10 11 14 13 11
22 20 17 16 19 21 19 20 21 12 7 8 7 6 5 1 1 3 3 2 3 4 2 3 3 3 2 1 2 2 1 2 2 1 0 1 3 9 8 6 7 11 15 16 18 16 17 17 17 17 13 12 12 12
22 21 18 17 21 21 18 20 20 8 10 6 2 3 2 3 3 4 5 3 2 3 2 2 1 1 2 1 1 2 1 3 0 1 1 2 9 8 8 8 8 16 19 21 19 20 21 19 17 18 17 14 14 12
19 19 20 21 23 21 19 19 17 10 4 1 3 5 3 4 4 4 3 4 3 4 4 3 1 2 1 2 1 1 3 1 2 1 2 4 9 9 8 8 11 10 15 15 15 17 19 20 18 15 14 12 12 11
19 18 22 25 23 21 18 17 13 5 2 2 2 4 4 3 3 0 1 2 2 3 3 2 2 2 1 2 2 2 1 3 4 1 2 6 9 10 11 10 10 8 11 13 18 18 18 17 16 14 10 10 9 9
18 17 16 24 22 20 17 15 7 3 2 2 3 2 0 4 1 1 1 3 2 2 2 2 2 1 2 3 3 4 1 3 1 2 5 9 10 10 9 9 13 18 18 18 17 16 16 15 14 13 10 8 7 5
19 5 20 23 22 20 19 9 4 4 2 3 1 1 1 1 2 2 2 3 3 3 1 1 2 5 0 1 2 1 1 2 5 5 5 8 11 9 12 15 17 17 18 18 17 15 14 12 12 12 10 9 8 7
9 16 26 24 23 17 8 2 2 3 4 2 1 3 2 2 1 1 0 0 2 1 1 2 1 1 3 3 1 2 2 4 5 6 6 8 13 16 17 15 17 19 19 18 17 15 13 13 11 11 10 10 10 12
17 19 26 27 22 8 4 3 2 1 1 2 1 2 2 1 1 1 2 3 2 1 1 2 1 2 1 1 2 4 5 3 5 5 6 14 17 17 17 16 17 17 19 18 16 14 13 10 6 6 5 9 4 6
16 21 28 28 20 4 3 2 4 1 2 3 2 2 1 1 1 0 1 1 1 1 1 2 3 1 1 1 0 5 5 7 8 7 6 6 14 16 16 16 13 19 17 15 13 10 10 11 6 5 3 1 3 5
18 20 25 23 5 3 2 2 3 3 2 2 2 3 2 1 1 3 2 1 1 2 3 1 2 1 4 2 11 14 14 15 6 4 7 8 15 15 16 17 19 18 15 16 14 10 8 7 13 8 5 4 4 1
8 17 8 9 2 2 2 3 2 4 2 2 3 2 2 2 3 3 2 1 3 3 3 3 3 3 2 3 10 16 18 17 16 18 18 19 9 12 13 16 19 16 17 16 14 13 9 14 10 6 4 2 1 1
16 16 4 5 3 4 2 2 2 5 4 5 3 3 2 2 2 3 2 3 2 1 3 5 11 14 10 13 15 15 14 16 14 16 18 17 18 18 17 20 16 14 13 9 12 14 12 9 6 4 2 0 1 3
16 8 5 6 4 4 2 2 2 2 2 3 4 4 4 2 2 1 3 3 1 3 4 6 13 6 7 10 3 8 17 19 18 19 20 16 13 15 19 15 12 9 11 14 12 13 10 7 4 2 1 2 2 3
4 4 4 5 3 5 4 4 3 2 3 3 4 3 2 2 3 4 4 2 3 2 2 9 8 5 3 2 8 9 18 22 15 9 17 21 21 20 17 17 15 12 12 13 12 9 9 8 6 2 1 2 4 5
4 4 4 5 4 5 5 5 6 4 3 2 2 3 2 3 4 5 1 1 2 4 6 6 6 6 3 10 5 10 16 21 23 15 16 20 22 21 16 13 11 6 6 7 10 9 10 9 6 1 1 2 3 4
4 3 2 1 1 3 2 2 3 3 4 5 4 4 4 5 6 2 1 4 1 7 12 11 12 10 10 15 17 18 20 20 21 20 20 18 16 16 18 18 15 12 9 8 8 7 7 6 5 3 1 1 3 4
2 0 4 3 3 2 3 3 4 5 4 2 5 5 6 4 2 2 1 5 4 10 9 7 8 19 23 25 25 26 27 29 28 25 22 19 15 15 15 17 16 12 9 8 7 8 7 7 6 4 1 1 4 6
2 0 3 3 2 2 3 1 2 2 2 2 2 2 2 2 3 3 5 8 8 15 15 18 19 28 26 24 23 24 28 27 23 8 6 4 6 8 12 12 11 9 8 7 7 6 5 4 4 4 4 6 6 8
2 0 3 2 3 2 1 1 1 1 2 2 3 2 2 2 3 4 3 6 8 11 14 17 18 19 18 19 17 16 13 11 13 16 7 5 12 17 14 13 13 11 9 8 9 9 8 6 5 6 6 7 8 10
2 1 3 2 2 2 2 1 2 2 2 2 3 3 3 2 2 6 6 6 1 20 18 14 16 18 18 17 17 16 12 10 10 11 14 19 20 18 15 13 14 11 10 10 8 5 5 5 5 5 7 8 9 12
1 1 3 3 2 2 2 2 3 2 1 1 2 2 2 2 2 1 4 10 13 15 14 17 15 15 18 18 16 10 13 17 17 19 20 21 20 18 16 15 13 11 11 9 7 7 6 6 5 7 8 7 9 12
1 2 3 3 2 3 2 2 2 2 2 2 2 4 1 2 3 1 2 8 3 9 19 23 22 22 20 20 20 21 23 21 18 17 17 18 19 18 16 14 13 13 10 9 8 5 5 7 6 5 7 9 11 12

GFSWCAN_925_spd_102.txt.gz
Wind_Speed
30 28 28 27 25 27 23 22 21 18 18 17 14 13 12 11 10 10 10 11 5 3 3 2 3 3 3 2 2 4 3 4 4 5 3 3 3 3 1 4 4 6 4 4 3 4 3 18 5 5 5 7 8 9
27 29 30 27 26 23 20 20 18 18 18 16 14 14 13 12 11 9 6 7 6 4 3 3 11 11 9 8 3 3 2 2 2 3 3 2 2 3 4 3 7 5 5 2 5 3 4 7 10 9 7 8 7 9
26 26 31 29 25 21 19 19 17 18 15 13 14 14 13 11 10 10 8 4 4 3 3 3 1 4 5 10 7 3 1 2 3 2 2 1 1 2 3 2 2 6 9 4 3 4 8 8 9 8 8 8 8 8
27 28 29 27 23 19 17 18 19 18 16 17 16 14 12 10 8 6 6 5 5 2 3 4 8 2 3 9 9 5 3 2 2 2 1 1 1 3 2 2 3 2 5 3 5 7 8 8 6 8 9 8 9 9
28 27 26 24 20 19 19 20 18 18 16 16 15 12 10 9 6 4 3 3 4 3 2 3 14 6 8 8 7 8 5 0 1 3 2 0 0 1 2 2 2 3 1 1 2 4 4 5 5 8 8 9 8 9
26 24 21 21 19 19 19 21 17 19 18 15 13 11 10 9 7 3 3 5 2 2 3 2 4 3 7 9 7 6 6 2 2 1 2 2 2 2 2 2 1 4 4 1 4 7 11 9 6 8 9 9 13 13
23 21 22 20 20 22 21 20 20 19 16 14 12 11 10 9 8 4 2 1 3 3 2 3 4 3 6 3 1 1 1 1 2 1 1 1 2 3 2 2 4 7 7 9 11 12 8 4 6 12 13 16 18 17
22 22 21 20 21 22 21 20 20 17 15 15 14 12 9 9 5 2 7 6 7 2 1 1 3 4 5 1 1 1 1 2 2 1 3 1 1 3 3 5 5 5 6 6 5 3 9 13 11 12 14 15 12 10
23 22 19 17 20 20 21 20 17 17 17 16 15 14 8 3 2 1 6 3 2 1 1 2 2 2 3 1 0 3 2 2 2 0 2 2 2 2 4 6 4 4 2 6 8 11 11 10 11 10 10 10 11 8
23 20 18 18 19 19 21 20 18 19 17 16 9 4 2 2 9 8 3 3 2 1 1 1 1 2 1 1 2 2 2 2 0 3 1 3 2 2 5 5 4 4 7 8 10 11 12 11 10 9 9 10 10 9
22 18 18 18 18 20 21 19 19 21 15 3 2 2 4 11 3 1 1 1 0 1 2 3 3 1 2 2 2 2 2 1 1 3 1 2 2 3 5 5 0 4 7 8 12 12 13 14 11 11 10 12 11 9
21 18 17 16 19 21 20 18 22 11 6 6 6 6 6 2 1 2 2 2 3 4 2 3 4 4 3 1 2 2 1 2 2 1 1 1 1 8 7 7 7 13 16 14 18 17 17 16 15 15 13 12 11 12
22 19 16 19 20 21 19 22 16 10 13 5 2 2 2 1 2 4 5 2 1 2 3 1 1 2 2 3 2 2 1 3 1 0 2 1 6 7 9 9 10 14 18 19 17 18 19 16 15 18 18 16 15 14
22 20 18 20 22 19 21 23 13 12 3 1 2 4 3 3 4 4 3 4 4 3 4 3 1 2 1 3 1 1 3 1 2 1 4 4 9 9 9 9 11 6 11 13 14 18 19 20 19 18 17 16 15 13
22 19 19 21 22 18 19 18 10 5 4 1 2 4 5 3 1 1 1 1 3 3 3 2 2 2 1 3 1 0 2 3 4 3 2 5 10 10 9 8 9 8 10 12 17 18 21 21 19 17 14 12 11 11
19 19 15 24 23 20 19 15 7 3 2 1 2 2 1 2 0 1 2 1 1 2 2 2 2 3 2 3 3 4 3 4 2 1 3 7 10 7 8 8 11 15 17 18 20 21 20 19 18 15 13 10 9 8
18 6 21 24 23 21 17 6 3 2 2 2 1 0 1 1 2 1 1 3 1 3 1 1 3 6 1 1 2 1 3 2 1 3 4 8 11 8 10 14 16 18 19 21 20 18 17 15 14 12 11 11 10 8
9 23 25 27 25 16 4 3 1 2 3 3 1 1 2 2 1 1 2 1 1 2 2 2 2 2 2 3 3 2 2 2 3 4 5 6 11 15 17 16 17 20 21 21 19 17 15 15 13 12 9 6 7 10
21 28 27 28 18 6 3 2 1 2 2 1 1 1 2 1 1 2 1 3 0 2 1 2 1 3 3 2 2 2 3 3 3 2 3 11 17 18 19 20 21 20 21 20 18 15 17 15 11 10 11 10 11 11
27 26 26 26 13 3 2 2 3 2 2 3 1 1 2 1 0 1 2 2 1 2 2 2 4 3 3 3 2 3 3 5 6 5 3 5 15 20 18 18 15 19 19 17 15 13 13 12 9 10 9 9 9 5
20 20 22 19 2 3 1 3 3 3 2 2 2 2 1 1 2 1 1 1 1 2 3 3 3 2 1 2 8 12 13 14 5 5 5 6 14 16 16 15 18 17 15 15 15 15 14 16 14 12 7 5 5 3
11 19 8 7 1 1 2 3 1 2 2 2 3 2 2 1 2 2 2 1 3 4 3 3 2 3 2 2 6 13 16 14 13 13 15 20 7 11 13 15 17 16 19 20 18 15 11 12 16 11 7 7 4 3
17 13 4 3 2 2 4 2 2 3 2 3 1 1 1 2 2 3 1 3 3 4 4 3 4 9 9 11 11 13 17 16 11 13 15 15 17 18 18 19 21 21 17 18 16 14 15 16 12 9 6 4 3 2
7 5 3 5 5 4 2 2 2 2 2 2 3 2 3 2 1 1 3 3 3 0 1 4 10 4 6 9 2 7 14 18 15 17 19 18 13 16 18 20 21 19 16 16 17 19 17 13 9 6 4 3 3 2
4 5 4 6 3 3 3 3 3 2 3 4 3 1 2 2 2 3 3 3 1 1 1 6 6 3 3 2 5 12 18 22 15 11 18 19 17 17 16 16 13 13 19 20 19 17 14 11 8 7 5 4 2 1
6 6 7 6 2 5 5 5 6 5 3 3 4 2 2 2 4 6 3 1 1 3 5 5 4 3 1 5 4 7 13 19 22 14 14 22 23 21 15 13 12 10 11 10 15 15 15 13 9 6 3 2 1 1
4 5 3 2 2 3 1 1 2 3 4 5 4 3 3 5 7 3 1 2 2 1 12 15 13 10 8 12 15 18 20 20 19 17 15 20 22 24 25 23 19 13 11 10 11 12 14 12 7 6 5 4 3 3
4 3 5 3 1 0 4 2 4 5 4 2 5 4 6 6 4 2 2 6 9 10 11 10 13 17 22 24 26 25 23 25 26 25 22 18 13 14 14 13 13 13 10 7 7 8 8 8 7 5 4 2 3 3
2 2 3 2 1 2 1 3 3 1 1 1 5 3 3 0 2 4 5 12 7 11 14 14 14 23 24 23 23 25 31 32 23 8 6 4 7 11 15 15 14 11 10 10 10 9 8 7 7 7 7 5 3 3
3 1 3 2 3 3 2 2 2 2 0 3 3 2 2 3 3 5 5 7 10 13 13 16 19 20 18 19 17 16 15 16 17 18 9 6 14 19 16 14 13 12 12 13 13 13 11 9 7 6 5 3 2 5
2 2 3 2 2 0 1 1 3 2 2 2 2 3 3 2 1 4 7 4 11 17 17 14 14 17 19 19 18 16 10 8 9 9 7 17 22 21 17 15 15 14 12 12 11 9 9 7 6 4 3 4 6 7
1 2 3 3 1 1 1 1 1 1 0 2 0 2 2 3 0 3 6 4 15 15 16 18 17 14 16 19 16 11 11 16 16 16 17 22 23 20 18 17 14 13 12 11 10 9 7 6 5 4 4 5 6 8
2 2 3 3 2 1 2 1 2 1 1 2 2 3 3 3 4 2 1 1 11 16 19 18 18 19 19 19 18 19 19 19 18 18 19 21 21 20 18 16 15 13 12 11 9 7 6 5 5 4 4 5 6 7

GFSWCAN_925_spd_105.txt.gz
Wind_Speed
27 27 27 27 25 28 28 27 24 24 21 20 18 18 17 15 12 13 11 11 3 3 1 2 2 3 2 2 3 2 2 3 3 3 2 2 2 3 2 3 5 5 4 4 3 3 4 15 3 3 5 7 7 6
29 28 28 27 26 26 27 25 23 23 19 18 17 16 15 14 12 12 7 9 9 5 3 1 3 5 3 6 4 1 5 2 3 2 2 2 2 3 2 2 5 4 4 2 5 3 4 6 9 9 6 8 5 8
29 27 29 28 26 25 24 22 21 22 19 18 17 17 15 13 10 14 9 5 6 3 3 4 4 3 6 6 2 3 1 2 1 2 2 1 1 1 3 2 2 4 6 3 1 4 7 7 7 9 8 8 8 7
31 28 28 25 23 22 21 21 21 19 18 18 17 16 15 15 14 13 10 10 7 3 3 3 5 1 2 6 4 2 3 2 2 2 1 1 1 3 2 2 3 2 5 4 5 5 6 7 6 7 9 9 10 10
31 29 27 22 20 20 20 22 20 19 19 18 16 15 13 12 12 13 14 12 11 5 3 2 7 6 5 8 7 3 1 2 2 2 2 1 1 1 2 2 2 2 1 2 2 6 4 3 5 6 7 7 7 8
31 30 26 22 18 21 22 21 20 19 17 16 15 13 12 10 10 3 3 9 6 5 3 2 3 3 4 6 4 3 1 2 2 1 1 2 1 2 2 1 0 2 2 1 4 4 9 8 6 7 8 9 11 11
28 27 22 21 20 21 22 20 21 19 17 15 14 13 12 10 7 6 4 3 3 3 3 2 3 3 4 2 2 1 2 1 2 1 1 1 2 3 2 3 4 6 6 11 13 15 9 7 5 9 12 12 13 11
24 23 22 21 22 24 21 21 21 18 16 16 15 14 13 12 9 8 12 8 5 4 3 2 1 2 3 1 0 1 1 2 2 1 1 1 1 2 2 3 9 8 8 8 4 2 8 13 12 10 14 12 9 7
24 23 22 24 23 24 23 22 19 18 19 18 16 15 7 4 4 3 7 5 5 3 2 2 3 2 3 1 1 2 2 1 1 1 1 2 2 1 5 9 10 8 5 8 10 13 12 11 10 9 9 8 8 7
23 22 23 23 22 23 23 19 19 21 19 18 7 4 2 2 11 6 4 3 4 3 1 1 1 1 2 1 2 2 1 1 1 2 2 2 1 1 4 6 6 6 11 12 12 11 10 10 10 10 7 7 9 8
21 19 20 22 21 21 20 20 21 21 15 3 2 2 5 9 3 2 2 1 2 2 0 2 3 1 1 2 2 1 2 0 1 2 2 2 2 3 5 6 4 7 10 10 7 8 11 13 11 10 8 10 10 10
19 19 19 20 20 21 19 21 21 7 4 5 8 7 4 2 1 1 1 1 1 2 1 3 3 3 2 1 2 1 1 2 3 1 1 2 2 7 7 6 6 6 10 11 17 15 15 14 14 14 12 12 12 13
19 18 18 19 22 20 17 20 11 9 14 4 3 2 1 1 2 3 3 1 1 1 2 1 1 1 2 3 2 2 2 3 2 1 2 1 6 7 8 7 7 9 15 17 16 16 17 16 16 17 17 16 16 14
19 16 16 19 20 19 19 15 14 9 4 1 2 3 1 2 3 3 4 3 3 2 3 2 1 2 1 3 1 3 3 1 3 1 4 2 7 8 8 7 9 6 8 12 13 17 18 19 17 16 17 16 15 13
17 15 17 19 19 19 19 14 8 5 4 2 0 2 4 3 2 2 0 1 2 2 3 2 3 2 2 3 2 2 2 2 4 4 3 3 9 9 8 6 7 7 9 11 16 17 18 20 20 18 14 12 10 10
19 15 11 20 18 20 17 11 6 3 2 1 1 1 1 1 1 1 1 2 2 2 2 2 2 2 1 3 2 4 3 4 3 2 2 5 8 7 7 7 9 14 16 17 18 20 20 18 18 16 13 11 10 7
17 5 18 21 21 19 14 4 3 2 2 3 1 1 1 0 2 1 1 1 2 3 1 1 3 5 2 1 2 3 4 2 2 1 2 6 10 7 8 11 14 16 17 18 19 19 17 15 13 13 11 12 9 7
4 20 25 26 23 14 4 4 2 2 2 1 2 2 0 1 1 1 1 1 1 2 3 2 2 1 2 3 3 3 2 2 2 2 2 5 8 12 16 15 17 18 19 20 21 19 17 16 14 12 8 8 8 7
27 29 26 24 12 4 3 1 1 1 2 0 1 1 1 1 1 1 2 3 1 2 2 1 1 3 3 3 2 3 2 2 3 2 2 6 12 17 17 18 20 19 20 21 18 16 18 16 12 11 9 7 7 4
24 24 25 16 4 2 3 1 1 1 1 3 1 1 1 1 1 1 1 2 1 1 1 2 4 3 3 3 3 3 2 5 5 3 2 2 10 17 18 18 15 18 18 17 14 15 13 11 10 7 7 8 10 6
19 17 20 8 3 5 1 2 2 2 1 1 1 1 1 1 2 1 1 1 2 2 3 3 3 3 3 2 1 6 9 11 4 4 4 4 11 13 15 15 19 17 16 16 15 15 13 14 10 10 9 7 5 4
10 16 6 1 3 2 1 3 1 1 2 1 2 2 2 1 2 2 2 1 3 4 3 3 2 3 2 2 3 7 9 11 10 11 12 19 7 10 12 16 17 15 18 20 20 18 15 12 10 13 11 6 4 3
12 7 3 2 1 0 3 2 2 2 2 3 2 1 2 1 2 1 1 3 3 3 4 4 3 4 5 5 6 8 12 14 9 10 12 11 14 17 19 21 21 21 17 18 18 14 12 10 10 13 8 5 5 4
9 3 3 4 4 3 1 2 2 2 2 2 3 2 1 2 0 1 3 3 3 2 1 3 9 3 4 6 2 6 10 13 14 13 15 16 12 13 20 20 18 17 18 16 15 13 14 15 13 10 7 7 5 3
4 4 4 4 4 3 2 1 2 2 2 2 3 2 3 2 2 3 3 3 2 1 0 2 3 2 3 1 3 10 14 17 13 9 14 16 15 15 13 12 13 14 14 13 15 17 18 15 11 8 7 4 3 3
3 5 8 6 3 6 6 5 5 5 3 3 4 1 2 3 2 6 3 2 1 2 3 4 3 2 1 4 4 6 12 14 16 11 14 19 21 18 13 10 9 8 14 16 19 19 17 14 12 9 6 4 3 3
5 6 3 2 1 2 1 1 1 3 4 5 3 3 3 4 6 4 1 2 2 4 5 12 12 7 6 10 12 13 15 16 16 14 16 17 18 19 23 22 19 15 15 12 12 13 16 16 12 8 7 7 5 2
4 2 6 3 2 1 3 2 4 6 4 3 5 4 7 7 4 2 2 4 10 1 5 7 7 7 13 17 19 20 18 18 19 19 18 14 11 13 13 9 13 13 11 10 9 10 12 12 10 9 8 7 5 3
2 2 3 2 1 1 4 5 5 2 1 3 5 4 4 2 2 2 3 9 1 7 11 11 9 12 16 18 18 20 24 25 20 7 6 4 6 10 16 17 16 14 13 13 13 12 12 11 11 10 8 7 6 4
3 2 3 2 4 5 3 3 2 2 1 3 3 2 2 3 1 3 6 2 4 6 8 10 16 19 15 18 16 15 14 14 16 16 8 5 12 22 20 18 16 14 13 15 17 17 15 13 11 10 9 6 3 1
3 2 3 2 3 2 2 1 1 1 2 2 2 3 3 2 1 1 4 3 7 9 12 13 12 15 19 17 16 14 8 8 9 10 6 15 23 24 20 17 16 16 16 16 15 14 13 12 9 8 6 4 3 4
2 3 3 3 1 1 1 1 1 1 1 2 1 2 2 3 2 3 3 2 11 11 11 15 16 12 14 15 15 11 11 14 13 12 14 22 25 23 22 20 18 17 16 14 13 12 10 9 8 6 4 3 3 4
2 2 2 2 2 2 1 2 2 1 1 1 2 3 3 4 5 2 0 1 9 14 16 15 15 16 16 14 14 15 16 17 17 16 20 23 24 23 22 19 17 15 14 14 12 10 9 7 6 4 3 2 2 3

GFSWCAN_925_spd_108.txt.gz
Wind_Speed
32 33 29 30 33 34 33 30 29 29 28 26 24 22 20 17 14 14 11 8 5 3 1 3 3 4 3 2 3 1 3 3 3 3 2 1 1 1 1 2 4 4 3 3 3 3 3 11 1 1 5 6 8 8
30 30 28 26 30 30 30 28 28 27 26 25 23 21 19 16 14 16 8 13 14 5 4 3 5 3 2 6 5 1 3 2 3 3 1 1 2 1 2 0 4 2 2 1 4 3 3 5 9 7 6 7 5 8
28 27 29 30 30 28 29 27 26 25 24 23 20 19 17 14 11 17 14 9 10 4 4 4 4 5 6 4 3 4 1 2 1 2 2 1 3 1 1 1 2 2 2 3 2 3 6 6 8 7 8 9 9 9
29 30 31 30 28 26 25 24 23 23 22 21 20 19 17 17 17 16 13 10 9 3 4 2 3 3 1 5 4 6 5 3 3 2 2 1 2 3 1 3 2 2 3 5 4 6 7 7 5 9 10 9 10 10
29 28 27 27 25 25 25 23 22 21 21 20 19 18 19 20 20 24 25 19 12 5 3 2 2 7 3 6 5 4 5 2 2 2 2 2 1 1 0 2 2 2 2 3 3 5 4 6 5 8 9 7 7 9
27 24 23 23 23 23 22 20 21 21 20 19 17 16 15 14 10 6 4 12 13 5 4 2 3 3 3 3 2 3 1 2 2 2 0 0 2 2 2 1 2 0 1 1 4 3 8 11 6 8 9 9 11 11
27 23 20 21 23 24 22 22 22 20 18 16 15 15 13 9 9 7 3 3 6 5 3 3 2 2 2 3 2 2 3 2 2 1 1 1 2 3 2 1 3 4 7 11 13 13 8 2 5 10 14 13 14 13
25 22 19 22 23 22 22 22 20 18 17 17 17 18 19 16 13 11 14 8 5 7 3 3 1 1 2 1 1 2 2 2 3 1 1 1 1 2 1 2 6 6 8 8 4 3 7 14 13 12 15 13 10 8
21 20 20 21 22 20 21 19 18 17 18 17 17 14 7 7 4 4 6 6 9 5 3 2 4 3 3 1 1 2 2 2 2 1 1 1 1 2 5 11 10 10 6 6 8 11 12 12 11 10 9 8 8 7
22 22 22 22 21 22 21 18 18 19 18 15 4 5 3 3 9 3 1 3 4 3 3 2 1 2 2 1 1 2 2 1 0 0 2 2 1 1 2 6 6 7 10 12 12 10 11 10 10 10 8 8 8 8
23 23 22 21 20 20 18 19 19 18 10 3 3 2 4 4 2 2 2 3 2 3 1 1 2 2 2 3 2 0 1 1 1 2 1 2 2 2 5 6 6 8 13 9 4 7 10 11 11 9 8 9 11 11
19 20 20 21 19 18 18 18 16 5 4 5 11 6 3 2 1 3 2 1 1 1 1 3 2 2 0 1 2 0 2 1 2 1 0 2 1 7 9 7 6 11 10 7 12 12 14 14 15 14 11 11 13 13
19 19 17 18 18 17 17 15 6 13 14 5 4 2 1 2 3 3 2 1 1 2 2 1 1 1 2 3 2 2 3 3 2 1 2 2 5 6 7 6 7 8 12 14 13 14 16 15 15 17 16 15 17 15
18 19 19 19 17 15 16 10 9 6 6 2 2 3 2 1 2 3 3 3 3 2 2 2 2 2 1 3 1 3 3 2 3 1 4 2 6 7 6 6 8 7 9 12 13 16 17 18 16 17 19 19 18 16
15 15 17 16 18 16 13 10 6 6 4 3 2 2 1 2 2 2 2 1 1 2 2 2 3 2 3 2 1 2 3 2 4 4 3 2 7 8 7 5 7 7 8 10 15 16 19 20 21 19 17 15 13 13
19 15 13 19 18 16 11 8 7 4 2 2 2 2 1 1 1 2 2 2 1 2 1 3 2 2 1 3 1 3 3 3 4 2 2 3 6 6 7 6 8 12 14 16 18 21 22 22 22 20 16 12 10 9
9 5 18 20 18 14 8 3 3 3 2 3 2 2 1 1 1 1 1 1 1 2 2 2 3 4 2 1 2 4 4 3 3 1 2 5 7 7 7 11 13 16 17 19 20 20 21 19 19 17 13 12 10 7
8 21 21 18 17 11 4 5 2 2 3 1 2 2 2 1 1 1 1 2 2 2 3 2 3 2 3 3 3 3 2 0 1 1 2 4 8 13 15 14 17 18 19 20 22 21 21 20 17 14 11 11 8 7
23 24 21 18 6 3 3 3 2 2 0 0 1 1 1 1 1 0 1 3 2 2 3 2 1 3 3 3 3 2 2 3 3 1 1 5 11 15 17 18 20 19 20 22 20 18 20 17 15 14 12 10 8 7
26 24 19 7 2 3 3 2 2 0 1 2 1 1 1 1 2 1 1 2 1 1 1 2 4 3 3 3 3 3 2 4 5 3 1 1 9 16 17 18 15 19 18 17 16 18 16 13 10 10 10 8 8 6
18 15 9 3 4 7 2 2 1 1 0 1 1 1 1 1 2 2 2 2 2 2 3 3 3 3 3 1 1 4 8 9 3 3 4 4 9 14 15 15 19 17 15 15 15 17 17 17 14 9 8 8 7 4
7 12 5 5 5 3 1 1 1 1 1 1 2 1 1 1 1 2 1 1 3 3 3 3 2 2 2 2 3 4 7 10 9 9 11 17 5 7 10 15 16 13 16 19 19 20 18 15 11 10 10 9 7 4
10 5 3 3 3 2 3 1 1 1 2 2 1 1 2 1 2 1 0 3 3 2 1 2 2 2 4 6 7 7 9 13 9 10 12 11 14 15 17 18 19 19 15 18 19 17 15 11 10 11 12 9 6 4
5 2 3 2 2 2 2 1 2 2 2 2 2 2 2 1 1 2 3 3 3 3 1 1 5 3 4 4 2 5 7 11 12 12 13 15 10 10 16 18 18 18 20 19 17 15 11 10 13 15 11 6 5 4
4 3 4 2 2 2 1 2 1 2 2 3 2 2 2 1 1 2 3 3 2 2 2 2 3 2 2 2 2 6 10 15 12 6 11 14 15 14 12 13 13 13 14 18 16 14 15 16 15 11 8 7 7 6
1 4 7 6 4 5 5 4 4 5 3 1 4 1 2 2 2 5 3 1 1 1 2 2 3 2 1 3 3 5 9 11 12 9 11 14 17 16 12 9 8 10 15 14 16 18 20 17 14 12 11 8 6 7
4 5 3 2 2 2 2 1 1 3 4 4 3 2 3 3 6 4 1 1 1 3 8 6 6 5 4 6 7 9 12 12 8 9 13 12 12 16 19 19 17 12 13 12 14 18 20 18 16 13 10 9 8 5
4 2 4 3 3 1 4 2 4 6 4 2 4 4 6 7 4 2 3 2 7 5 2 3 3 4 7 11 14 18 16 16 17 20 18 14 11 11 11 9 11 14 14 13 12 12 14 15 14 12 11 10 9 6
3 2 3 2 1 3 4 5 4 2 1 3 5 3 4 1 2 1 1 6 3 1 5 8 8 10 13 14 14 14 21 23 19 7 5 3 5 8 15 18 18 16 16 16 14 14 14 13 12 12 11 10 9 6
4 3 3 2 4 5 2 2 2 1 0 2 2 2 2 2 1 2 4 3 4 5 4 5 12 14 16 18 16 13 12 13 12 13 7 5 11 22 21 20 19 19 18 19 21 20 17 16 15 13 12 9 5 3
3 3 3 2 3 2 3 2 1 2 1 1 1 2 2 2 3 4 2 3 3 7 9 11 10 11 17 17 15 12 7 7 8 10 7 17 24 24 22 20 18 17 17 18 19 19 17 15 13 11 9 7 4 2
2 4 4 3 3 3 1 1 1 1 2 1 1 1 3 3 2 2 2 1 9 9 6 11 13 10 13 13 13 9 9 14 14 13 16 22 26 24 21 19 19 18 18 18 17 16 13 12 11 8 7 5 3 3
2 2 2 2 1 1 2 2 1 1 1 1 2 3 3 3 4 2 1 3 6 7 10 11 12 14 13 13 14 15 17 17 16 16 19 24 24 24 23 21 20 18 17 17 15 13 12 10 8 7 5 4 4 3

GFSWCAN_925_spd_111.txt.gz
Wind_Speed
32 35 37 37 37 37 38 39 40 39 40 37 32 28 24 21 17 16 11 9 7 3 2 3 3 5 3 2 4 4 3 1 1 2 1 1 1 1 1 2 1 2 1 1 1 2 4 7 2 3 7 9 10 10
32 34 37 35 35 35 35 36 37 36 35 32 28 24 21 18 18 21 9 19 18 6 4 7 12 8 3 6 5 2 3 2 3 3 2 2 1 1 2 2 2 1 2 2 3 2 4 5 9 6 7 12 9 11
32 34 36 38 36 33 33 34 33 33 32 29 26 22 18 17 15 21 19 16 15 3 4 4 4 7 9 8 5 4 1 3 3 1 2 2 2 1 1 1 2 2 0 3 4 3 5 6 8 8 8 11 11 10
31 33 35 35 34 33 32 31 30 29 28 28 26 25 21 20 22 27 16 10 13 4 4 1 3 5 5 9 12 10 7 4 3 1 2 2 2 2 1 2 1 0 0 6 4 6 8 5 7 10 12 12 12 11
31 30 32 31 31 31 30 29 28 28 27 28 28 29 30 31 30 31 29 21 11 4 4 3 2 7 6 8 10 10 8 3 1 2 2 2 2 2 1 1 2 1 3 3 2 9 4 6 8 10 12 11 12 13
29 29 28 29 29 28 27 27 27 26 25 25 25 24 20 16 10 9 4 15 15 10 4 3 1 3 5 8 8 6 4 3 2 2 2 1 2 2 2 1 1 1 2 1 3 5 7 13 11 11 12 11 13 13
26 26 26 27 25 25 25 24 24 24 24 23 20 18 15 12 15 7 4 5 8 5 3 3 2 2 3 3 3 2 4 2 2 2 1 1 1 2 2 2 4 5 8 12 14 17 11 13 7 13 15 15 15 14
23 25 26 26 26 25 24 23 22 23 23 25 28 26 23 21 17 15 18 11 7 9 3 3 2 2 4 1 1 2 2 2 3 1 0 1 1 1 1 3 7 9 12 11 3 2 9 14 16 15 16 16 12 10
23 24 23 23 24 24 22 22 22 22 21 21 16 13 7 9 4 3 8 11 16 7 3 2 5 4 2 1 1 1 1 1 1 1 1 1 1 2 3 12 11 14 7 10 9 13 16 15 14 13 12 11 11 10
22 23 23 22 22 21 19 19 19 19 17 10 5 6 3 3 4 3 3 4 4 3 3 3 1 4 2 0 1 1 1 1 1 1 1 0 1 2 3 10 10 11 11 14 15 13 14 14 13 13 11 11 12 12
23 23 22 22 20 19 19 18 16 14 5 4 3 3 5 3 2 3 3 3 2 3 2 1 0 3 1 2 2 0 1 1 0 0 1 1 2 3 7 10 9 8 13 10 7 11 13 13 13 12 11 14 14 14
23 23 22 21 19 20 18 16 9 7 7 7 12 6 3 3 3 5 3 1 2 2 1 2 1 1 1 0 2 1 2 0 1 1 2 2 1 7 10 10 9 11 14 9 13 14 15 15 15 15 15 15 14 14
21 21 20 19 18 18 15 11 14 18 8 6 4 3 2 3 4 3 2 2 1 2 3 2 2 1 1 2 3 1 2 2 1 1 2 0 4 9 10 9 9 12 12 12 13 15 16 15 15 16 17 17 18 17
20 19 18 17 16 15 13 12 8 6 6 3 3 4 3 3 2 1 1 2 1 2 3 2 2 1 1 2 1 3 0 0 1 1 3 1 6 7 7 7 10 9 10 12 13 15 16 18 17 17 19 20 20 18
17 18 20 16 14 13 12 12 9 7 5 3 2 4 2 1 0 0 1 2 1 2 1 2 3 2 3 3 1 2 2 1 3 3 2 1 7 8 8 7 8 8 8 10 14 14 18 20 21 19 18 17 16 17
21 16 14 13 13 12 10 9 8 4 3 3 4 3 1 2 2 2 2 3 1 1 1 2 3 3 2 1 2 2 2 3 2 2 1 3 5 6 7 7 8 10 11 13 16 18 21 22 23 22 18 16 15 14
9 6 14 13 11 8 6 4 4 4 3 3 2 1 2 3 2 2 2 2 0 2 2 1 3 2 2 1 1 3 3 2 2 1 1 4 6 7 6 10 11 13 14 16 17 18 19 19 23 21 15 15 14 12
18 16 15 11 8 6 4 7 3 3 4 2 2 2 2 2 2 2 2 2 2 2 2 1 3 3 3 2 2 2 2 1 0 0 2 3 6 9 11 12 14 15 16 17 19 20 21 22 15 13 14 16 13 11
21 18 14 7 4 3 3 4 4 3 2 1 1 1 1 1 1 0 1 3 3 2 3 1 1 2 2 2 2 1 2 4 3 2 2 3 9 13 14 15 16 15 17 19 18 16 16 16 13 14 14 13 10 9
19 16 9 8 5 3 3 3 3 2 2 1 1 2 2 1 2 1 2 2 1 0 1 1 3 2 3 2 3 1 2 4 4 3 2 2 6 13 14 15 14 15 15 13 13 14 14 11 12 14 15 13 10 7
16 12 4 6 4 7 3 2 2 1 1 1 1 1 1 1 2 2 2 2 1 1 2 2 2 2 2 1 2 3 5 8 4 2 3 5 8 11 12 11 15 15 15 16 15 14 15 13 15 16 14 11 8 8
9 6 2 5 5 4 3 3 2 1 1 1 2 1 1 1 1 1 1 1 2 2 2 2 1 2 2 2 2 3 5 9 6 6 9 18 6 8 11 15 15 13 13 16 16 16 15 16 16 13 14 14 11 9
6 2 3 4 4 4 1 4 1 1 1 1 0 0 1 1 2 1 1 2 3 1 1 1 2 2 4 4 6 5 8 9 6 6 7 6 9 12 13 15 15 16 13 13 17 19 18 18 15 15 15 14 11 8
3 3 3 3 3 1 1 1 1 2 1 1 1 1 2 1 1 1 2 2 2 2 1 1 2 3 3 3 1 3 4 8 8 8 8 10 10 8 11 14 15 15 16 19 19 18 18 17 16 17 16 13 10 9
3 2 4 2 1 1 0 3 1 2 2 3 2 2 2 1 1 2 3 3 2 2 1 2 1 1 1 2 3 4 5 10 9 6 7 9 11 11 9 10 11 13 17 23 20 20 17 17 18 19 15 11 11 10
1 3 4 5 3 3 3 3 3 5 3 2 4 1 1 2 1 5 3 2 1 1 0 0 1 1 1 0 2 4 7 9 10 7 7 11 14 15 12 10 10 9 17 21 24 21 20 20 20 16 14 12 10 10
1 3 2 2 2 2 1 1 1 2 3 4 3 3 2 3 5 3 1 1 1 1 5 5 3 3 2 4 6 8 12 12 6 8 13 10 10 13 18 17 13 16 19 19 20 21 23 22 18 17 15 13 11 9
4 3 4 3 3 2 3 2 3 5 4 2 4 4 6 6 3 1 2 1 2 3 2 2 2 3 6 8 12 16 15 15 19 20 18 15 13 12 10 10 13 17 16 14 15 17 20 20 19 17 15 14 13 10
3 2 3 3 1 2 4 5 4 3 1 3 4 3 3 1 1 2 2 2 3 2 3 5 6 8 11 13 12 11 20 22 18 8 6 5 5 7 14 17 19 19 19 18 15 15 16 18 17 16 16 14 13 10
4 3 3 1 5 5 2 1 1 1 0 1 1 0 1 2 2 3 3 3 2 3 2 3 7 7 11 14 13 12 11 10 11 10 7 6 9 19 20 20 20 20 20 21 23 22 18 18 18 17 15 13 9 7
3 2 2 1 3 2 2 1 1 2 2 1 2 1 2 2 3 4 3 4 4 4 6 7 8 7 14 15 14 11 6 7 7 8 8 17 25 24 22 20 20 20 19 20 21 21 21 19 17 15 12 10 8 5
2 4 3 2 2 3 2 1 1 0 2 1 2 1 2 2 2 1 3 3 3 5 4 6 8 8 10 11 11 8 7 14 14 14 19 25 27 24 22 21 19 19 21 22 21 19 16 16 14 12 10 8 7 6
2 2 1 2 1 1 1 2 1 2 1 1 2 2 2 2 3 1 3 5 2 3 4 7 8 11 12 12 13 14 17 17 17 18 23 26 26 24 22 21 21 21 20 20 18 16 15 13 12 10 9 8 7 6

GFSWCAN_925_spd_114.txt.gz
Wind_Speed
33 34 37 41 45 49 56 58 61 59 55 49 42 33 31 28 24 17 11 10 7 4 6 4 5 8 7 9 8 9 6 4 5 6 4 3 2 2 2 1 1 3 3 4 3 3 4 4 5 4 7 9 9 10
35 34 39 41 44 46 48 49 50 49 45 36 30 24 26 22 22 26 10 17 21 7 6 11 15 11 6 6 7 7 1 6 3 3 2 3 3 2 3 3 2 3 2 1 4 4 4 6 10 11 9 13 12 12
36 35 35 39 42 43 45 43 42 38 34 31 28 27 24 23 21 31 20 23 27 9 9 6 9 11 11 7 2 4 2 3 4 1 4 2 3 3 3 2 3 3 3 1 5 4 7 8 8 10 11 12 11 11
34 33 33 35 40 42 44 43 41 38 34 31 28 25 23 24 35 35 18 11 14 6 6 5 4 7 6 10 10 6 10 6 6 3 2 2 2 2 3 2 1 2 6 6 4 6 8 6 8 12 13 13 13 11
35 35 34 35 36 37 38 39 38 35 33 31 30 28 28 31 34 35 28 15 10 3 6 8 13 6 7 9 12 11 9 6 4 3 2 2 2 3 2 2 3 4 3 3 2 12 1 13 11 14 14 13 12 13
32 33 33 33 33 33 34 35 36 37 39 38 34 31 30 31 29 19 4 13 14 24 6 4 3 6 7 8 9 8 5 3 1 1 3 2 2 2 3 2 3 3 3 1 4 8 9 15 14 14 14 13 14 13
31 31 32 32 31 31 30 30 30 30 28 25 23 22 18 15 15 8 5 4 11 9 4 5 5 3 3 4 3 3 3 3 2 2 1 3 3 2 2 2 8 6 6 11 14 17 14 15 9 14 16 15 15 14
29 28 29 29 29 29 29 28 29 30 34 34 33 34 31 29 19 13 16 12 9 9 3 4 4 6 1 4 3 1 2 2 2 2 2 1 3 1 2 6 9 10 11 13 12 3 13 14 16 15 17 16 13 12
28 28 28 28 27 26 25 27 30 28 24 23 21 17 13 12 5 4 9 15 15 7 3 3 7 4 3 3 2 2 1 1 0 1 2 2 2 2 2 12 13 15 8 11 8 12 16 17 15 14 13 13 12 12
26 26 26 25 24 23 21 22 21 17 14 10 7 6 4 3 3 4 4 3 4 3 3 3 1 5 3 3 2 2 0 2 2 2 2 2 0 3 4 9 12 12 11 14 16 16 16 16 15 15 13 13 13 14
24 24 22 22 22 20 18 16 14 9 7 5 3 3 4 3 2 3 3 3 2 3 3 3 4 7 1 2 3 1 2 0 2 3 2 2 2 4 8 11 13 9 11 10 7 13 15 16 15 14 13 14 16 16
23 22 20 20 20 18 16 13 7 8 6 6 12 7 2 2 3 5 3 2 2 3 3 6 5 3 3 1 2 2 2 2 1 1 2 2 3 7 12 12 13 10 12 8 12 15 16 17 18 17 17 16 16 15
22 21 21 20 18 16 15 16 19 12 6 5 4 3 3 4 5 3 3 3 3 3 4 5 4 2 3 1 3 1 2 2 2 2 2 2 5 8 10 11 11 14 12 14 15 16 17 17 16 17 17 14 16 15
20 20 19 18 16 17 15 10 7 8 6 4 3 5 4 3 4 3 3 4 3 4 7 6 3 2 1 2 1 2 2 1 2 2 1 2 6 9 8 9 12 12 10 13 15 17 17 17 15 14 16 18 19 17
20 19 17 15 13 12 12 11 8 8 5 3 3 4 4 1 2 2 3 4 3 4 4 5 3 2 2 2 1 2 2 2 2 1 2 2 7 10 10 10 10 10 9 12 15 15 16 16 16 15 16 15 16 18
19 18 13 11 11 10 8 7 8 4 4 3 5 4 1 1 5 4 4 4 1 2 2 2 3 3 2 1 2 1 2 1 1 1 2 3 7 8 9 9 10 13 13 14 14 15 16 16 17 18 15 15 17 17
12 5 9 9 8 8 8 5 5 5 4 3 3 3 3 4 4 3 2 2 1 1 2 0 2 2 3 2 1 1 1 2 2 2 1 2 8 9 8 10 11 13 14 15 15 15 15 15 18 17 15 12 12 12
13 11 7 5 5 7 6 8 3 4 6 4 3 3 3 3 2 3 2 3 1 2 1 2 2 2 2 2 2 1 0 1 1 2 3 4 7 10 11 13 12 13 15 15 16 16 17 19 17 14 15 15 12 11
15 10 7 8 7 4 3 5 5 4 4 2 2 3 3 2 3 2 2 3 3 2 2 1 0 1 2 1 1 1 1 2 2 2 3 4 8 11 13 13 14 14 15 17 18 17 17 17 14 15 15 15 12 12
13 10 11 11 6 3 3 3 3 3 3 2 2 3 2 2 2 1 2 3 2 2 1 1 0 1 1 2 1 2 2 4 4 4 4 4 7 11 12 14 13 15 15 15 13 15 16 13 12 13 14 13 12 11
6 7 12 10 6 8 3 2 3 3 2 2 2 2 2 1 2 2 2 2 2 1 1 0 0 1 3 3 2 2 4 6 3 1 2 5 9 10 12 11 14 14 14 15 14 14 15 14 14 13 14 13 9 8
4 5 6 8 5 3 3 6 2 1 1 2 1 1 1 1 1 1 2 1 2 1 1 1 1 1 2 1 1 1 3 6 5 6 7 11 7 8 11 13 14 13 13 14 15 16 15 14 15 15 14 12 12 10
4 4 4 6 3 4 2 4 1 1 2 3 2 1 1 1 1 1 2 2 2 1 1 1 2 2 2 3 4 4 4 4 4 4 5 4 7 8 11 13 13 14 13 13 14 16 16 16 16 16 15 15 12 10
4 4 3 3 4 2 1 1 2 2 1 1 1 1 1 1 2 1 3 2 1 0 1 1 2 3 2 2 2 3 3 4 5 5 4 6 7 7 9 11 11 11 11 14 16 17 17 17 17 16 15 14 11 10
1 3 2 3 2 2 2 1 2 2 2 2 2 1 2 2 2 2 3 2 1 1 1 1 1 1 1 2 3 4 3 4 4 4 4 4 7 9 8 8 9 9 11 16 17 18 18 16 16 15 15 13 12 11
2 2 2 2 1 1 2 2 2 1 1 3 3 2 2 2 2 4 2 1 1 1 1 2 1 1 2 1 2 3 4 5 6 5 5 6 7 8 10 9 10 8 11 15 19 19 18 16 16 16 13 12 13 12
1 1 1 0 1 2 1 1 1 2 2 3 3 4 3 3 4 1 2 1 1 1 2 3 3 2 1 4 5 6 7 6 4 6 9 7 5 4 7 9 10 11 14 15 16 18 19 18 17 15 14 12 10 9
2 2 3 4 3 2 1 2 3 3 3 3 4 4 3 4 0 2 2 3 1 1 1 1 1 1 3 5 7 10 9 10 13 13 13 11 8 8 7 8 10 16 14 14 14 14 16 17 17 16 15 14 12 9
3 2 3 3 2 3 3 3 2 2 1 3 2 2 2 0 1 1 2 1 1 1 2 3 2 4 7 8 7 6 12 13 13 11 9 7 7 5 8 12 16 15 15 16 15 16 17 17 17 16 15 15 13 11
3 4 3 3 3 5 2 1 0 1 1 1 2 1 2 2 1 3 2 2 3 4 1 2 5 4 5 7 9 9 7 5 4 7 7 7 9 13 13 15 17 17 18 19 21 21 19 18 18 17 16 14 11 9
3 4 2 3 3 0 2 1 0 1 1 1 0 3 2 2 1 1 2 2 3 3 4 5 5 4 6 7 9 10 7 5 6 7 7 15 20 17 16 16 16 16 17 18 19 19 19 17 15 14 12 11 10 8
4 5 3 3 2 1 1 2 1 2 1 2 2 1 2 2 3 2 3 4 2 3 3 3 4 5 5 6 7 6 6 11 10 11 16 21 21 21 19 18 18 18 19 19 19 18 16 16 14 12 12 11 9 8
1 1 1 1 1 2 2 2 2 2 2 2 1 1 1 2 2 2 4 4 2 2 1 3 4 6 9 9 9 11 13 13 14 16 21 24 25 23 21 20 20 20 21 20 18 16 15 14 13 12 11 10 10 8

GFSWCAN_925_spd_117.txt.gz
Wind_Speed
29 29 40 42 43 49 51 67 56 48 48 48 49 52 55 51 41 36 18 17 9 4 12 16 19 20 15 11 10 14 8 7 8 7 6 5 3 2 3 2 5 8 5 7 10 6 5 2 7 4 6 8 10 12
36 39 47 59 66 71 64 59 54 53 57 60 60 57 52 50 37 36 15 16 20 8 12 19 19 9 1 7 8 14 2 17 6 8 4 2 2 2 3 3 4 4 3 4 5 4 4 3 7 10 9 12 12 14
39 44 45 55 57 63 63 61 60 60 61 57 53 50 47 40 36 21 20 25 24 13 11 10 10 11 10 9 7 7 4 6 4 2 3 2 2 4 4 3 4 3 2 1 6 6 6 6 6 9 12 13 14 14
39 41 44 47 49 51 53 52 53 53 52 50 48 44 42 37 34 37 28 16 25 7 7 5 8 8 7 8 5 2 10 4 6 4 2 2 2 1 2 2 2 2 6 5 4 7 8 6 8 11 13 14 14 13
37 39 41 42 42 42 44 46 45 47 44 41 38 42 46 42 36 31 22 16 12 4 8 10 16 10 11 11 11 11 11 9 6 5 2 2 1 3 2 4 4 6 3 4 1 14 4 14 12 14 15 13 13 14
35 38 39 41 42 43 43 44 44 45 44 43 43 44 46 40 35 27 6 17 27 33 9 5 8 8 10 10 10 8 5 2 2 2 2 3 3 2 3 2 2 4 3 2 3 12 10 15 14 15 14 14 15 14
32 34 35 38 40 42 41 41 40 40 40 39 35 30 26 21 17 7 6 10 15 16 5 6 6 4 9 7 4 5 3 2 2 2 3 2 2 3 2 2 7 6 5 8 12 16 14 16 10 15 16 16 17 16
31 31 32 33 34 36 39 41 42 42 40 40 41 39 34 31 23 17 15 12 7 10 4 4 5 7 6 5 4 1 3 3 1 2 2 3 4 3 2 6 8 8 10 11 15 2 14 15 18 16 17 18 14 12
28 29 29 30 30 32 33 34 34 33 32 32 31 26 19 13 6 6 14 15 14 7 4 3 8 4 4 4 4 3 2 2 2 2 1 2 3 3 2 11 11 13 10 13 7 14 17 17 17 16 15 15 14 13
27 26 26 25 24 25 25 24 21 19 17 16 10 8 4 4 4 3 4 3 4 3 4 5 6 6 7 6 2 3 2 3 4 2 2 3 1 4 5 9 12 13 9 13 14 15 17 16 16 16 15 14 14 15
26 25 24 22 20 18 16 15 11 11 9 5 4 4 8 4 2 3 3 3 3 4 4 2 8 8 3 4 5 1 2 1 3 3 3 4 3 5 7 10 12 9 11 11 9 12 14 15 14 13 13 15 16 17
23 23 23 21 20 18 15 13 11 13 9 9 14 9 4 2 2 4 3 2 1 4 5 7 7 8 4 1 2 3 2 2 1 3 2 2 3 9 11 13 11 10 11 8 10 13 15 16 17 16 16 16 17 16
23 23 23 22 22 21 21 21 17 11 9 6 5 4 1 3 3 1 4 3 4 4 5 7 6 4 3 2 2 2 3 1 4 1 2 3 6 9 10 11 10 11 11 11 12 15 16 16 16 15 15 16 17 16
21 21 21 21 20 16 11 12 14 6 5 4 3 5 4 3 4 3 5 6 2 6 8 6 4 3 2 3 1 2 1 2 3 3 3 5 6 8 8 10 11 10 9 10 12 13 14 15 16 16 15 16 18 16
20 19 18 18 16 15 12 13 12 8 5 4 4 4 4 3 5 3 4 4 4 6 6 6 4 3 3 3 1 3 2 3 3 1 2 3 7 9 9 8 10 10 9 10 14 15 15 16 16 16 15 15 15 16
14 14 16 14 14 13 11 10 10 6 3 4 6 4 4 7 6 6 6 5 5 4 4 3 3 3 2 2 2 2 2 1 2 2 2 3 5 8 8 9 10 13 14 15 15 16 16 17 17 18 16 14 15 15
14 7 10 11 12 13 11 5 6 5 4 4 3 3 4 6 5 3 3 5 1 2 2 1 3 2 2 2 2 1 2 2 2 2 2 4 6 8 8 10 13 15 15 16 16 16 16 16 18 18 16 14 13 12
14 9 11 13 11 7 6 8 4 4 6 5 4 3 4 4 3 4 2 4 2 3 1 2 2 2 2 2 3 2 3 3 3 3 4 5 6 10 11 12 13 14 14 15 16 17 17 18 17 15 16 17 14 13
12 12 14 13 10 5 4 6 5 4 5 2 3 3 4 3 4 4 4 3 4 4 2 1 0 2 2 3 3 2 2 2 3 3 4 7 9 10 12 13 13 13 15 16 17 15 16 17 15 16 16 17 14 14
12 16 15 15 10 4 4 4 4 4 3 3 3 4 3 2 2 3 3 4 3 2 2 1 3 3 3 4 4 3 3 4 5 5 5 5 9 11 12 13 12 14 14 14 13 14 16 15 14 15 16 15 14 14
8 12 13 10 6 9 4 3 4 3 2 3 2 2 3 2 3 3 2 3 2 2 2 3 3 2 5 4 4 4 4 3 2 2 4 6 11 11 12 11 14 13 13 14 13 14 16 15 15 15 15 13 12 12
6 10 7 8 5 4 4 6 2 2 2 2 2 2 2 2 1 2 2 1 1 2 2 2 3 2 3 3 4 4 4 5 6 7 8 13 7 7 11 13 14 12 13 14 14 15 15 15 16 16 16 14 13 12
8 7 5 7 4 4 3 4 2 2 2 2 2 2 2 2 1 2 1 2 1 2 2 3 4 4 4 4 4 5 3 2 3 5 5 5 8 8 10 12 12 12 12 13 14 16 16 16 17 17 16 15 14 13
8 5 4 4 5 3 1 2 2 2 2 1 2 2 2 1 1 1 2 1 3 1 2 2 0 2 2 2 1 4 3 2 5 5 3 5 6 6 8 10 10 10 11 13 14 15 16 17 18 16 17 16 15 14
2 4 3 4 2 2 2 2 2 2 1 2 2 1 2 1 1 2 2 2 1 2 2 2 1 1 0 1 2 4 2 1 1 3 2 2 5 8 8 8 8 8 10 14 15 17 17 18 17 17 16 15 15 14
3 4 3 2 1 2 2 2 1 1 2 1 2 2 1 2 2 3 1 2 1 1 2 2 2 0 1 0 1 2 2 2 2 3 4 3 5 6 8 7 8 8 9 12 16 18 18 18 17 16 15 15 14 14
1 2 2 2 2 2 2 1 1 0 1 2 2 2 2 2 3 1 3 2 1 2 2 2 2 4 3 3 5 5 6 5 6 8 7 6 5 5 4 6 8 11 11 12 14 17 18 17 17 17 16 14 12 11
1 0 0 2 0 1 1 0 2 2 2 2 2 3 2 2 2 2 3 3 3 2 1 1 1 2 3 4 5 6 7 8 10 11 12 11 8 8 8 9 12 14 13 14 14 15 16 17 18 18 17 15 13 10
1 1 1 1 1 1 2 2 2 1 3 1 2 1 1 2 1 1 2 2 1 1 1 2 2 4 5 5 4 3 7 8 8 6 5 5 8 7 10 13 14 15 15 16 16 17 18 18 18 18 17 16 14 12
2 3 2 1 2 3 1 3 2 2 2 2 2 2 2 2 2 1 1 1 2 1 2 2 3 3 3 4 5 6 4 3 2 1 3 5 9 12 12 13 15 15 17 20 23 25 24 23 21 19 17 15 13 12
1 3 2 3 2 0 1 2 2 2 2 2 1 3 3 2 2 2 1 1 1 2 3 5 5 4 4 5 6 8 6 4 4 5 10 14 16 15 15 15 16 16 17 18 17 17 18 16 16 16 14 13 12 10
3 4 2 3 1 2 1 2 2 2 2 3 3 2 2 2 3 3 4 5 1 3 2 2 3 5 4 4 5 5 8 10 8 11 14 17 17 17 17 16 17 16 17 17 17 17 16 16 15 14 14 13 11 10
1 2 2 2 2 2 1 2 2 3 3 3 1 1 1 3 2 3 3 5 3 3 5 4 4 6 6 7 9 10 11 12 14 16 18 19 20 19 18 17 17 18 19 18 17 16 16 16 15 14 13 12 11 10

GFSWCAN_925_spd_120.txt.gz
Wind_Speed
34 26 10 11 34 62 56 54 57 58 62 60 57 55 53 50 53 57 13 25 7 3 2 11 17 11 13 10 10 12 7 7 7 7 7 6 6 3 3 5 12 12 8 7 8 6 9 4 7 4 4 8 9 12
40 37 30 28 8 42 69 55 52 58 58 59 56 52 49 49 50 45 16 18 17 4 4 8 15 17 8 16 8 15 6 14 5 7 6 3 4 3 2 3 8 5 1 2 2 3 4 2 4 7 8 10 13 14
44 47 44 50 48 39 67 61 48 48 53 52 51 50 50 51 48 30 26 25 21 3 5 4 6 9 8 5 22 7 5 11 6 3 1 2 2 3 3 5 4 3 1 1 5 7 6 4 5 8 10 11 12 15
48 54 56 54 51 57 56 52 54 50 48 46 47 49 47 48 41 35 23 23 21 5 3 2 7 5 8 9 11 1 6 6 3 2 1 2 1 3 1 3 1 2 6 6 4 6 7 4 7 11 12 13 14 14
46 51 55 59 59 57 53 48 45 46 49 50 54 57 49 46 41 38 31 19 22 5 3 7 13 9 10 10 11 7 8 6 5 3 2 1 1 1 2 3 3 6 3 5 2 11 5 12 11 14 13 12 14 15
44 46 48 51 54 56 57 58 58 58 57 57 54 53 52 50 45 33 6 7 13 28 6 4 7 7 10 11 12 9 7 6 4 3 3 2 2 1 2 2 3 4 3 3 1 10 9 15 13 15 13 13 15 15
44 46 47 44 44 46 47 47 49 52 51 49 49 47 48 42 28 4 5 19 24 14 4 4 6 6 11 11 5 4 1 1 2 3 2 3 3 4 1 2 6 4 3 5 14 16 11 14 10 13 14 18 18 18
40 43 43 44 43 43 44 44 45 46 46 46 45 40 33 29 25 17 19 16 12 5 3 4 5 6 8 5 5 4 4 3 1 1 4 5 4 3 3 6 8 7 8 11 12 1 13 14 17 15 19 18 14 12
35 38 40 43 43 41 41 44 46 46 45 43 39 33 25 17 7 7 17 15 13 3 4 3 7 4 5 6 5 3 3 2 2 2 1 2 4 3 2 11 10 11 10 11 11 13 16 16 16 16 15 15 14 11
32 31 31 31 31 33 30 28 29 27 23 18 11 8 3 5 16 5 4 3 2 2 3 5 7 6 8 5 4 4 2 3 3 4 2 2 1 5 5 8 10 12 9 13 13 14 14 14 14 14 14 12 13 14
30 29 28 26 24 23 23 20 19 18 15 6 3 3 12 6 2 2 2 2 3 3 3 3 8 9 6 5 4 3 2 1 2 3 3 3 3 5 7 9 10 9 10 11 11 11 13 12 12 12 11 13 16 17
29 29 28 28 29 26 24 25 20 16 7 9 15 11 4 2 2 4 3 0 2 4 5 8 8 7 3 3 3 2 2 0 0 1 1 3 3 7 9 10 10 9 10 9 12 13 13 13 16 14 13 14 16 19
30 28 26 25 24 26 23 19 18 15 16 9 5 4 2 4 4 2 3 4 4 4 6 6 7 4 3 3 2 2 2 2 4 1 2 3 7 7 7 8 7 8 9 7 9 17 16 12 13 13 17 22 24 22
25 27 27 24 21 20 20 16 12 9 7 4 4 5 4 3 4 3 5 6 3 7 9 7 4 3 2 3 1 3 2 1 2 3 2 4 6 6 6 8 8 7 7 7 9 11 14 17 18 20 21 21 23 19
22 23 24 25 21 19 18 20 17 11 5 4 4 4 5 4 3 3 3 4 8 7 6 5 3 4 3 2 2 4 2 4 4 2 2 2 5 7 7 7 9 10 9 8 13 15 16 18 18 16 17 18 20 20
12 12 23 21 19 18 14 12 14 9 4 4 6 5 5 7 6 4 4 5 5 3 4 3 3 3 2 3 2 2 3 1 3 2 2 2 5 6 7 9 9 13 13 14 14 15 15 15 16 16 16 17 19 20
16 10 19 17 15 18 13 7 7 5 4 4 3 2 7 5 4 3 2 4 1 2 2 3 3 2 2 2 2 2 3 2 2 3 3 2 5 7 8 10 13 14 14 13 14 14 14 15 19 17 14 13 15 16
16 16 17 16 11 7 9 9 4 5 7 5 4 5 4 3 3 3 4 5 3 3 2 2 3 2 2 2 3 2 2 3 3 4 3 4 6 10 11 11 14 15 15 15 16 16 17 18 15 14 15 17 15 14
19 19 17 15 11 5 4 6 5 4 5 2 3 3 3 2 5 4 3 3 4 4 1 1 1 3 3 3 3 3 3 2 3 3 4 6 8 10 11 11 12 14 15 16 17 14 14 16 14 16 17 18 14 15
14 19 18 19 11 4 4 4 6 4 3 3 4 5 3 2 2 2 3 4 3 1 1 3 4 3 3 3 3 4 4 5 5 5 4 4 8 11 12 12 12 13 14 13 11 12 14 13 14 16 17 16 15 15
13 14 16 13 7 11 4 3 4 3 3 3 2 3 2 3 3 3 3 3 2 3 4 3 4 3 5 4 6 7 6 5 2 2 5 5 10 11 11 11 15 13 13 13 13 13 15 13 15 17 17 14 16 17
10 13 8 11 6 5 4 8 3 2 2 3 2 2 2 2 2 3 3 1 3 3 2 3 4 4 5 5 6 8 7 8 8 9 12 15 6 6 8 12 12 10 11 12 13 14 14 15 16 17 16 14 17 17
10 10 6 8 4 5 3 6 2 2 2 2 2 3 2 2 2 3 1 1 3 3 5 6 6 9 8 7 8 7 4 2 6 8 6 7 8 10 11 12 11 11 10 12 13 15 13 17 19 18 17 19 18 16
9 5 5 4 5 3 1 2 2 3 3 2 2 2 2 2 1 1 1 3 3 2 5 3 3 4 4 4 3 6 5 9 10 4 1 8 6 5 9 8 8 9 10 13 15 15 14 18 19 18 18 19 17 16
3 5 3 5 2 2 2 2 3 2 2 2 1 2 2 0 1 1 1 3 4 4 4 4 3 3 2 2 4 5 4 5 5 5 1 6 12 11 8 7 7 7 11 15 15 16 17 18 17 19 18 18 17 16
4 4 4 2 2 2 2 2 1 1 3 1 2 3 1 1 0 1 2 2 3 2 2 3 3 2 2 5 4 4 5 4 5 9 6 5 6 6 7 5 7 5 8 11 16 17 17 17 17 18 16 19 20 19
3 3 3 2 2 2 3 2 3 1 1 1 3 1 0 1 2 3 3 3 2 3 3 3 3 6 5 8 9 7 7 8 10 11 11 10 9 8 5 8 8 9 10 11 16 17 19 17 18 16 19 20 18 17
3 2 2 2 2 3 2 1 2 2 2 1 4 3 2 1 3 2 2 3 3 3 3 4 4 5 8 8 6 7 7 9 12 13 14 11 9 9 9 11 13 12 11 13 16 18 17 18 21 21 20 18 17 15
1 2 1 2 1 1 1 1 1 2 4 2 1 0 1 3 2 2 3 3 2 2 3 4 4 4 5 5 4 4 8 8 8 6 5 6 6 7 10 12 12 13 15 17 17 20 22 23 23 23 21 20 18 17
2 1 1 1 1 1 2 3 2 2 2 2 2 1 3 3 3 2 1 1 0 2 4 3 6 3 4 4 5 5 4 2 5 2 4 6 10 12 12 13 16 17 22 25 27 26 24 25 24 22 21 19 16 15
2 1 1 2 1 2 3 3 3 2 2 2 1 2 1 3 4 6 7 6 4 3 2 4 4 2 2 3 6 6 5 3 5 8 12 17 20 17 17 17 16 18 20 22 23 23 22 20 19 18 16 16 14 13
2 2 2 2 1 2 2 1 2 2 2 2 2 3 1 2 2 3 6 7 3 3 1 4 4 5 4 6 8 7 10 12 11 13 16 19 20 18 17 16 17 19 19 19 20 19 18 18 18 17 17 15 14 13
1 1 1 2 2 1 2 3 2 2 2 2 0 3 2 4 3 3 4 7 5 6 7 8 7 9 9 10 12 13 13 14 15 17 19 19 20 21 21 20 20 21 21 21 19 18 17 18 18 16 16 15 14 12

GFSWCAN_925_spd_123.txt.gz
Wind_Speed
33 44 48 55 62 62 60 56 53 55 64 66 57 54 53 49 49 44 31 26 9 3 1 6 7 7 7 8 9 9 5 3 2 5 4 4 3 4 4 5 7 8 6 4 4 4 7 3 4 4 3 4 7 13
18 25 32 38 44 46 58 53 53 54 61 67 61 57 53 48 47 42 18 29 13 2 1 4 2 19 21 8 8 9 5 7 4 4 3 3 1 1 3 2 6 4 5 4 4 2 1 2 3 1 4 5 3 8
28 34 15 8 24 41 50 50 45 53 64 63 60 56 51 46 45 44 24 24 10 3 3 4 4 14 12 20 28 4 2 6 5 5 3 2 2 1 1 4 4 1 1 3 3 4 5 3 3 5 7 10 10 13
39 45 44 45 45 54 51 49 51 56 59 57 55 51 47 43 43 43 29 20 12 4 3 2 5 6 3 12 14 8 6 9 5 4 2 2 2 2 0 1 3 4 5 6 2 4 4 2 6 9 11 14 14 13
44 44 46 51 50 46 49 52 50 53 55 52 51 48 45 42 42 38 35 18 18 5 3 2 5 2 4 10 14 15 11 5 3 2 2 2 2 3 1 2 2 2 5 4 5 10 5 6 9 13 14 13 13 15
50 46 44 42 42 44 47 49 50 51 52 49 47 47 44 42 43 28 4 7 17 13 4 3 3 3 12 7 7 6 4 2 3 3 2 2 1 2 2 2 2 3 1 2 3 9 4 13 11 12 14 13 15 14
50 50 51 48 48 48 47 48 49 51 52 49 48 47 50 48 38 6 3 19 20 13 3 3 2 4 12 9 1 2 1 2 3 2 2 3 2 3 1 2 2 4 3 5 13 14 9 11 7 11 15 16 19 18
49 49 50 50 52 54 51 52 53 55 56 54 53 51 47 34 25 13 25 34 29 6 4 3 3 3 3 2 2 1 1 1 2 2 2 3 2 1 2 4 4 6 8 9 7 0 9 11 15 12 17 18 13 12
48 45 45 46 46 48 53 56 56 58 58 56 55 42 30 21 4 10 28 28 15 5 4 3 4 3 1 3 2 2 2 2 2 1 2 4 2 3 6 10 9 8 8 9 6 10 12 15 13 13 13 14 13 9
42 42 40 39 40 39 41 45 54 60 56 47 36 5 3 6 31 21 7 2 4 3 2 3 3 3 5 2 2 3 1 3 1 3 2 2 2 3 6 7 8 8 8 10 11 12 13 13 12 13 14 12 12 14
40 39 38 34 32 32 31 35 42 39 27 5 2 3 13 11 3 3 2 3 2 2 2 2 6 7 3 4 3 2 2 1 2 3 4 2 1 2 8 8 7 7 7 9 12 8 12 12 11 9 11 14 18 19
35 37 36 31 28 27 24 20 18 13 6 12 15 11 5 2 2 4 1 1 3 4 2 5 5 4 2 4 3 1 2 3 1 1 3 2 1 6 7 9 8 7 7 7 15 12 14 15 16 13 14 13 17 23
31 31 32 31 27 25 24 26 30 28 25 8 6 4 3 3 5 4 4 2 3 1 2 3 4 4 3 3 2 3 3 2 2 3 3 2 3 5 6 6 6 8 10 10 12 16 18 14 15 14 16 22 27 26
30 29 29 28 25 22 18 15 15 12 8 3 4 5 3 3 2 1 2 3 3 5 7 5 3 3 2 3 1 4 2 2 1 1 2 2 4 4 5 5 9 5 8 8 9 14 14 17 17 20 25 26 27 23
25 29 28 28 20 17 16 15 13 9 5 4 4 4 4 1 1 2 2 5 5 4 4 3 4 3 2 3 2 3 1 3 4 2 2 1 6 6 7 7 8 8 8 8 13 14 16 19 19 17 22 24 24 24
14 17 29 21 19 13 10 15 14 5 4 3 6 4 1 4 5 5 6 4 3 2 3 4 3 3 0 4 2 4 5 1 2 2 1 2 4 5 7 6 6 12 12 13 14 16 17 17 18 18 19 21 22 25
21 15 22 15 17 20 11 6 6 5 4 4 3 2 2 2 5 4 3 2 2 3 1 3 3 2 1 1 2 3 2 2 2 2 1 1 4 7 8 8 11 14 14 15 16 16 16 19 22 20 15 17 21 22
13 23 20 18 8 10 15 10 4 5 6 5 4 4 3 3 3 3 3 3 3 1 2 2 3 2 2 2 1 2 2 2 3 3 2 2 5 10 13 11 13 15 15 16 16 18 19 19 15 13 17 19 18 18
18 24 20 17 10 5 4 7 6 4 5 2 2 2 2 2 2 2 2 4 3 2 2 2 4 2 2 2 3 3 3 2 2 2 2 5 8 10 12 14 15 14 17 17 16 14 15 15 15 17 19 19 16 17
16 20 22 19 8 4 4 3 6 4 3 2 2 2 2 1 2 2 3 3 3 2 4 3 3 2 2 1 2 4 4 5 5 4 2 2 7 11 10 10 10 15 15 16 14 15 14 12 16 19 20 19 20 20
19 21 17 13 7 12 4 3 4 2 2 3 1 2 1 2 2 3 3 4 4 3 2 2 3 2 5 5 12 11 5 4 2 3 3 3 7 9 9 11 15 12 12 11 11 11 14 13 18 22 23 20 21 23
12 16 8 11 6 5 4 9 3 2 3 2 2 2 2 2 2 2 4 3 3 2 2 2 2 2 3 4 5 11 9 12 13 13 14 15 5 4 6 12 12 9 11 12 13 13 15 17 22 22 23 19 20 20
12 8 7 8 5 5 2 7 3 3 3 2 2 3 2 1 2 3 1 2 2 2 6 5 6 11 8 10 10 9 8 8 8 10 11 11 12 13 14 15 14 11 10 14 16 18 16 22 22 22 20 25 25 24
8 5 4 3 4 2 1 3 2 2 3 2 2 3 2 2 2 1 2 3 2 2 4 6 4 2 3 5 3 6 10 9 8 6 9 13 8 9 12 12 10 12 14 17 18 18 19 24 25 22 24 23 22 21
5 7 4 4 3 4 3 3 4 3 2 1 2 2 2 1 1 2 2 2 2 3 2 5 5 3 3 2 4 8 9 6 8 2 9 9 15 13 11 9 8 10 15 19 19 18 20 24 21 21 23 23 21 21
5 4 4 2 3 3 2 2 2 2 2 2 3 1 1 1 3 2 2 2 2 2 2 2 2 2 4 6 3 4 8 7 14 11 9 7 8 9 8 4 4 3 13 19 21 20 20 20 21 23 23 23 22 25
4 4 2 2 2 2 2 2 2 3 2 2 2 1 2 2 1 2 2 3 2 4 4 3 8 6 5 8 11 11 8 10 11 13 12 10 10 6 11 10 9 8 8 11 20 24 21 21 22 20 21 24 26 25
2 5 3 3 2 2 2 2 1 1 1 2 3 1 2 1 2 2 2 4 5 5 6 5 5 7 9 9 8 7 8 10 11 11 11 11 9 8 7 8 9 8 7 11 18 20 22 22 24 26 26 23 21 19
2 1 2 3 3 2 2 2 2 3 3 1 2 2 2 2 3 3 4 4 3 4 7 6 5 4 5 5 5 4 8 10 9 3 5 3 3 7 8 10 10 11 14 18 19 20 23 27 27 27 26 24 22 20
2 2 2 1 2 1 2 3 2 2 3 2 1 1 2 2 4 5 3 3 3 3 4 3 7 7 7 7 6 5 3 2 4 2 6 3 10 12 14 16 19 22 24 26 28 27 24 25 24 23 23 22 20 18
2 1 2 1 1 2 3 3 2 1 1 1 1 1 1 3 4 10 9 8 6 4 3 3 5 3 4 8 10 8 4 2 1 3 11 19 20 16 15 16 19 21 23 24 24 24 24 23 22 21 20 19 17 16
1 1 2 1 2 2 2 3 2 2 1 2 1 2 2 1 2 2 11 12 12 10 9 14 13 6 7 8 7 8 8 11 11 14 17 21 19 17 15 16 17 18 19 20 20 20 20 21 20 19 19 18 16 16
1 1 2 2 1 1 1 1 2 1 1 1 2 3 3 3 3 1 6 10 8 10 9 9 9 10 11 11 11 12 13 15 16 15 17 18 18 18 19 20 19 20 21 21 20 20 19 20 20 20 19 17 16 15

GFSWCAN_925_spd_126.txt.gz
Wind_Speed
46 51 59 64 64 63 63 60 57 59 56 54 52 48 47 48 48 43 34 27 22 2 3 1 3 5 5 5 5 6 4 1 3 3 4 4 3 5 3 4 6 8 7 4 4 4 10 2 4 6 3 3 12 11
37 45 55 58 58 61 64 61 63 62 59 58 55 51 49 49 48 45 15 24 29 7 3 2 4 2 4 8 6 5 5 6 5 3 3 3 2 2 5 4 3 5 6 4 7 5 1 2 3 2 4 6 5 12
22 24 30 53 62 64 62 59 62 63 62 60 58 54 49 50 46 47 20 27 24 2 3 2 3 6 11 20 28 5 0 6 3 4 3 2 3 3 4 3 3 3 3 3 2 4 4 3 2 3 2 4 5 9
28 31 20 15 46 60 53 59 57 62 65 62 58 53 51 48 45 45 25 24 25 2 2 1 4 5 10 16 11 5 11 6 5 4 3 3 2 3 3 4 3 4 5 5 2 2 1 5 3 6 7 10 12 11
32 33 43 40 39 45 41 55 56 56 58 62 60 54 51 45 43 36 24 23 28 1 2 1 3 5 3 6 7 8 9 5 3 3 2 3 2 3 1 1 2 4 6 4 5 7 4 4 8 11 11 9 12 15
37 41 44 46 47 48 51 54 53 52 54 61 58 52 46 44 44 30 2 20 11 13 3 2 2 4 1 7 3 1 5 3 3 3 2 1 2 3 2 3 2 3 3 1 3 5 2 6 8 6 10 12 11 13
41 42 44 45 48 51 52 51 53 58 57 56 52 50 49 48 41 12 5 11 32 11 3 3 2 1 2 4 1 0 2 2 3 3 2 3 0 3 2 2 3 4 4 3 7 10 5 7 6 9 13 17 19 17
42 41 42 46 48 53 56 57 57 57 55 53 51 49 46 40 26 5 6 24 28 8 2 3 2 2 4 2 3 3 2 2 3 3 2 3 2 2 2 4 2 4 6 5 7 1 7 7 12 11 17 18 14 12
49 42 42 45 48 51 53 55 55 56 54 51 48 46 36 21 4 5 30 23 16 3 3 2 4 4 3 4 2 3 2 2 2 2 3 4 1 3 6 6 7 7 8 7 4 6 10 11 13 12 12 13 14 12
51 51 46 48 48 49 50 51 52 53 55 54 42 8 3 6 17 20 9 0 2 2 2 2 2 3 5 2 1 3 1 3 2 3 3 2 3 2 2 5 7 8 7 9 8 7 10 11 14 12 11 9 11 11
47 50 52 52 56 55 54 54 56 51 33 8 3 3 18 31 8 2 3 4 3 2 1 3 4 6 2 4 2 0 2 1 2 3 4 2 3 2 4 5 5 6 7 7 5 7 9 11 11 10 11 12 15 19
43 40 41 47 51 51 39 38 36 11 7 13 19 20 6 2 3 4 1 1 3 5 1 7 5 7 2 3 3 1 2 2 2 1 3 2 3 5 6 4 5 6 6 7 11 8 11 12 14 14 14 16 18 20
36 38 37 34 27 27 29 23 19 34 36 22 5 4 3 3 5 4 4 1 2 2 3 4 4 3 3 4 3 3 3 3 1 3 3 3 3 6 6 5 4 4 7 9 7 14 17 16 17 14 14 20 24 22
31 29 29 29 28 26 26 30 30 21 9 4 4 5 3 2 0 2 2 3 2 4 9 5 3 3 1 4 1 4 2 2 3 0 4 2 4 5 4 6 7 4 7 8 9 14 13 13 14 19 24 27 26 21
32 28 26 24 20 20 22 20 12 9 5 4 4 3 2 2 2 1 2 2 2 4 4 3 4 3 2 3 2 3 3 2 5 4 2 1 2 6 5 5 8 7 7 7 11 9 12 15 16 16 20 25 26 25
19 25 27 18 14 17 17 13 17 5 4 3 5 3 2 3 5 4 4 7 3 3 3 4 3 4 1 4 2 4 5 5 3 2 2 2 3 4 5 5 5 9 10 11 12 13 14 15 16 17 20 22 24 26
23 13 19 13 18 13 8 5 5 5 4 4 3 2 2 3 5 4 3 3 3 3 2 3 3 4 2 2 2 1 3 2 3 2 2 2 4 5 6 6 9 13 13 14 14 15 14 17 21 19 14 14 20 21
14 21 18 9 5 10 12 8 4 4 6 4 3 4 3 3 2 3 3 3 3 2 2 3 4 2 3 3 3 2 2 3 3 2 1 1 4 7 10 9 13 15 15 16 16 16 17 17 13 11 15 18 17 16
17 21 15 12 8 6 4 7 6 4 4 2 2 3 2 1 1 1 2 3 2 2 3 2 4 2 1 1 2 3 3 2 2 1 2 4 7 9 10 12 16 15 16 16 14 12 13 12 12 16 18 18 16 17
14 18 19 15 6 5 4 3 5 4 3 1 2 3 2 1 2 2 3 4 3 2 4 3 2 1 1 1 2 3 3 4 4 2 2 1 6 10 10 11 10 13 13 13 12 13 12 10 12 16 18 18 19 18
12 18 15 8 7 11 4 2 4 2 2 2 3 3 2 3 3 4 3 3 4 2 2 2 2 1 4 6 12 10 5 7 5 3 3 3 5 9 9 11 14 14 11 11 10 10 13 11 14 17 20 20 20 21
11 12 6 10 5 5 4 7 3 2 3 1 2 2 2 2 3 3 3 4 3 2 2 2 1 2 4 4 4 5 6 6 6 10 10 13 3 2 5 9 10 8 11 13 12 12 13 15 18 18 20 20 19 22
9 8 7 8 6 5 2 4 4 3 3 2 1 2 2 2 2 3 3 2 2 3 3 3 5 9 7 9 12 10 6 11 7 7 10 10 10 11 11 12 11 11 8 12 14 15 16 17 21 21 21 20 20 20
8 5 4 4 4 0 2 4 2 2 2 1 2 3 2 2 3 2 3 2 1 2 4 4 4 2 3 5 3 4 7 7 9 8 8 10 6 7 12 13 13 13 13 13 16 14 17 20 21 22 21 21 21 21
6 6 5 5 3 5 5 4 4 3 1 1 3 1 1 1 1 2 2 2 1 2 3 4 3 2 3 2 3 7 6 1 8 3 4 7 9 10 8 8 9 11 13 15 16 18 20 23 21 21 22 22 21 21
6 4 4 0 3 3 0 2 1 1 2 3 0 1 1 2 3 3 2 1 1 2 2 2 1 1 3 4 2 2 4 4 9 6 5 4 8 8 5 3 3 3 14 17 21 20 21 21 21 23 20 22 26 26
4 3 3 1 1 2 3 2 1 4 3 2 2 2 3 3 1 2 1 3 2 2 3 5 5 3 5 6 8 7 4 6 4 8 7 6 3 5 9 9 7 6 6 16 19 22 23 22 24 22 20 23 26 26
2 3 3 3 3 1 3 2 2 1 0 2 3 2 4 2 1 1 2 4 6 4 4 3 4 4 6 8 8 7 8 11 11 10 8 7 7 5 2 5 5 6 5 7 17 19 23 24 23 24 26 24 21 22
2 3 3 5 5 4 3 2 2 2 3 1 3 1 2 2 3 2 3 3 3 5 6 5 4 3 5 5 4 3 7 9 8 3 3 0 2 4 6 8 7 7 9 13 16 17 19 22 25 25 25 25 22 20
3 1 3 2 3 2 2 2 2 2 2 2 0 2 2 2 5 8 6 5 5 4 5 4 9 8 7 8 6 5 6 9 5 8 4 4 6 9 8 9 13 16 18 20 23 23 21 23 24 24 24 23 21 21
2 3 3 2 2 2 2 2 1 1 0 1 2 1 2 3 4 10 12 9 5 4 5 5 4 6 6 11 10 8 3 3 4 4 6 11 15 13 13 14 16 18 20 21 23 24 24 24 24 23 22 22 20 19
0 1 1 2 1 2 1 2 1 1 0 1 1 1 2 2 2 3 10 9 13 14 12 12 10 7 6 3 7 13 5 6 4 8 15 16 16 15 15 16 17 18 19 20 20 21 20 22 22 21 21 20 18 17
1 2 0 1 0 1 2 3 2 1 1 1 1 2 2 2 2 2 4 7 7 7 7 7 7 7 7 6 7 8 10 10 10 10 12 13 15 15 16 16 16 17 18 19 19 18 19 20 21 20 20 19 18 17

GFSWCAN_925_spd_129.txt.gz
Wind_Speed
54 54 54 53 52 52 52 51 49 48 48 47 46 44 44 44 43 39 26 29 18 1 6 3 5 5 4 6 5 4 3 1 1 4 4 4 3 5 3 6 7 8 7 4 4 6 11 5 4 6 4 2 6 7
52 58 60 61 60 57 55 55 54 52 51 50 48 47 46 46 44 40 15 26 29 3 4 12 12 6 11 7 5 6 4 5 5 3 3 2 1 1 5 3 3 4 6 5 9 6 3 4 2 1 3 4 5 10
30 44 53 61 65 64 63 58 57 55 55 51 49 48 46 45 44 44 20 27 17 4 7 8 6 8 5 12 17 5 2 5 4 5 4 3 2 3 3 4 3 1 2 3 2 4 5 4 1 2 3 5 6 8
14 21 33 46 64 65 65 62 61 56 57 54 51 48 46 44 41 41 27 29 22 3 2 4 9 9 3 7 24 15 9 4 6 3 3 2 2 3 3 3 3 4 5 5 5 4 4 7 6 5 3 5 9 10
25 16 16 45 57 67 63 61 61 62 57 55 53 50 46 43 39 38 26 28 27 5 4 3 6 2 3 7 14 19 15 5 3 3 2 2 2 2 1 1 2 5 6 5 6 5 3 4 4 7 7 6 11 14
33 30 21 29 59 63 62 58 60 61 59 56 53 49 47 41 39 29 3 22 31 15 2 2 5 3 2 7 9 6 4 3 3 4 3 3 3 4 3 3 3 3 2 2 3 2 2 1 5 4 6 9 9 10
40 42 43 48 56 59 58 56 60 60 58 57 54 49 44 41 35 9 4 17 25 21 3 2 2 2 3 5 3 3 6 1 2 2 2 3 2 3 2 3 4 2 5 2 4 6 3 3 4 7 7 10 14 14
46 46 51 49 47 51 56 57 59 60 56 56 51 45 41 41 26 8 3 40 24 7 3 2 2 1 2 2 2 2 2 2 3 3 2 3 1 2 2 5 2 3 4 4 6 3 3 6 7 8 14 14 11 11
50 52 53 55 54 55 55 55 57 59 55 51 46 45 41 21 6 3 16 37 26 4 3 2 4 3 4 2 2 1 1 2 2 2 2 3 1 3 6 6 5 8 6 5 3 4 6 7 9 10 12 11 12 12
50 52 55 54 58 59 59 59 59 58 56 55 50 11 3 17 19 28 11 2 3 4 3 4 3 3 4 3 2 3 0 3 2 2 2 2 3 3 3 5 5 8 6 10 6 3 5 8 10 11 11 10 10 11
47 48 51 52 53 56 59 61 61 62 58 28 3 3 22 29 8 1 3 2 3 3 3 4 4 7 1 3 2 1 2 1 3 3 4 2 3 3 2 3 4 6 7 7 2 4 6 7 10 9 9 12 15 17
46 46 48 51 53 54 55 57 53 34 10 11 17 25 7 3 2 3 3 2 4 5 1 4 4 4 3 3 3 1 2 2 3 1 3 3 3 2 5 4 4 6 7 7 7 7 8 9 11 11 12 14 17 18
36 41 45 46 45 45 41 37 23 32 42 21 6 4 3 1 3 5 4 2 1 3 3 3 5 3 3 2 2 2 3 3 1 2 3 4 2 4 4 5 5 4 6 6 5 9 12 13 15 17 16 19 22 20
33 27 23 27 32 28 27 35 39 6 4 4 4 5 2 2 1 3 2 3 3 4 9 7 3 2 2 3 1 4 2 2 2 0 5 2 5 5 5 5 6 5 5 6 7 11 12 12 11 17 23 26 24 19
31 31 29 23 17 17 17 13 10 9 6 4 4 3 1 2 3 2 1 2 1 3 5 4 3 3 2 4 2 3 2 2 4 4 2 2 2 5 5 3 6 6 6 6 8 7 9 13 13 13 18 23 23 24
22 27 22 18 20 20 13 9 14 6 4 3 4 2 3 3 3 3 2 3 0 3 3 3 3 4 1 4 2 4 5 5 3 2 1 2 1 3 5 4 4 7 8 8 9 12 13 13 13 14 17 19 23 26
25 10 13 14 13 9 7 6 5 5 4 3 2 1 2 2 3 2 3 2 2 3 2 3 4 3 2 2 1 3 4 3 2 2 2 2 2 4 5 6 6 9 10 12 13 13 12 14 18 17 12 13 19 20
15 16 9 12 18 19 10 8 4 4 5 3 3 3 2 2 0 2 2 2 3 3 2 2 3 3 3 4 3 2 2 2 4 3 3 2 3 5 6 6 9 11 11 13 14 14 14 15 11 8 14 17 17 16
17 16 9 7 4 5 3 5 5 4 3 2 2 2 2 2 1 3 2 4 3 3 3 3 4 1 1 1 1 1 3 2 2 1 1 3 6 7 9 11 11 10 13 13 11 10 11 10 10 15 16 16 13 16
11 14 17 12 4 4 4 3 4 4 2 2 2 3 2 1 2 2 3 4 3 2 4 3 2 2 1 1 2 3 3 4 3 2 2 2 6 9 8 10 9 11 11 10 9 10 10 9 9 13 17 16 16 15
10 15 13 8 7 11 4 2 3 2 2 2 3 2 2 3 3 4 3 3 4 2 2 2 2 2 2 5 9 8 4 4 2 3 3 2 4 8 8 8 11 12 8 9 7 8 10 9 12 13 16 17 17 18
8 9 5 9 5 4 4 6 3 1 3 1 3 2 3 2 3 3 2 4 2 2 2 1 1 1 4 3 3 5 5 6 3 6 8 12 3 2 3 8 8 6 10 12 11 11 11 11 12 14 15 15 16 17
5 5 6 7 5 5 1 4 4 3 3 1 2 3 3 2 2 3 3 2 2 2 3 3 4 9 7 8 11 10 8 11 5 6 9 7 8 6 7 8 7 8 6 10 12 12 14 13 13 15 15 15 17 17
6 5 4 4 4 1 2 4 2 2 2 2 2 2 1 2 3 2 3 2 1 2 3 2 5 3 3 5 4 4 7 9 8 6 6 8 5 6 8 10 10 8 9 6 12 12 13 15 15 15 17 18 19 18
6 7 5 5 3 5 4 4 4 3 2 1 3 1 2 2 1 2 2 1 2 2 2 3 3 2 2 2 2 6 9 4 5 3 6 1 4 7 6 7 8 8 8 10 13 13 16 16 17 19 19 20 21 20
5 4 3 1 3 3 1 2 1 2 2 2 0 1 2 2 3 2 2 1 1 2 2 3 3 2 3 4 1 2 5 4 2 4 4 3 2 4 4 2 2 4 10 12 16 17 18 19 20 20 19 19 23 23
5 3 2 0 0 2 3 2 1 4 3 2 1 2 3 3 2 1 1 2 2 3 4 7 6 3 3 5 6 6 5 3 2 5 3 3 2 1 4 4 4 3 3 9 14 19 20 21 21 20 19 20 23 24
1 2 3 4 3 2 4 2 3 2 0 2 2 2 4 3 2 1 1 4 6 4 5 7 7 5 6 7 6 5 6 7 8 7 5 5 6 5 2 2 2 3 3 3 10 16 18 21 23 22 22 22 21 20
3 3 3 5 4 4 3 2 2 2 3 1 3 1 2 2 3 2 4 4 2 2 2 2 3 3 4 3 2 1 3 5 3 3 2 2 4 4 5 4 5 5 4 6 9 13 15 19 21 22 21 22 21 20
3 1 3 3 3 3 2 2 2 2 2 2 0 2 2 2 4 7 6 5 4 3 5 6 8 7 6 6 4 4 5 6 7 5 3 3 5 5 3 3 5 9 11 13 17 19 17 19 22 21 22 23 23 23
1 3 3 2 2 1 1 1 2 2 1 0 1 1 2 2 2 8 11 6 3 1 2 4 2 7 8 10 10 7 4 6 5 5 5 4 8 9 8 8 10 12 14 16 18 19 20 21 22 24 24 24 23 23
2 2 2 2 1 2 2 1 1 0 1 1 1 2 2 2 1 3 7 5 8 12 10 8 5 5 3 0 5 11 6 4 4 3 8 12 13 11 11 11 11 12 14 16 17 19 20 23 23 23 23 22 20 19
1 1 1 0 0 1 3 3 4 2 3 2 1 0 1 2 3 3 2 4 5 5 5 6 7 6 5 5 4 4 6 7 7 9 10 11 12 12 13 13 13 14 16 18 18 18 20 21 22 21 21 21 20 19

GFSWCAN_925_spd_132.txt.gz
Wind_Speed
50 49 49 46 46 44 42 40 38 38 38 39 41 40 41 40 39 31 14 24 12 2 1 3 3 2 4 6 4 4 4 1 2 5 4 4 4 5 3 5 7 7 7 3 4 5 8 5 5 6 4 1 5 5
56 55 52 49 48 48 46 44 41 39 39 38 36 40 42 40 39 30 8 19 22 3 1 2 7 13 10 3 8 3 4 6 5 4 3 3 1 1 4 3 2 3 7 6 9 7 1 6 3 3 4 4 5 7
45 56 59 58 55 51 52 49 45 42 40 40 37 36 36 35 32 31 13 21 17 2 4 6 6 4 6 10 10 4 2 4 2 4 4 2 2 3 4 5 4 2 3 3 2 5 6 6 3 3 5 5 5 6
22 32 54 60 59 55 54 53 50 46 43 42 39 37 34 32 31 31 15 23 20 3 2 4 1 13 29 25 20 17 4 5 5 3 3 3 3 4 3 3 4 4 5 5 4 6 4 9 8 6 5 4 5 9
18 27 36 56 60 60 56 54 52 50 47 45 44 41 36 33 31 30 17 28 25 6 3 3 1 14 14 15 21 20 9 4 3 2 2 4 3 3 1 1 4 5 6 5 7 4 3 3 2 6 8 6 9 10
9 19 36 51 60 62 59 55 54 50 49 46 44 42 38 35 32 21 3 24 32 18 2 2 5 4 3 9 14 9 7 2 3 2 2 2 4 4 2 3 5 5 2 1 3 1 3 1 2 3 5 6 8 9
15 18 46 52 56 63 60 57 53 52 49 47 44 41 37 35 35 4 3 12 33 21 2 2 3 2 3 5 2 4 2 2 3 3 3 4 3 4 2 3 4 3 5 3 3 5 2 2 2 5 4 7 11 10
46 42 55 53 56 61 59 58 54 54 49 47 42 38 36 35 16 5 5 25 37 7 2 2 3 1 2 2 2 2 2 2 2 2 1 3 2 2 3 4 1 3 4 3 5 1 1 4 5 5 7 10 9 9
53 56 56 59 59 58 57 57 55 55 51 46 41 37 33 11 2 7 28 27 16 5 3 3 3 2 2 2 2 2 2 2 1 2 2 3 1 4 6 5 5 8 5 5 5 5 4 3 5 6 8 8 10 9
52 51 52 54 56 57 56 58 55 55 51 47 42 11 3 13 17 30 9 2 2 2 2 2 0 3 2 1 2 2 0 2 2 3 3 3 3 4 4 4 3 7 7 11 5 3 3 3 6 7 8 7 8 10
53 54 53 55 56 57 59 59 58 57 52 22 3 3 17 33 8 2 4 4 3 3 4 3 4 3 2 2 2 3 3 2 3 2 4 2 3 3 3 4 3 7 8 6 4 3 6 5 7 8 8 9 13 15
52 53 56 59 59 59 60 59 56 37 17 11 19 24 11 2 3 3 3 3 4 5 3 5 4 4 2 3 2 1 1 2 3 1 2 3 3 2 4 4 4 6 7 6 4 5 5 6 9 8 10 12 16 18
47 49 54 55 55 55 54 47 34 33 40 25 7 4 3 0 4 5 5 3 1 3 3 3 3 3 2 3 2 2 3 3 2 2 3 4 2 3 4 5 6 5 6 6 5 6 8 9 12 14 12 16 20 20
42 45 47 48 48 43 34 31 40 26 6 3 3 3 2 2 3 3 3 3 3 3 6 4 2 3 1 3 1 4 2 2 2 0 5 2 3 5 5 3 5 4 4 6 6 9 11 9 9 15 19 23 21 18
29 31 28 23 19 17 30 32 4 3 4 3 4 2 0 2 2 1 2 1 2 3 5 4 3 2 2 3 1 3 2 2 5 4 3 2 1 4 5 3 5 5 5 4 6 8 8 9 11 14 17 20 20 21
27 22 13 19 27 26 27 9 3 2 3 3 4 1 2 1 2 1 0 0 1 2 3 3 3 3 1 4 3 4 6 5 3 1 0 1 1 2 4 4 5 6 7 8 7 7 9 10 12 14 16 18 19 22
17 5 13 15 15 8 5 4 3 5 3 3 2 1 1 2 2 1 2 2 0 3 2 2 3 2 2 2 1 3 4 3 3 2 2 2 3 4 5 6 7 8 8 9 9 9 9 12 15 16 10 13 17 18
12 7 7 7 3 5 5 8 4 3 4 3 2 3 2 2 1 2 2 1 3 2 2 2 3 3 3 3 2 1 2 1 2 2 3 3 4 5 7 7 9 10 11 11 12 13 13 14 11 8 13 16 16 15
14 8 4 2 4 5 3 6 5 3 3 2 2 2 1 1 2 1 1 3 2 2 4 3 4 2 1 1 1 1 2 2 2 1 1 3 6 7 10 12 12 11 13 13 11 11 11 9 10 13 14 15 13 15
9 10 10 6 4 4 4 3 3 3 2 1 2 3 2 2 1 1 0 3 3 2 4 3 2 1 1 1 2 2 2 3 3 2 2 2 6 9 8 8 8 12 12 10 10 12 11 10 9 12 15 15 15 14
4 8 8 5 5 9 3 2 3 2 2 2 1 1 2 2 3 4 4 4 4 2 2 2 2 2 1 3 8 8 3 3 2 1 2 2 4 8 8 9 11 11 8 9 8 8 9 9 10 11 13 14 14 16
6 5 3 6 4 3 3 3 3 1 2 0 2 2 3 2 2 2 2 4 2 2 1 2 2 1 3 3 3 5 7 6 5 6 8 12 3 2 3 7 8 5 8 10 10 11 9 9 10 11 12 13 13 15
4 4 5 6 5 4 1 2 3 3 3 1 2 3 3 2 2 2 3 2 1 2 2 2 4 9 7 7 12 12 9 11 5 6 7 8 8 7 7 7 6 7 5 8 9 9 11 10 12 13 13 15 16 17
6 5 4 3 4 1 2 4 2 2 2 2 2 2 2 2 3 3 3 2 1 2 2 3 4 4 4 6 4 3 7 7 10 8 5 8 4 4 6 7 7 4 3 4 10 9 11 13 13 15 17 18 18 19
6 7 5 5 3 5 4 3 4 3 2 1 3 2 2 2 2 2 2 1 1 2 3 2 3 2 3 2 2 5 9 5 6 3 7 3 3 5 4 5 6 4 6 8 10 11 12 14 15 16 18 19 19 18
6 4 3 1 3 3 2 2 1 3 3 2 1 2 2 2 3 2 2 0 1 2 2 2 1 1 3 4 2 2 5 5 4 5 4 6 3 0 2 2 1 3 6 9 12 14 15 16 17 17 18 19 21 21
4 3 2 1 1 2 3 2 1 3 3 2 1 2 3 3 2 1 1 2 2 2 4 8 8 4 4 6 7 7 6 5 6 8 5 4 3 2 1 1 2 1 1 6 11 16 19 18 19 19 19 19 20 21
1 3 3 4 3 2 4 2 2 2 2 2 2 3 4 4 2 1 1 4 8 7 8 9 9 8 9 9 8 7 5 7 8 7 5 6 6 5 3 3 3 3 3 3 6 13 16 18 20 20 19 19 18 17
2 3 3 5 4 3 3 2 1 1 2 1 3 2 2 2 1 2 4 4 4 4 4 4 4 4 5 4 3 2 3 3 2 3 2 2 4 4 4 4 3 3 3 4 5 8 13 16 18 19 18 18 18 18
3 1 3 2 3 2 2 2 1 2 2 1 1 2 2 2 2 5 4 3 3 2 1 3 4 7 5 5 3 2 3 3 4 1 3 3 3 3 2 1 3 5 7 10 14 17 14 15 18 18 19 21 21 22
1 3 3 3 2 1 1 0 1 1 1 0 1 2 2 2 2 5 8 4 1 1 1 1 2 1 4 5 7 4 3 5 4 5 6 5 5 6 5 5 6 9 11 14 16 17 19 20 21 22 22 22 22 24
3 2 3 2 1 1 3 2 1 0 2 2 1 2 2 2 1 2 4 3 6 9 8 6 5 3 2 1 2 6 6 3 4 3 4 10 11 9 8 8 9 10 13 14 16 17 18 22 22 23 23 23 21 20
2 1 1 1 1 2 2 3 4 3 3 2 1 0 1 2 3 3 2 3 4 5 6 6 7 7 6 6 6 5 6 6 7 9 10 10 10 11 11 11 12 13 15 17 18 18 20 23 24 23 23 22 21 20

GFSWCAN_925_spd_135.txt.gz
Wind_Speed
45 46 44 43 40 38 36 35 34 35 35 34 32 32 34 32 33 31 16 19 12 3 2 2 2 3 4 6 5 4 5 1 2 7 6 4 4 7 4 4 7 9 9 5 5 5 10 7 8 7 3 2 4 8
50 48 46 46 44 40 38 36 34 33 34 32 33 34 35 32 32 26 7 20 10 3 3 5 2 2 1 4 4 5 4 6 6 4 3 3 3 3 6 6 3 5 6 6 10 7 1 13 5 5 4 4 5 7
47 54 52 47 47 44 41 38 36 35 34 32 33 36 38 32 35 20 21 21 12 2 2 1 4 7 8 5 1 3 1 3 3 2 4 2 4 4 5 5 5 4 4 3 2 6 10 9 6 4 6 5 4 5
25 45 54 53 48 47 45 40 38 36 33 32 34 36 38 31 39 24 22 24 14 3 2 3 1 7 22 19 21 12 3 1 4 1 2 3 3 5 4 1 5 4 8 6 5 6 4 10 10 7 8 5 5 7
23 27 48 56 53 49 48 43 39 36 32 30 24 42 34 29 27 21 20 23 16 4 3 2 3 8 9 9 11 7 9 4 2 3 2 3 2 3 2 0 5 6 6 6 7 6 3 2 2 5 9 9 9 10
27 31 34 57 57 51 50 46 41 37 35 31 26 35 30 28 28 21 3 16 22 6 2 2 2 4 9 8 5 11 9 6 2 3 2 3 3 4 4 4 5 10 6 4 6 2 2 2 1 0 5 6 7 9
33 37 35 56 57 54 52 48 43 40 36 34 28 29 29 33 28 4 4 8 32 12 2 2 3 1 5 4 3 3 9 3 3 3 4 3 3 5 2 4 4 4 5 4 3 5 2 3 1 4 3 5 8 7
40 43 44 58 56 53 53 50 44 41 39 36 33 30 28 25 15 3 5 10 27 8 2 2 2 3 2 3 2 3 3 2 2 3 2 3 3 2 4 7 3 2 5 4 5 1 3 4 5 5 6 9 8 8
46 49 58 58 57 55 55 51 46 43 41 37 33 29 25 7 3 5 0 29 11 3 5 3 3 3 1 2 2 1 2 2 1 3 4 5 3 5 7 5 6 9 6 6 7 4 4 3 5 5 6 7 7 8
55 56 58 59 57 57 55 52 49 44 42 40 37 7 2 12 19 25 8 2 1 1 1 3 1 2 3 2 2 2 1 3 3 3 4 4 3 5 4 5 4 9 8 13 7 4 4 4 6 7 9 7 7 9
55 56 57 57 55 56 54 52 50 49 46 17 3 2 14 29 7 1 4 4 4 4 4 3 4 2 2 2 1 1 2 2 3 3 3 3 3 3 3 4 2 8 10 8 3 3 5 4 8 8 8 8 10 13
53 55 56 55 54 55 52 52 52 31 14 12 15 20 13 3 2 4 4 4 5 6 6 6 4 3 3 2 2 2 2 1 3 3 2 2 2 2 4 4 5 8 10 7 4 5 5 4 8 8 8 10 12 13
52 53 54 54 56 55 55 50 36 27 35 19 5 3 4 2 5 4 6 3 3 4 5 4 4 3 2 2 2 2 4 3 4 2 3 2 1 4 5 5 7 6 8 7 5 6 6 7 7 8 9 12 18 17
48 49 50 51 50 48 43 34 30 30 5 3 3 4 4 3 4 4 2 3 1 3 7 5 3 2 2 2 1 3 1 2 2 2 4 0 3 5 4 4 7 5 5 5 6 8 8 7 5 7 12 18 19 16
41 41 41 43 46 36 30 27 13 4 3 3 3 2 3 3 2 1 2 1 0 3 7 4 3 2 1 3 1 3 3 3 4 3 1 2 4 6 5 4 5 4 4 4 4 6 7 7 7 7 10 15 16 18
24 23 19 19 17 21 17 7 5 6 3 2 2 2 1 2 2 3 2 1 2 3 2 3 2 2 1 3 3 4 5 4 1 1 1 2 2 3 4 5 5 6 7 8 8 6 7 7 7 8 11 14 15 18
13 4 16 21 27 25 17 0 2 3 2 2 1 1 2 1 2 1 1 2 2 2 2 2 3 3 3 2 2 2 2 0 1 1 2 2 3 5 6 6 7 9 8 8 6 6 6 7 10 11 9 9 12 14
3 10 14 16 14 13 4 1 3 3 3 2 1 2 1 1 1 1 1 0 2 2 2 2 3 2 2 3 2 2 2 1 2 3 3 4 4 5 7 7 9 9 8 7 7 7 9 10 9 7 10 11 11 11
9 8 8 6 9 4 3 3 3 3 1 1 1 1 1 1 2 1 1 2 3 3 4 2 3 2 1 1 0 1 3 2 2 2 2 4 6 7 9 10 10 8 10 9 8 7 7 7 7 9 11 12 11 12
7 6 5 3 3 4 3 2 3 3 2 1 2 3 1 2 2 3 5 5 3 2 4 3 2 1 1 1 0 1 3 4 4 3 2 2 5 9 8 8 7 9 9 7 7 8 7 6 6 8 10 11 13 13
2 4 5 3 4 7 3 1 3 1 1 2 2 2 2 2 2 3 3 3 2 3 2 2 2 2 2 4 5 7 3 3 2 1 2 3 4 7 7 8 9 8 6 7 7 7 6 5 8 9 11 10 11 12
3 4 3 5 4 3 3 3 2 1 2 1 1 2 2 2 2 2 2 3 2 2 1 2 2 2 4 4 3 6 7 7 5 6 8 11 3 3 4 7 7 5 6 7 7 8 7 7 9 10 11 11 12 12
3 4 5 6 4 4 1 3 2 2 2 0 1 2 2 2 1 2 3 2 1 2 2 2 5 8 8 8 12 11 9 8 5 6 6 6 6 7 8 7 7 7 5 6 8 8 8 10 11 12 13 13 13 13
5 5 4 3 3 1 2 3 1 2 2 2 2 2 0 1 1 2 3 1 1 1 3 5 7 5 5 4 3 3 5 8 9 7 5 6 4 4 7 8 7 6 4 7 10 9 11 12 13 13 14 14 13 15
5 6 4 4 3 4 4 3 3 3 2 1 2 0 2 2 2 2 2 2 1 2 3 3 2 3 3 3 2 5 6 5 6 4 3 2 4 4 4 5 6 5 7 10 10 11 12 13 14 14 14 15 15 15
5 3 3 1 2 3 2 2 1 3 3 2 1 1 2 1 2 3 2 2 2 1 2 2 3 3 3 2 3 1 2 3 4 4 2 3 2 1 2 3 3 5 8 9 11 14 14 14 15 16 14 15 17 16
4 3 2 2 1 2 3 2 2 3 2 2 2 2 2 3 3 1 1 1 2 3 5 5 3 4 5 6 7 5 5 4 5 6 4 2 1 0 2 2 3 3 5 8 11 15 18 18 17 17 15 15 17 18
1 3 2 4 2 2 3 2 2 1 2 2 2 2 4 6 3 1 1 4 9 10 11 10 10 11 12 10 8 6 6 7 8 7 5 5 4 3 2 3 3 3 4 5 7 12 15 18 20 19 18 17 17 16
2 3 2 4 3 3 2 1 1 1 2 0 2 2 2 1 0 1 2 3 7 8 8 8 7 8 7 6 5 3 5 6 3 2 1 1 2 1 3 4 4 3 3 4 5 8 13 15 18 19 18 17 16 16
3 2 3 1 3 1 1 1 1 1 1 1 1 2 2 1 1 2 1 3 4 5 4 2 3 7 5 5 4 3 5 5 4 3 2 1 2 2 3 2 3 4 6 9 14 16 14 15 17 18 19 19 18 18
2 2 3 3 2 1 1 1 1 2 2 2 2 2 2 2 0 1 2 0 2 3 3 3 3 3 6 5 5 3 3 7 6 6 5 5 4 5 5 5 6 7 9 13 16 17 18 19 20 21 20 19 19 21
2 2 2 1 1 1 3 2 1 2 1 0 1 2 1 1 2 1 1 3 4 4 3 3 4 2 2 3 5 7 7 4 5 4 4 8 10 9 8 9 9 10 12 14 14 16 17 20 20 20 21 20 21 21
1 2 2 0 2 1 2 2 3 3 2 1 1 1 2 2 4 2 4 4 5 7 7 6 6 5 4 4 5 6 7 7 7 8 11 10 10 11 11 11 12 13 15 16 16 17 19 21 22 22 23 23 22 21